Time,TemperatureF,DewpointF,PressureIn,WindDirection,WindDirectionDegrees,WindSpeedMPH,WindSpeedGustMPH,Humidity,HourlyPrecipIn,Conditions,Clouds,dailyrainin,SoftwareType,DateUTC
2013-05-24 00:00:00,45.7,25.0,29.44,NNW,338,0.0,0.0,44,0.00,,BKN060TCU,0.00,VWS V14.01,2013-05-24 05:00:00,
2013-05-24 00:01:00,45.7,25.0,29.44,NNW,338,0.0,0.0,44,0.00,,BKN060TCU,0.00,VWS V14.01,2013-05-24 05:01:00,
2013-05-24 00:02:00,45.7,25.0,29.44,NNW,338,0.0,0.0,44,0.00,,BKN060TCU,0.00,VWS V14.01,2013-05-24 05:02:00,
2013-05-24 00:03:00,45.7,25.0,29.44,NNW,338,0.0,0.0,44,0.00,,BKN060TCU,0.00,VWS V14.01,2013-05-24 05:03:00,
2013-05-24 00:04:00,45.7,25.0,29.44,NNW,338,0.0,0.0,44,0.00,,BKN060TCU,0.00,VWS V14.01,2013-05-24 05:04:00,
2013-05-24 00:05:00,45.7,25.0,29.44,NNW,338,0.0,0.0,44,0.00,,BKN060TCU,0.00,VWS V14.01,2013-05-24 05:05:00,
2013-05-24 00:06:00,45.5,24.9,29.44,NNW,338,0.0,0.0,44,0.00,,BKN060TCU,0.00,VWS V14.01,2013-05-24 05:06:00,
2013-05-24 00:07:00,45.5,24.9,29.44,NNW,338,0.0,0.0,44,0.00,,BKN060TCU,0.00,VWS V14.01,2013-05-24 05:07:00,
2013-05-24 00:08:00,45.7,25.0,29.44,NNW,338,0.0,0.0,44,0.00,,BKN060TCU,0.00,VWS V14.01,2013-05-24 05:08:00,
2013-05-24 00:09:00,45.7,25.0,29.44,NNW,338,0.0,0.0,44,0.00,,BKN060TCU,0.00,VWS V14.01,2013-05-24 05:09:00,
2013-05-24 00:10:00,45.7,25.0,29.44,NNW,338,0.0,0.0,44,0.00,,BKN060TCU,0.00,VWS V14.01,2013-05-24 05:10:00,
2013-05-24 00:11:00,45.7,25.0,29.44,NNW,338,0.0,0.0,44,0.00,,BKN060TCU,0.00,VWS V14.01,2013-05-24 05:11:00,
2013-05-24 00:12:00,45.7,25.0,29.44,NNW,338,0.0,0.0,44,0.00,,BKN060TCU,0.00,VWS V14.01,2013-05-24 05:12:00,
2013-05-24 00:13:00,45.7,25.0,29.44,NNW,338,0.0,0.0,44,0.00,,BKN060TCU,0.00,VWS V14.01,2013-05-24 05:13:00,
2013-05-24 00:14:00,45.9,25.2,29.44,NNW,338,0.0,0.0,44,0.00,,BKN060TCU,0.00,VWS V14.01,2013-05-24 05:14:00,
2013-05-24 00:15:00,45.9,25.2,29.44,NNW,338,0.0,0.0,44,0.00,,BKN060TCU,0.00,VWS V14.01,2013-05-24 05:15:00,
2013-05-24 00:16:00,45.9,25.2,29.44,NNW,338,0.0,0.0,44,0.00,,BKN060TCU,0.00,VWS V14.01,2013-05-24 05:16:00,
2013-05-24 00:17:00,45.9,25.2,29.44,NNW,338,0.0,0.0,44,0.00,,BKN060TCU,0.00,VWS V14.01,2013-05-24 05:17:00,
2013-05-24 00:18:00,45.9,25.2,29.44,NNW,338,0.0,0.0,44,0.00,,BKN060TCU,0.00,VWS V14.01,2013-05-24 05:18:00,
2013-05-24 00:19:00,45.9,25.2,29.44,NNW,338,0.0,0.0,44,0.00,,BKN060TCU,0.00,VWS V14.01,2013-05-24 05:19:00,
2013-05-24 00:20:00,45.7,25.6,29.44,NNW,338,0.0,0.0,45,0.00,,BKN060TCU,0.00,VWS V14.01,2013-05-24 05:20:00,
2013-05-24 00:21:00,45.5,25.4,29.44,NNW,338,0.0,0.0,45,0.00,,BKN060TCU,0.00,VWS V14.01,2013-05-24 05:21:00,
2013-05-24 00:22:00,45.3,25.2,29.44,NNW,338,0.0,0.0,45,0.00,,BKN060TCU,0.00,VWS V14.01,2013-05-24 05:22:00,
2013-05-24 00:23:00,45.3,25.2,29.44,NNW,338,0.0,0.0,45,0.00,,BKN060TCU,0.00,VWS V14.01,2013-05-24 05:23:00,
2013-05-24 00:24:00,45.5,25.4,29.44,NNW,338,0.0,0.0,45,0.00,,BKN060TCU,0.00,VWS V14.01,2013-05-24 05:24:00,
2013-05-24 00:25:00,45.3,24.7,29.44,NNW,338,0.0,0.0,44,0.00,,BKN060TCU,0.00,VWS V14.01,2013-05-24 05:25:00,
2013-05-24 00:26:00,45.3,25.2,29.44,NNW,338,0.0,0.0,45,0.00,,BKN060TCU,0.00,VWS V14.01,2013-05-24 05:26:00,
2013-05-24 00:27:00,45.3,25.2,29.44,NNW,338,0.0,0.0,45,0.00,,BKN060TCU,0.00,VWS V14.01,2013-05-24 05:27:00,
2013-05-24 00:28:00,45.1,24.5,29.44,NNW,338,0.0,0.0,44,0.00,,BKN060TCU,0.00,VWS V14.01,2013-05-24 05:28:00,
2013-05-24 00:29:00,45.0,24.4,29.44,NNW,338,0.0,0.0,44,0.00,,BKN060TCU,0.00,VWS V14.01,2013-05-24 05:29:00,
2013-05-24 00:30:00,44.8,24.8,29.44,NNW,338,0.0,0.0,45,0.00,,BKN060TCU,0.00,VWS V14.01,2013-05-24 05:30:00,
2013-05-24 00:31:00,44.6,24.6,29.44,NNW,338,0.0,0.0,45,0.00,,BKN060TCU,0.00,VWS V14.01,2013-05-24 05:31:00,
2013-05-24 00:32:00,44.6,24.6,29.44,NNW,338,0.0,0.0,45,0.00,,BKN060TCU,0.00,VWS V14.01,2013-05-24 05:32:00,
2013-05-24 00:33:00,44.4,24.4,29.44,NNW,338,0.0,0.0,45,0.00,,BKN060TCU,0.00,VWS V14.01,2013-05-24 05:33:00,
2013-05-24 00:34:00,44.2,24.3,29.44,NNW,338,0.0,0.0,45,0.00,,BKN060TCU,0.00,VWS V14.01,2013-05-24 05:34:00,
2013-05-24 00:35:00,44.2,24.3,29.44,NNW,338,0.0,0.0,45,0.00,,BKN060TCU,0.00,VWS V14.01,2013-05-24 05:35:00,
2013-05-24 00:36:00,44.1,24.1,29.44,NNW,338,0.0,0.0,45,0.00,,BKN060TCU,0.00,VWS V14.01,2013-05-24 05:36:00,
2013-05-24 00:37:00,44.1,24.6,29.44,NNW,338,0.0,0.0,46,0.00,,BKN060TCU,0.00,VWS V14.01,2013-05-24 05:37:00,
2013-05-24 00:38:00,43.9,24.5,29.44,NNW,338,0.0,0.0,46,0.00,,BKN060TCU,0.00,VWS V14.01,2013-05-24 05:38:00,
2013-05-24 00:39:00,43.7,24.3,29.44,NNW,338,0.0,0.0,46,0.00,,BKN060TCU,0.00,VWS V14.01,2013-05-24 05:39:00,
2013-05-24 00:40:00,43.7,24.3,29.44,NNW,338,0.0,0.0,46,0.00,,BKN060TCU,0.00,VWS V14.01,2013-05-24 05:40:00,
2013-05-24 00:41:00,43.5,24.1,29.44,NNW,338,0.0,0.0,46,0.00,,BKN060TCU,0.00,VWS V14.01,2013-05-24 05:41:00,
2013-05-24 00:42:00,43.5,24.1,29.44,NNW,338,0.0,0.0,46,0.00,,BKN060TCU,0.00,VWS V14.01,2013-05-24 05:42:00,
2013-05-24 00:43:00,43.3,24.0,29.44,NNW,338,0.0,0.0,46,0.00,,BKN060TCU,0.00,VWS V14.01,2013-05-24 05:43:00,
2013-05-24 00:44:00,43.3,24.0,29.44,NNW,338,0.0,0.0,46,0.00,,BKN060TCU,0.00,VWS V14.01,2013-05-24 05:44:00,
2013-05-24 00:45:00,43.3,24.0,29.44,NNW,338,0.0,0.0,46,0.00,,BKN060TCU,0.00,VWS V14.01,2013-05-24 05:45:00,
2013-05-24 00:46:00,43.3,24.0,29.44,NNW,338,0.0,0.0,46,0.00,,BKN060TCU,0.00,VWS V14.01,2013-05-24 05:46:00,
2013-05-24 00:47:00,43.3,24.0,29.44,NNW,338,0.0,0.0,46,0.00,,BKN060TCU,0.00,VWS V14.01,2013-05-24 05:47:00,
2013-05-24 00:48:00,43.2,24.3,29.44,NNW,338,0.0,0.0,47,0.00,,BKN060TCU,0.00,VWS V14.01,2013-05-24 05:48:00,
2013-05-24 00:49:00,43.2,24.3,29.44,NNW,338,0.0,0.0,47,0.00,,BKN060TCU,0.00,VWS V14.01,2013-05-24 05:49:00,
2013-05-24 00:50:00,43.0,24.1,29.44,NNW,338,0.0,0.0,47,0.00,,BKN060TCU,0.00,VWS V14.01,2013-05-24 05:50:00,
2013-05-24 00:51:00,43.0,24.6,29.44,NNW,338,0.0,0.0,48,0.00,,BKN060TCU,0.00,VWS V14.01,2013-05-24 05:51:00,
2013-05-24 00:52:00,43.0,24.6,29.44,NNW,338,0.0,0.0,48,0.00,,BKN060TCU,0.00,VWS V14.01,2013-05-24 05:52:00,
2013-05-24 00:53:00,43.0,24.6,29.44,NNW,338,0.0,0.0,48,0.00,,BKN060TCU,0.00,VWS V14.01,2013-05-24 05:53:00,
2013-05-24 00:54:00,43.0,24.6,29.44,NNW,338,0.0,0.0,48,0.00,,BKN060TCU,0.00,VWS V14.01,2013-05-24 05:54:00,
2013-05-24 00:55:00,43.0,24.6,29.44,NNW,338,0.0,0.0,48,0.00,,BKN060TCU,0.00,VWS V14.01,2013-05-24 05:55:00,
2013-05-24 00:56:00,43.0,24.6,29.44,NNW,338,0.0,0.0,48,0.00,,BKN060TCU,0.00,VWS V14.01,2013-05-24 05:56:00,
2013-05-24 00:57:00,43.0,24.6,29.44,NNW,338,0.0,0.0,48,0.00,,BKN060TCU,0.00,VWS V14.01,2013-05-24 05:57:00,
2013-05-24 00:58:00,42.8,24.5,29.44,NNW,338,0.0,0.0,48,0.00,,BKN060TCU,0.00,VWS V14.01,2013-05-24 05:58:00,
2013-05-24 00:59:00,43.0,24.6,29.44,NNW,338,0.0,0.0,48,0.00,,BKN060TCU,0.00,VWS V14.01,2013-05-24 05:59:00,
2013-05-24 01:00:00,42.8,24.5,29.44,NNW,338,0.0,0.0,48,0.00,,BKN060TCU,0.00,VWS V14.01,2013-05-24 06:00:00,
2013-05-24 01:01:00,42.4,24.1,29.44,NNW,338,0.0,0.0,48,0.00,,BKN060TCU,0.00,VWS V14.01,2013-05-24 06:01:00,
2013-05-24 01:02:00,42.4,24.1,29.44,NNW,338,0.0,0.0,48,0.00,,BKN060TCU,0.00,VWS V14.01,2013-05-24 06:02:00,
2013-05-24 01:03:00,42.4,24.1,29.44,NNW,338,0.0,0.0,48,0.00,,BKN060TCU,0.00,VWS V14.01,2013-05-24 06:03:00,
2013-05-24 01:04:00,42.3,24.5,29.44,NNW,338,0.0,0.0,49,0.00,,BKN060TCU,0.00,VWS V14.01,2013-05-24 06:04:00,
2013-05-24 01:05:00,42.4,24.1,29.44,NNW,338,0.0,0.0,48,0.00,,BKN060TCU,0.00,VWS V14.01,2013-05-24 06:05:00,
2013-05-24 01:06:00,42.4,24.6,29.44,NNW,338,0.0,0.0,49,0.00,,BKN060TCU,0.00,VWS V14.01,2013-05-24 06:06:00,
2013-05-24 01:07:00,42.6,24.8,29.44,NNW,338,0.0,0.0,49,0.00,,BKN060TCU,0.00,VWS V14.01,2013-05-24 06:07:00,
2013-05-24 01:08:00,42.6,24.8,29.44,NNW,338,0.0,0.0,49,0.00,,BKN060TCU,0.00,VWS V14.01,2013-05-24 06:08:00,
2013-05-24 01:09:00,42.6,24.8,29.44,NNW,338,0.0,0.0,49,0.00,,BKN060TCU,0.00,VWS V14.01,2013-05-24 06:09:00,
2013-05-24 01:10:00,42.6,24.8,29.44,NNW,338,0.0,0.0,49,0.00,,BKN060TCU,0.00,VWS V14.01,2013-05-24 06:10:00,
2013-05-24 01:11:00,42.6,24.8,29.44,NNW,338,0.0,0.0,49,0.00,,BKN060TCU,0.00,VWS V14.01,2013-05-24 06:11:00,
2013-05-24 01:12:00,42.6,24.8,29.44,NNW,338,0.0,0.0,49,0.00,,BKN060TCU,0.00,VWS V14.01,2013-05-24 06:12:00,
2013-05-24 01:13:00,42.6,24.8,29.44,NNW,338,0.0,0.0,49,0.00,,BKN060TCU,0.00,VWS V14.01,2013-05-24 06:13:00,
2013-05-24 01:14:00,42.6,24.8,29.44,NNW,338,0.0,0.0,49,0.00,,BKN060TCU,0.00,VWS V14.01,2013-05-24 06:14:00,
2013-05-24 01:15:00,42.4,24.6,29.44,NNW,338,0.0,0.0,49,0.00,,BKN060TCU,0.00,VWS V14.01,2013-05-24 06:15:00,
2013-05-24 01:16:00,42.4,25.1,29.44,NNW,338,0.0,0.0,50,0.00,,BKN060TCU,0.00,VWS V14.01,2013-05-24 06:16:00,
2013-05-24 01:17:00,42.4,25.1,29.44,NNW,338,0.0,0.0,50,0.00,,BKN060TCU,0.00,VWS V14.01,2013-05-24 06:17:00,
2013-05-24 01:18:00,42.6,25.3,29.44,NNW,338,0.0,0.0,50,0.00,,BKN060TCU,0.00,VWS V14.01,2013-05-24 06:18:00,
2013-05-24 01:19:00,42.6,25.3,29.44,NNW,338,0.0,0.0,50,0.00,,BKN060TCU,0.00,VWS V14.01,2013-05-24 06:19:00,
2013-05-24 01:20:00,42.6,25.3,29.44,NNW,338,0.0,0.0,50,0.00,,BKN060TCU,0.00,VWS V14.01,2013-05-24 06:20:00,
2013-05-24 01:21:00,42.4,25.1,29.44,NNW,338,0.0,0.0,50,0.00,,BKN060TCU,0.00,VWS V14.01,2013-05-24 06:21:00,
2013-05-24 01:22:00,42.6,25.3,29.44,NNW,338,0.0,0.0,50,0.00,,BKN060TCU,0.00,VWS V14.01,2013-05-24 06:22:00,
2013-05-24 01:23:00,42.6,25.3,29.44,NNW,338,0.0,0.0,50,0.00,,BKN060TCU,0.00,VWS V14.01,2013-05-24 06:23:00,
2013-05-24 01:24:00,42.6,25.3,29.44,NNW,338,0.0,0.0,50,0.00,,BKN060TCU,0.00,VWS V14.01,2013-05-24 06:24:00,
2013-05-24 01:25:00,42.6,25.3,29.44,NNW,338,0.0,0.0,50,0.00,,BKN060TCU,0.00,VWS V14.01,2013-05-24 06:25:00,
2013-05-24 01:26:00,42.4,25.1,29.44,NNW,338,0.0,0.0,50,0.00,,BKN060TCU,0.00,VWS V14.01,2013-05-24 06:26:00,
2013-05-24 01:27:00,42.4,25.1,29.44,NNW,338,0.0,0.0,50,0.00,,BKN060TCU,0.00,VWS V14.01,2013-05-24 06:27:00,
2013-05-24 01:28:00,42.4,25.1,29.44,NNW,338,0.0,0.0,50,0.00,,BKN060TCU,0.00,VWS V14.01,2013-05-24 06:28:00,
2013-05-24 01:29:00,42.3,25.0,29.44,NNW,338,0.0,0.0,50,0.00,,BKN060TCU,0.00,VWS V14.01,2013-05-24 06:29:00,
2013-05-24 01:30:00,42.1,24.8,29.44,NNW,338,0.0,0.0,50,0.00,,BKN060TCU,0.00,VWS V14.01,2013-05-24 06:30:00,
2013-05-24 01:31:00,42.1,24.8,29.44,NNW,338,0.0,0.0,50,0.00,,BKN060TCU,0.00,VWS V14.01,2013-05-24 06:31:00,
2013-05-24 01:32:00,42.1,24.8,29.44,NNW,338,0.0,0.0,50,0.00,,BKN060TCU,0.00,VWS V14.01,2013-05-24 06:32:00,
2013-05-24 01:33:00,42.1,24.8,29.44,NNW,338,0.0,0.0,50,0.00,,BKN060TCU,0.00,VWS V14.01,2013-05-24 06:33:00,
2013-05-24 01:34:00,42.1,24.8,29.44,NNW,338,0.0,0.0,50,0.00,,BKN060TCU,0.00,VWS V14.01,2013-05-24 06:34:00,
2013-05-24 01:35:00,42.1,25.3,29.44,NNW,338,0.0,0.0,51,0.00,,BKN060TCU,0.00,VWS V14.01,2013-05-24 06:35:00,
2013-05-24 01:36:00,41.9,25.1,29.44,NNW,338,0.0,0.0,51,0.00,,BKN060TCU,0.00,VWS V14.01,2013-05-24 06:36:00,
2013-05-24 01:37:00,41.9,25.1,29.44,NNW,338,0.0,0.0,51,0.00,,BKN060TCU,0.00,VWS V14.01,2013-05-24 06:37:00,
2013-05-24 01:38:00,42.1,25.3,29.44,NNW,338,0.0,0.0,51,0.00,,BKN060TCU,0.00,VWS V14.01,2013-05-24 06:38:00,
2013-05-24 01:39:00,42.1,25.3,29.44,NNW,338,0.0,0.0,51,0.00,,BKN060TCU,0.00,VWS V14.01,2013-05-24 06:39:00,
2013-05-24 01:40:00,42.1,25.3,29.44,NNW,338,0.0,0.0,51,0.00,,BKN060TCU,0.00,VWS V14.01,2013-05-24 06:40:00,
2013-05-24 01:41:00,41.9,25.1,29.44,NNW,338,0.0,0.0,51,0.00,,BKN060TCU,0.00,VWS V14.01,2013-05-24 06:41:00,
2013-05-24 01:42:00,41.9,25.1,29.44,NNW,338,0.0,0.0,51,0.00,,BKN060TCU,0.00,VWS V14.01,2013-05-24 06:42:00,
2013-05-24 01:43:00,41.7,24.9,29.44,NNW,338,0.0,0.0,51,0.00,,BKN060TCU,0.00,VWS V14.01,2013-05-24 06:43:00,
2013-05-24 01:44:00,41.7,24.9,29.44,NNW,338,0.0,0.0,51,0.00,,BKN060TCU,0.00,VWS V14.01,2013-05-24 06:44:00,
2013-05-24 01:45:00,41.7,24.9,29.44,NNW,338,0.0,0.0,51,0.00,,BKN060TCU,0.00,VWS V14.01,2013-05-24 06:45:00,
2013-05-24 01:46:00,41.5,24.8,29.44,NNW,338,0.0,0.0,51,0.00,,BKN060TCU,0.00,VWS V14.01,2013-05-24 06:46:00,
2013-05-24 01:47:00,41.5,24.8,29.44,NNW,338,0.0,0.0,51,0.00,,BKN060TCU,0.00,VWS V14.01,2013-05-24 06:47:00,
2013-05-24 01:48:00,41.5,25.2,29.44,NNW,338,0.0,0.0,52,0.00,,BKN060TCU,0.00,VWS V14.01,2013-05-24 06:48:00,
2013-05-24 01:49:00,41.5,25.2,29.44,NNW,338,0.0,0.0,52,0.00,,BKN060TCU,0.00,VWS V14.01,2013-05-24 06:49:00,
2013-05-24 01:50:00,41.4,25.1,29.44,NNW,338,0.0,0.0,52,0.00,,BKN060TCU,0.00,VWS V14.01,2013-05-24 06:50:00,
2013-05-24 01:51:00,41.2,24.9,29.44,NNW,338,0.0,0.0,52,0.00,,BKN060TCU,0.00,VWS V14.01,2013-05-24 06:51:00,
2013-05-24 01:52:00,41.2,24.9,29.44,NNW,338,0.0,0.0,52,0.00,,BKN060TCU,0.00,VWS V14.01,2013-05-24 06:52:00,
2013-05-24 01:53:00,41.0,24.7,29.44,NNW,338,0.0,0.0,52,0.00,,BKN060TCU,0.00,VWS V14.01,2013-05-24 06:53:00,
2013-05-24 01:54:00,41.0,24.7,29.44,NNW,338,0.0,0.0,52,0.00,,BKN060TCU,0.00,VWS V14.01,2013-05-24 06:54:00,
2013-05-24 01:55:00,41.0,24.7,29.44,NNW,338,0.0,0.0,52,0.00,,BKN060TCU,0.00,VWS V14.01,2013-05-24 06:55:00,
2013-05-24 01:56:00,41.0,24.7,29.44,NNW,338,0.0,0.0,52,0.00,,BKN060TCU,0.00,VWS V14.01,2013-05-24 06:56:00,
2013-05-24 01:57:00,41.0,24.7,29.44,NNW,338,0.0,0.0,52,0.00,,BKN060TCU,0.00,VWS V14.01,2013-05-24 06:57:00,
2013-05-24 01:58:00,41.0,24.7,29.44,NNW,338,0.0,0.0,52,0.00,,BKN060TCU,0.00,VWS V14.01,2013-05-24 06:58:00,
2013-05-24 01:59:00,41.0,24.7,29.44,NNW,338,0.0,0.0,52,0.00,,BKN060TCU,0.00,VWS V14.01,2013-05-24 06:59:00,
2013-05-24 02:00:00,41.0,24.7,29.44,NNW,338,0.0,0.0,52,0.00,,BKN060TCU,0.00,VWS V14.01,2013-05-24 07:00:00,
2013-05-24 02:01:00,41.0,25.2,29.44,NNW,338,0.0,0.0,53,0.00,,BKN060TCU,0.00,VWS V14.01,2013-05-24 07:01:00,
2013-05-24 02:02:00,41.0,25.2,29.44,NNW,338,0.0,0.0,53,0.00,,BKN060TCU,0.00,VWS V14.01,2013-05-24 07:02:00,
2013-05-24 02:03:00,41.0,25.2,29.44,NNW,338,0.0,0.0,53,0.00,,BKN060TCU,0.00,VWS V14.01,2013-05-24 07:03:00,
2013-05-24 02:04:00,41.0,25.2,29.44,NNW,338,0.0,0.0,53,0.00,,BKN060TCU,0.00,VWS V14.01,2013-05-24 07:04:00,
2013-05-24 02:05:00,41.0,25.2,29.44,NNW,338,0.0,0.0,53,0.00,,BKN060TCU,0.00,VWS V14.01,2013-05-24 07:05:00,
2013-05-24 02:06:00,41.0,25.6,29.44,NNW,338,0.0,0.0,54,0.00,,BKN060TCU,0.00,VWS V14.01,2013-05-24 07:06:00,
2013-05-24 02:07:00,41.0,25.6,29.44,NNW,338,0.0,0.0,54,0.00,,BKN060TCU,0.00,VWS V14.01,2013-05-24 07:07:00,
2013-05-24 02:08:00,41.2,25.8,29.44,NNW,338,0.0,0.0,54,0.00,,BKN060TCU,0.00,VWS V14.01,2013-05-24 07:08:00,
2013-05-24 02:09:00,41.2,25.8,29.44,NNW,338,0.0,0.0,54,0.00,,BKN060TCU,0.00,VWS V14.01,2013-05-24 07:09:00,
2013-05-24 02:10:00,41.4,26.0,29.44,NNW,338,0.0,0.0,54,0.00,,BKN060TCU,0.00,VWS V14.01,2013-05-24 07:10:00,
2013-05-24 02:11:00,41.4,26.0,29.44,NNW,338,0.0,0.0,54,0.00,,BKN060TCU,0.00,VWS V14.01,2013-05-24 07:11:00,
2013-05-24 02:12:00,41.4,26.0,29.44,NNW,338,0.0,0.0,54,0.00,,BKN060TCU,0.00,VWS V14.01,2013-05-24 07:12:00,
2013-05-24 02:13:00,41.2,25.8,29.44,NNW,338,0.0,0.0,54,0.00,,BKN060TCU,0.00,VWS V14.01,2013-05-24 07:13:00,
2013-05-24 02:14:00,41.2,25.8,29.44,NNW,338,0.0,0.0,54,0.00,,BKN060TCU,0.00,VWS V14.01,2013-05-24 07:14:00,
2013-05-24 02:15:00,41.2,25.8,29.44,NNW,338,0.0,0.0,54,0.00,,BKN060TCU,0.00,VWS V14.01,2013-05-24 07:15:00,
2013-05-24 02:16:00,41.2,25.8,29.44,NNW,338,0.0,0.0,54,0.00,,BKN060TCU,0.00,VWS V14.01,2013-05-24 07:16:00,
2013-05-24 02:17:00,41.2,25.8,29.44,NNW,338,0.0,0.0,54,0.00,,BKN060TCU,0.00,VWS V14.01,2013-05-24 07:17:00,
2013-05-24 02:18:00,41.2,25.8,29.44,NNW,338,0.0,0.0,54,0.00,,BKN060TCU,0.00,VWS V14.01,2013-05-24 07:18:00,
2013-05-24 02:19:00,41.2,25.8,29.44,NNW,338,0.0,0.0,54,0.00,,BKN060TCU,0.00,VWS V14.01,2013-05-24 07:19:00,
2013-05-24 02:20:00,41.2,25.8,29.44,NNW,338,0.0,0.0,54,0.00,,BKN060TCU,0.00,VWS V14.01,2013-05-24 07:20:00,
2013-05-24 02:21:00,41.2,26.2,29.44,NNW,338,0.0,0.0,55,0.00,,BKN060TCU,0.00,VWS V14.01,2013-05-24 07:21:00,
2013-05-24 02:22:00,41.2,26.2,29.44,NNW,338,0.0,0.0,55,0.00,,BKN060TCU,0.00,VWS V14.01,2013-05-24 07:22:00,
2013-05-24 02:23:00,41.0,26.1,29.44,NNW,338,0.0,0.0,55,0.00,,BKN060TCU,0.00,VWS V14.01,2013-05-24 07:23:00,
2013-05-24 02:24:00,41.0,25.6,29.44,NNW,338,0.0,0.0,54,0.00,,BKN060TCU,0.00,VWS V14.01,2013-05-24 07:24:00,
2013-05-24 02:25:00,41.0,25.6,29.44,NNW,338,0.0,0.0,54,0.00,,BKN060TCU,0.00,VWS V14.01,2013-05-24 07:25:00,
2013-05-24 02:26:00,41.0,26.1,29.44,NNW,338,0.0,0.0,55,0.00,,BKN060TCU,0.00,VWS V14.01,2013-05-24 07:26:00,
2013-05-24 02:27:00,41.0,26.1,29.44,NNW,338,0.0,0.0,55,0.00,,BKN060TCU,0.00,VWS V14.01,2013-05-24 07:27:00,
2013-05-24 02:28:00,41.0,26.1,29.44,NNW,338,0.0,0.0,55,0.00,,BKN060TCU,0.00,VWS V14.01,2013-05-24 07:28:00,
2013-05-24 02:29:00,41.0,26.1,29.44,NNW,338,0.0,0.0,55,0.00,,BKN060TCU,0.00,VWS V14.01,2013-05-24 07:29:00,
2013-05-24 02:30:00,41.0,26.1,29.44,NNW,338,0.0,0.0,55,0.00,,BKN060TCU,0.00,VWS V14.01,2013-05-24 07:30:00,
2013-05-24 02:31:00,41.2,26.2,29.44,NNW,338,0.0,0.0,55,0.00,,BKN060TCU,0.00,VWS V14.01,2013-05-24 07:31:00,
2013-05-24 02:32:00,41.2,26.2,29.44,NNW,338,0.0,0.0,55,0.00,,BKN060TCU,0.00,VWS V14.01,2013-05-24 07:32:00,
2013-05-24 02:33:00,41.2,26.7,29.44,NNW,338,0.0,0.0,56,0.00,,BKN060TCU,0.00,VWS V14.01,2013-05-24 07:33:00,
2013-05-24 02:34:00,41.2,26.7,29.44,NNW,338,0.0,0.0,56,0.00,,BKN060TCU,0.00,VWS V14.01,2013-05-24 07:34:00,
2013-05-24 02:35:00,41.2,26.7,29.44,NNW,338,0.0,0.0,56,0.00,,BKN060TCU,0.00,VWS V14.01,2013-05-24 07:35:00,
2013-05-24 02:36:00,41.0,26.1,29.44,NNW,338,0.0,0.0,55,0.00,,BKN060TCU,0.00,VWS V14.01,2013-05-24 07:36:00,
2013-05-24 02:37:00,41.0,26.1,29.44,NNW,338,0.0,0.0,55,0.00,,BKN060TCU,0.00,VWS V14.01,2013-05-24 07:37:00,
2013-05-24 02:38:00,40.8,26.4,29.44,NNW,338,0.0,0.0,56,0.00,,BKN060TCU,0.00,VWS V14.01,2013-05-24 07:38:00,
2013-05-24 02:39:00,40.6,26.2,29.44,NNW,338,0.0,0.0,56,0.00,,BKN060TCU,0.00,VWS V14.01,2013-05-24 07:39:00,
2013-05-24 02:40:00,40.6,26.2,29.44,NNW,338,0.0,0.0,56,0.00,,BKN060TCU,0.00,VWS V14.01,2013-05-24 07:40:00,
2013-05-24 02:41:00,40.5,25.6,29.44,NNW,338,0.0,0.0,55,0.00,,BKN060TCU,0.00,VWS V14.01,2013-05-24 07:41:00,
2013-05-24 02:42:00,40.5,25.6,29.44,NNW,338,0.0,0.0,55,0.00,,BKN060TCU,0.00,VWS V14.01,2013-05-24 07:42:00,
2013-05-24 02:43:00,40.5,26.0,29.44,NNW,338,0.0,0.0,56,0.00,,BKN060TCU,0.00,VWS V14.01,2013-05-24 07:43:00,
2013-05-24 02:44:00,40.5,26.0,29.44,NNW,338,0.0,0.0,56,0.00,,BKN060TCU,0.00,VWS V14.01,2013-05-24 07:44:00,
2013-05-24 02:45:00,40.5,26.0,29.44,NNW,338,0.0,0.0,56,0.00,,BKN060TCU,0.00,VWS V14.01,2013-05-24 07:45:00,
2013-05-24 02:46:00,40.3,25.9,29.44,NNW,338,0.0,0.0,56,0.00,,BKN060TCU,0.00,VWS V14.01,2013-05-24 07:46:00,
2013-05-24 02:47:00,40.3,25.9,29.44,NNW,338,0.0,0.0,56,0.00,,BKN060TCU,0.00,VWS V14.01,2013-05-24 07:47:00,
2013-05-24 02:48:00,40.3,25.9,29.44,NNW,338,0.0,0.0,56,0.00,,BKN060TCU,0.00,VWS V14.01,2013-05-24 07:48:00,
2013-05-24 02:49:00,40.3,25.9,29.44,NNW,338,0.0,0.0,56,0.00,,BKN060TCU,0.00,VWS V14.01,2013-05-24 07:49:00,
2013-05-24 02:50:00,40.3,25.9,29.44,NNW,338,0.0,0.0,56,0.00,,BKN060TCU,0.00,VWS V14.01,2013-05-24 07:50:00,
2013-05-24 02:51:00,40.3,25.9,29.44,NNW,338,0.0,0.0,56,0.00,,BKN060TCU,0.00,VWS V14.01,2013-05-24 07:51:00,
2013-05-24 02:52:00,40.3,25.9,29.44,NNW,338,0.0,0.0,56,0.00,,BKN060TCU,0.00,VWS V14.01,2013-05-24 07:52:00,
2013-05-24 02:53:00,40.1,25.7,29.44,NNW,338,0.0,0.0,56,0.00,,BKN060TCU,0.00,VWS V14.01,2013-05-24 07:53:00,
2013-05-24 02:54:00,40.1,25.7,29.44,NNW,338,0.0,0.0,56,0.00,,BKN060TCU,0.00,VWS V14.01,2013-05-24 07:54:00,
2013-05-24 02:55:00,40.1,25.7,29.44,NNW,338,0.0,0.0,56,0.00,,BKN060TCU,0.00,VWS V14.01,2013-05-24 07:55:00,
2013-05-24 02:56:00,40.1,25.7,29.44,NNW,338,0.0,0.0,56,0.00,,BKN060TCU,0.00,VWS V14.01,2013-05-24 07:56:00,
2013-05-24 02:57:00,40.1,25.7,29.44,NNW,338,0.0,0.0,56,0.00,,BKN060TCU,0.00,VWS V14.01,2013-05-24 07:57:00,
2013-05-24 02:58:00,39.9,25.5,29.44,NNW,338,0.0,0.0,56,0.00,,BKN060TCU,0.00,VWS V14.01,2013-05-24 07:58:00,
2013-05-24 02:59:00,39.9,25.5,29.44,NNW,338,0.0,0.0,56,0.00,,BKN060TCU,0.00,VWS V14.01,2013-05-24 07:59:00,
2013-05-24 03:00:00,39.9,25.9,29.44,NNW,338,0.0,0.0,57,0.00,,BKN060TCU,0.00,VWS V14.01,2013-05-24 08:00:00,
2013-05-24 03:01:00,40.1,25.7,29.44,NNW,338,0.0,0.0,56,0.00,,BKN060TCU,0.00,VWS V14.01,2013-05-24 08:01:00,
2013-05-24 03:02:00,39.9,25.9,29.44,NNW,338,0.0,0.0,57,0.00,,BKN060TCU,0.00,VWS V14.01,2013-05-24 08:02:00,
2013-05-24 03:03:00,40.1,26.1,29.44,NNW,338,0.0,0.0,57,0.00,,BKN060TCU,0.00,VWS V14.01,2013-05-24 08:03:00,
2013-05-24 03:04:00,40.3,26.3,29.44,NNW,338,0.0,0.0,57,0.00,,BKN060TCU,0.00,VWS V14.01,2013-05-24 08:04:00,
2013-05-24 03:05:00,40.5,26.4,29.44,NNW,338,0.0,0.0,57,0.00,,BKN060TCU,0.00,VWS V14.01,2013-05-24 08:05:00,
2013-05-24 03:06:00,40.5,26.4,29.44,NNW,338,0.0,0.0,57,0.00,,BKN060TCU,0.00,VWS V14.01,2013-05-24 08:06:00,
2013-05-24 03:07:00,40.5,26.4,29.44,NNW,338,0.0,0.0,57,0.00,,BKN060TCU,0.00,VWS V14.01,2013-05-24 08:07:00,
2013-05-24 03:08:00,40.3,25.9,29.44,NNW,338,0.0,0.0,56,0.00,,BKN060TCU,0.00,VWS V14.01,2013-05-24 08:08:00,
2013-05-24 03:09:00,40.3,25.9,29.44,NNW,338,0.0,0.0,56,0.00,,BKN060TCU,0.00,VWS V14.01,2013-05-24 08:09:00,
2013-05-24 03:10:00,40.1,25.7,29.44,NNW,338,0.0,0.0,56,0.00,,BKN060TCU,0.00,VWS V14.01,2013-05-24 08:10:00,
2013-05-24 03:11:00,39.9,25.9,29.44,NNW,338,0.0,0.0,57,0.00,,BKN060TCU,0.00,VWS V14.01,2013-05-24 08:11:00,
2013-05-24 03:12:00,39.9,25.9,29.44,NNW,338,0.0,0.0,57,0.00,,BKN060TCU,0.00,VWS V14.01,2013-05-24 08:12:00,
2013-05-24 03:13:00,39.9,25.5,29.44,NNW,338,0.0,0.0,56,0.00,,BKN060TCU,0.00,VWS V14.01,2013-05-24 08:13:00,
2013-05-24 03:14:00,39.9,25.5,29.44,NNW,338,0.0,0.0,56,0.00,,BKN060TCU,0.00,VWS V14.01,2013-05-24 08:14:00,
2013-05-24 03:15:00,39.9,25.5,29.44,NNW,338,0.0,0.0,56,0.00,,BKN060TCU,0.00,VWS V14.01,2013-05-24 08:15:00,
2013-05-24 03:16:00,39.9,25.5,29.44,NNW,338,0.0,0.0,56,0.00,,BKN060TCU,0.00,VWS V14.01,2013-05-24 08:16:00,
2013-05-24 03:17:00,39.9,25.5,29.44,NNW,338,0.0,0.0,56,0.00,,BKN060TCU,0.00,VWS V14.01,2013-05-24 08:17:00,
2013-05-24 03:18:00,39.9,25.5,29.44,NNW,338,0.0,0.0,56,0.00,,BKN060TCU,0.00,VWS V14.01,2013-05-24 08:18:00,
2013-05-24 03:19:00,39.7,25.3,29.44,NNW,338,0.0,0.0,56,0.00,,BKN060TCU,0.00,VWS V14.01,2013-05-24 08:19:00,
2013-05-24 03:20:00,39.6,25.2,29.41,NNW,338,0.0,0.0,56,0.00,,BKN060TCU,0.00,VWS V14.01,2013-05-24 08:20:00,
2013-05-24 03:21:00,39.6,25.6,29.41,NNW,338,0.0,0.0,57,0.00,,BKN060TCU,0.00,VWS V14.01,2013-05-24 08:21:00,
2013-05-24 03:22:00,39.6,25.6,29.41,NNW,338,0.0,0.0,57,0.00,,BKN060TCU,0.00,VWS V14.01,2013-05-24 08:22:00,
2013-05-24 03:23:00,39.4,25.0,29.41,NNW,338,0.0,0.0,56,0.00,,BKN060TCU,0.00,VWS V14.01,2013-05-24 08:23:00,
2013-05-24 03:24:00,39.4,25.0,29.41,NNW,338,0.0,0.0,56,0.00,,BKN060TCU,0.00,VWS V14.01,2013-05-24 08:24:00,
2013-05-24 03:25:00,39.6,25.6,29.41,NNW,338,0.0,0.0,57,0.00,,BKN060TCU,0.00,VWS V14.01,2013-05-24 08:25:00,
2013-05-24 03:26:00,39.6,25.6,29.41,NNW,338,0.0,0.0,57,0.00,,BKN060TCU,0.00,VWS V14.01,2013-05-24 08:26:00,
2013-05-24 03:27:00,39.6,25.6,29.41,NNW,338,0.0,0.0,57,0.00,,BKN060TCU,0.00,VWS V14.01,2013-05-24 08:27:00,
2013-05-24 03:28:00,39.7,25.8,29.41,NNW,338,0.0,0.0,57,0.00,,BKN060TCU,0.00,VWS V14.01,2013-05-24 08:28:00,
2013-05-24 03:29:00,39.7,26.2,29.41,NNW,338,0.0,0.0,58,0.00,,BKN060TCU,0.00,VWS V14.01,2013-05-24 08:29:00,
2013-05-24 03:30:00,39.7,25.8,29.41,NNW,338,0.0,0.0,57,0.00,,BKN060TCU,0.00,VWS V14.01,2013-05-24 08:30:00,
2013-05-24 03:31:00,39.7,25.8,29.41,NNW,338,0.0,0.0,57,0.00,,BKN060TCU,0.00,VWS V14.01,2013-05-24 08:31:00,
2013-05-24 03:32:00,39.7,25.8,29.41,NNW,338,0.0,0.0,57,0.00,,BKN060TCU,0.00,VWS V14.01,2013-05-24 08:32:00,
2013-05-24 03:33:00,39.7,25.8,29.41,NNW,338,0.0,0.0,57,0.00,,BKN060TCU,0.00,VWS V14.01,2013-05-24 08:33:00,
2013-05-24 03:34:00,39.7,25.8,29.41,NNW,338,0.0,0.0,57,0.00,,BKN060TCU,0.00,VWS V14.01,2013-05-24 08:34:00,
2013-05-24 03:35:00,39.7,25.8,29.44,NNW,338,0.0,0.0,57,0.00,,BKN060TCU,0.00,VWS V14.01,2013-05-24 08:35:00,
2013-05-24 03:36:00,39.7,26.2,29.44,NNW,338,0.0,0.0,58,0.00,,BKN060TCU,0.00,VWS V14.01,2013-05-24 08:36:00,
2013-05-24 03:37:00,39.7,26.2,29.44,NNW,338,0.0,0.0,58,0.00,,BKN060TCU,0.00,VWS V14.01,2013-05-24 08:37:00,
2013-05-24 03:38:00,39.7,25.8,29.44,NNW,338,0.0,0.0,57,0.00,,BKN060TCU,0.00,VWS V14.01,2013-05-24 08:38:00,
2013-05-24 03:39:00,39.7,25.8,29.44,NNW,338,0.0,0.0,57,0.00,,BKN060TCU,0.00,VWS V14.01,2013-05-24 08:39:00,
2013-05-24 03:40:00,39.7,25.8,29.44,NNW,338,0.0,0.0,57,0.00,,BKN060TCU,0.00,VWS V14.01,2013-05-24 08:40:00,
2013-05-24 03:41:00,39.7,25.8,29.44,NNW,338,0.0,0.0,57,0.00,,BKN060TCU,0.00,VWS V14.01,2013-05-24 08:41:00,
2013-05-24 03:42:00,39.7,25.8,29.44,NNW,338,0.0,0.0,57,0.00,,BKN060TCU,0.00,VWS V14.01,2013-05-24 08:42:00,
2013-05-24 03:43:00,39.7,25.8,29.44,NNW,338,0.0,0.0,57,0.00,,BKN060TCU,0.00,VWS V14.01,2013-05-24 08:43:00,
2013-05-24 03:44:00,39.7,25.8,29.44,NNW,338,0.0,0.0,57,0.00,,BKN060TCU,0.00,VWS V14.01,2013-05-24 08:44:00,
2013-05-24 03:45:00,39.7,26.2,29.44,NNW,338,0.0,0.0,58,0.00,,BKN060TCU,0.00,VWS V14.01,2013-05-24 08:45:00,
2013-05-24 03:46:00,39.4,25.9,29.44,NNW,338,0.0,0.0,58,0.00,,BKN060TCU,0.00,VWS V14.01,2013-05-24 08:46:00,
2013-05-24 03:47:00,39.4,25.9,29.44,NNW,338,0.0,0.0,58,0.00,,BKN060TCU,0.00,VWS V14.01,2013-05-24 08:47:00,
2013-05-24 03:48:00,39.4,25.9,29.44,NNW,338,0.0,0.0,58,0.00,,BKN060TCU,0.00,VWS V14.01,2013-05-24 08:48:00,
2013-05-24 03:49:00,39.2,25.7,29.44,NNW,338,0.0,0.0,58,0.00,,BKN060TCU,0.00,VWS V14.01,2013-05-24 08:49:00,
2013-05-24 03:50:00,39.2,25.3,29.44,NNW,338,0.0,0.0,57,0.00,,BKN060TCU,0.00,VWS V14.01,2013-05-24 08:50:00,
2013-05-24 03:51:00,39.2,25.7,29.44,NNW,338,0.0,0.0,58,0.00,,BKN060TCU,0.00,VWS V14.01,2013-05-24 08:51:00,
2013-05-24 03:52:00,39.2,25.7,29.44,NNW,338,0.0,0.0,58,0.00,,BKN060TCU,0.00,VWS V14.01,2013-05-24 08:52:00,
2013-05-24 03:53:00,39.2,25.7,29.44,NNW,338,0.0,0.0,58,0.00,,BKN060TCU,0.00,VWS V14.01,2013-05-24 08:53:00,
2013-05-24 03:54:00,39.2,25.7,29.44,NNW,338,0.0,0.0,58,0.00,,BKN060TCU,0.00,VWS V14.01,2013-05-24 08:54:00,
2013-05-24 03:55:00,39.2,26.1,29.44,NNW,338,0.0,0.0,59,0.00,,BKN060TCU,0.00,VWS V14.01,2013-05-24 08:55:00,
2013-05-24 03:56:00,39.2,25.7,29.44,NNW,338,0.0,0.0,58,0.00,,BKN060TCU,0.00,VWS V14.01,2013-05-24 08:56:00,
2013-05-24 03:57:00,39.2,25.7,29.44,NNW,338,0.0,0.0,58,0.00,,BKN060TCU,0.00,VWS V14.01,2013-05-24 08:57:00,
2013-05-24 03:58:00,39.0,25.9,29.44,NNW,338,0.0,0.0,59,0.00,,BKN060TCU,0.00,VWS V14.01,2013-05-24 08:58:00,
2013-05-24 03:59:00,39.0,25.9,29.44,NNW,338,0.0,0.0,59,0.00,,BKN060TCU,0.00,VWS V14.01,2013-05-24 08:59:00,
2013-05-24 04:00:00,39.0,25.9,29.44,NNW,338,0.0,0.0,59,0.00,,BKN060TCU,0.00,VWS V14.01,2013-05-24 09:00:00,
2013-05-24 04:01:00,38.8,25.8,29.44,NNW,338,0.0,0.0,59,0.00,,BKN060TCU,0.00,VWS V14.01,2013-05-24 09:01:00,
2013-05-24 04:02:00,38.8,26.2,29.44,NNW,338,0.0,0.0,60,0.00,,BKN060TCU,0.00,VWS V14.01,2013-05-24 09:02:00,
2013-05-24 04:03:00,38.8,26.2,29.44,NNW,338,0.0,0.0,60,0.00,,BKN060TCU,0.00,VWS V14.01,2013-05-24 09:03:00,
2013-05-24 04:04:00,38.8,26.2,29.44,NNW,338,0.0,0.0,60,0.00,,BKN060TCU,0.00,VWS V14.01,2013-05-24 09:04:00,
2013-05-24 04:05:00,38.7,26.0,29.41,NNW,338,0.0,0.0,60,0.00,,BKN060TCU,0.00,VWS V14.01,2013-05-24 09:05:00,
2013-05-24 04:06:00,38.7,26.0,29.41,NNW,338,0.0,0.0,60,0.00,,BKN060TCU,0.00,VWS V14.01,2013-05-24 09:06:00,
2013-05-24 04:07:00,38.7,26.0,29.41,NNW,338,0.0,0.0,60,0.00,,BKN060TCU,0.00,VWS V14.01,2013-05-24 09:07:00,
2013-05-24 04:08:00,38.7,26.0,29.41,NNW,338,0.0,0.0,60,0.00,,BKN060TCU,0.00,VWS V14.01,2013-05-24 09:08:00,
2013-05-24 04:09:00,38.5,25.8,29.41,NNW,338,0.0,0.0,60,0.00,,BKN060TCU,0.00,VWS V14.01,2013-05-24 09:09:00,
2013-05-24 04:11:00,38.5,25.8,29.41,NNW,338,0.0,0.0,60,0.00,,BKN060TCU,0.00,VWS V14.01,2013-05-24 09:11:00,
2013-05-24 04:12:00,38.5,25.8,29.41,NNW,338,0.0,0.0,60,0.00,,BKN060TCU,0.00,VWS V14.01,2013-05-24 09:12:00,
2013-05-24 04:13:00,38.5,25.8,29.41,NNW,338,0.0,0.0,60,0.00,,BKN060TCU,0.00,VWS V14.01,2013-05-24 09:13:00,
2013-05-24 04:14:00,38.5,25.8,29.41,NNW,338,0.0,0.0,60,0.00,,BKN060TCU,0.00,VWS V14.01,2013-05-24 09:14:00,
2013-05-24 04:15:00,38.5,25.8,29.41,NNW,338,0.0,0.0,60,0.00,,BKN060TCU,0.00,VWS V14.01,2013-05-24 09:15:00,
2013-05-24 04:16:00,38.5,25.8,29.41,NNW,338,0.0,0.0,60,0.00,,BKN060TCU,0.00,VWS V14.01,2013-05-24 09:16:00,
2013-05-24 04:17:00,38.5,26.2,29.41,NNW,338,0.0,0.0,61,0.00,,BKN060TCU,0.00,VWS V14.01,2013-05-24 09:17:00,
2013-05-24 04:18:00,38.5,26.2,29.41,NNW,338,0.0,0.0,61,0.00,,BKN060TCU,0.00,VWS V14.01,2013-05-24 09:18:00,
2013-05-24 04:19:00,38.5,26.2,29.41,NNW,338,0.0,0.0,61,0.00,,BKN060TCU,0.00,VWS V14.01,2013-05-24 09:19:00,
2013-05-24 04:20:00,38.5,25.8,29.41,NNW,338,0.0,0.0,60,0.00,,BKN060TCU,0.00,VWS V14.01,2013-05-24 09:20:00,
2013-05-24 04:21:00,38.3,25.6,29.44,NNW,338,0.0,0.0,60,0.00,,BKN060TCU,0.00,VWS V14.01,2013-05-24 09:21:00,
2013-05-24 04:22:00,38.1,25.5,29.44,NNW,338,0.0,0.0,60,0.00,,BKN060TCU,0.00,VWS V14.01,2013-05-24 09:22:00,
2013-05-24 04:23:00,38.1,25.5,29.44,NNW,338,0.0,0.0,60,0.00,,BKN060TCU,0.00,VWS V14.01,2013-05-24 09:23:00,
2013-05-24 04:24:00,38.1,25.5,29.44,NNW,338,0.0,0.0,60,0.00,,BKN060TCU,0.00,VWS V14.01,2013-05-24 09:24:00,
2013-05-24 04:25:00,37.9,25.3,29.44,NNW,338,0.0,0.0,60,0.00,,BKN060TCU,0.00,VWS V14.01,2013-05-24 09:25:00,
2013-05-24 04:26:00,37.8,25.5,29.44,NNW,338,0.0,0.0,61,0.00,,BKN060TCU,0.00,VWS V14.01,2013-05-24 09:26:00,
2013-05-24 04:27:00,37.8,25.5,29.44,NNW,338,0.0,0.0,61,0.00,,BKN060TCU,0.00,VWS V14.01,2013-05-24 09:27:00,
2013-05-24 04:28:00,37.8,25.9,29.44,NNW,338,0.0,0.0,62,0.00,,BKN060TCU,0.00,VWS V14.01,2013-05-24 09:28:00,
2013-05-24 04:29:00,37.6,25.8,29.44,NNW,338,0.0,0.0,62,0.00,,BKN060TCU,0.00,VWS V14.01,2013-05-24 09:29:00,
2013-05-24 04:30:00,37.6,25.8,29.44,NNW,338,0.0,0.0,62,0.00,,BKN060TCU,0.00,VWS V14.01,2013-05-24 09:30:00,
2013-05-24 04:31:00,37.4,25.2,29.44,NNW,338,0.0,0.0,61,0.00,,BKN060TCU,0.00,VWS V14.01,2013-05-24 09:31:00,
2013-05-24 04:32:00,37.4,25.2,29.44,NNW,338,0.0,0.0,61,0.00,,BKN060TCU,0.00,VWS V14.01,2013-05-24 09:32:00,
2013-05-24 04:33:00,37.4,25.2,29.44,NNW,338,0.0,0.0,61,0.00,,BKN060TCU,0.00,VWS V14.01,2013-05-24 09:33:00,
2013-05-24 04:34:00,37.4,25.2,29.44,NNW,338,0.0,0.0,61,0.00,,BKN060TCU,0.00,VWS V14.01,2013-05-24 09:34:00,
2013-05-24 04:35:00,37.4,25.2,29.44,NNW,338,0.0,0.0,61,0.00,,BKN060TCU,0.00,VWS V14.01,2013-05-24 09:35:00,
2013-05-24 04:36:00,37.4,25.6,29.44,NNW,338,0.0,0.0,62,0.00,,BKN060TCU,0.00,VWS V14.01,2013-05-24 09:36:00,
2013-05-24 04:37:00,37.4,25.6,29.44,NNW,338,0.0,0.0,62,0.00,,BKN060TCU,0.00,VWS V14.01,2013-05-24 09:37:00,
2013-05-24 04:38:00,37.2,26.2,29.44,NNW,338,0.0,0.0,64,0.00,,BKN060TCU,0.00,VWS V14.01,2013-05-24 09:38:00,
2013-05-24 04:39:00,37.2,26.5,29.44,NNW,338,0.0,0.0,65,0.00,,BKN060TCU,0.00,VWS V14.01,2013-05-24 09:39:00,
2013-05-24 04:40:00,37.2,26.9,29.44,NNW,338,0.0,0.0,66,0.00,,BKN060TCU,0.00,VWS V14.01,2013-05-24 09:40:00,
2013-05-24 04:41:00,37.2,26.5,29.44,NNW,338,0.0,0.0,65,0.00,,BKN060TCU,0.00,VWS V14.01,2013-05-24 09:41:00,
2013-05-24 04:42:00,37.2,26.5,29.44,NNW,338,0.0,0.0,65,0.00,,BKN060TCU,0.00,VWS V14.01,2013-05-24 09:42:00,
2013-05-24 04:43:00,37.2,26.5,29.44,NNW,338,0.0,0.0,65,0.00,,BKN060TCU,0.00,VWS V14.01,2013-05-24 09:43:00,
2013-05-24 04:44:00,37.2,26.5,29.44,NNW,338,0.0,0.0,65,0.00,,BKN060TCU,0.00,VWS V14.01,2013-05-24 09:44:00,
2013-05-24 04:45:00,37.2,26.2,29.44,NNW,338,0.0,0.0,64,0.00,,BKN060TCU,0.00,VWS V14.01,2013-05-24 09:45:00,
2013-05-24 04:46:00,37.0,26.0,29.44,NNW,338,0.0,0.0,64,0.00,,BKN060TCU,0.00,VWS V14.01,2013-05-24 09:46:00,
2013-05-24 04:47:00,37.0,26.4,29.44,NNW,338,0.0,0.0,65,0.00,,BKN060TCU,0.00,VWS V14.01,2013-05-24 09:47:00,
2013-05-24 04:48:00,37.0,26.4,29.44,NNW,338,0.0,0.0,65,0.00,,BKN060TCU,0.00,VWS V14.01,2013-05-24 09:48:00,
2013-05-24 04:49:00,37.0,26.4,29.44,NNW,338,0.0,0.0,65,0.00,,BKN060TCU,0.00,VWS V14.01,2013-05-24 09:49:00,
2013-05-24 04:50:00,37.0,26.4,29.44,NNW,338,0.0,0.0,65,0.00,,BKN060TCU,0.00,VWS V14.01,2013-05-24 09:50:00,
2013-05-24 04:51:00,37.0,26.4,29.44,NNW,338,0.0,0.0,65,0.00,,BKN060TCU,0.00,VWS V14.01,2013-05-24 09:51:00,
2013-05-24 04:52:00,37.0,26.4,29.44,NNW,338,0.0,0.0,65,0.00,,BKN060TCU,0.00,VWS V14.01,2013-05-24 09:52:00,
2013-05-24 04:53:00,37.0,26.4,29.44,NNW,338,0.0,0.0,65,0.00,,BKN060TCU,0.00,VWS V14.01,2013-05-24 09:53:00,
2013-05-24 04:54:00,36.9,25.8,29.44,NNW,338,0.0,0.0,64,0.00,,BKN060TCU,0.00,VWS V14.01,2013-05-24 09:54:00,
2013-05-24 04:55:00,36.9,25.8,29.44,NNW,338,0.0,0.0,64,0.00,,BKN060TCU,0.00,VWS V14.01,2013-05-24 09:55:00,
2013-05-24 04:56:00,37.0,27.1,29.44,NNW,338,0.0,0.0,67,0.00,,BKN060TCU,0.00,VWS V14.01,2013-05-24 09:56:00,
2013-05-24 04:57:00,37.0,27.1,29.44,NNW,338,0.0,0.0,67,0.00,,BKN060TCU,0.00,VWS V14.01,2013-05-24 09:57:00,
2013-05-24 04:58:00,37.0,27.1,29.44,NNW,338,0.0,0.0,67,0.00,,BKN060TCU,0.00,VWS V14.01,2013-05-24 09:58:00,
2013-05-24 04:59:00,37.0,26.8,29.44,NNW,338,0.0,0.0,66,0.00,,BKN060TCU,0.00,VWS V14.01,2013-05-24 09:59:00,
2013-05-24 05:00:00,37.0,26.8,29.44,NNW,338,0.0,0.0,66,0.00,,BKN060TCU,0.00,VWS V14.01,2013-05-24 10:00:00,
2013-05-24 05:01:00,37.2,26.9,29.44,NNW,338,0.0,0.0,66,0.00,,BKN060TCU,0.00,VWS V14.01,2013-05-24 10:01:00,
2013-05-24 05:02:00,37.2,26.9,29.44,NNW,338,0.0,0.0,66,0.00,,BKN060TCU,0.00,VWS V14.01,2013-05-24 10:02:00,
2013-05-24 05:03:00,37.4,27.1,29.44,NNW,338,0.0,0.0,66,0.00,,BKN060TCU,0.00,VWS V14.01,2013-05-24 10:03:00,
2013-05-24 05:04:00,37.4,27.1,29.44,NNW,338,0.0,0.0,66,0.00,,BKN060TCU,0.00,VWS V14.01,2013-05-24 10:04:00,
2013-05-24 05:05:00,37.4,27.1,29.44,NNW,338,0.0,0.0,66,0.00,,BKN060TCU,0.00,VWS V14.01,2013-05-24 10:05:00,
2013-05-24 05:06:00,37.4,27.1,29.44,NNW,338,0.0,0.0,66,0.00,,BKN060TCU,0.00,VWS V14.01,2013-05-24 10:06:00,
2013-05-24 05:07:00,37.4,27.1,29.44,NNW,338,0.0,0.0,66,0.00,,BKN060TCU,0.00,VWS V14.01,2013-05-24 10:07:00,
2013-05-24 05:08:00,37.4,27.1,29.44,NNW,338,0.0,0.0,66,0.00,,BKN060TCU,0.00,VWS V14.01,2013-05-24 10:08:00,
2013-05-24 05:09:00,37.4,27.1,29.44,NNW,338,0.0,0.0,66,0.00,,BKN060TCU,0.00,VWS V14.01,2013-05-24 10:09:00,
2013-05-24 05:10:00,37.2,26.9,29.44,NNW,338,0.0,0.0,66,0.00,,BKN060TCU,0.00,VWS V14.01,2013-05-24 10:10:00,
2013-05-24 05:11:00,37.0,26.8,29.44,NNW,338,0.0,0.0,66,0.00,,BKN060TCU,0.00,VWS V14.01,2013-05-24 10:11:00,
2013-05-24 05:12:00,37.0,26.8,29.44,NNW,338,0.0,0.0,66,0.00,,BKN060TCU,0.00,VWS V14.01,2013-05-24 10:12:00,
2013-05-24 05:13:00,37.0,26.8,29.44,NNW,338,0.0,0.0,66,0.00,,BKN060TCU,0.00,VWS V14.01,2013-05-24 10:13:00,
2013-05-24 05:14:00,37.0,26.8,29.44,NNW,338,0.0,0.0,66,0.00,,BKN060TCU,0.00,VWS V14.01,2013-05-24 10:14:00,
2013-05-24 05:15:00,37.0,26.8,29.44,NNW,338,0.0,0.0,66,0.00,,BKN060TCU,0.00,VWS V14.01,2013-05-24 10:15:00,
2013-05-24 05:16:00,37.0,27.1,29.44,NNW,338,0.0,0.0,67,0.00,,BKN060TCU,0.00,VWS V14.01,2013-05-24 10:16:00,
2013-05-24 05:17:00,36.9,26.9,29.44,NNW,338,0.0,0.0,67,0.00,,BKN060TCU,0.00,VWS V14.01,2013-05-24 10:17:00,
2013-05-24 05:18:00,37.0,27.5,29.44,NNW,338,0.0,0.0,68,0.00,,BKN060TCU,0.00,VWS V14.01,2013-05-24 10:18:00,
2013-05-24 05:19:00,37.0,27.8,29.44,NNW,338,0.0,0.0,69,0.00,,BKN060TCU,0.00,VWS V14.01,2013-05-24 10:19:00,
2013-05-24 05:20:00,37.0,27.8,29.44,NNW,338,0.0,0.0,69,0.00,,BKN060TCU,0.00,VWS V14.01,2013-05-24 10:20:00,
2013-05-24 05:21:00,37.2,28.0,29.44,NNW,338,0.0,0.0,69,0.00,,BKN060TCU,0.00,VWS V14.01,2013-05-24 10:21:00,
2013-05-24 05:22:00,37.2,28.0,29.44,NNW,338,0.0,0.0,69,0.00,,BKN060TCU,0.00,VWS V14.01,2013-05-24 10:22:00,
2013-05-24 05:23:00,37.4,28.5,29.44,NNW,338,0.0,0.0,70,0.00,,BKN060TCU,0.00,VWS V14.01,2013-05-24 10:23:00,
2013-05-24 05:24:00,37.4,28.9,29.44,NNW,338,0.0,0.0,71,0.00,,BKN060TCU,0.00,VWS V14.01,2013-05-24 10:24:00,
2013-05-24 05:25:00,37.4,28.9,29.44,NNW,338,0.0,0.0,71,0.00,,BKN060TCU,0.00,VWS V14.01,2013-05-24 10:25:00,
2013-05-24 05:26:00,37.4,29.2,29.44,NNW,338,0.0,0.0,72,0.00,,BKN060TCU,0.00,VWS V14.01,2013-05-24 10:26:00,
2013-05-24 05:27:00,37.4,29.2,29.44,NNW,338,0.0,0.0,72,0.00,,BKN060TCU,0.00,VWS V14.01,2013-05-24 10:27:00,
2013-05-24 05:28:00,37.4,28.9,29.44,NNW,338,0.0,0.0,71,0.00,,BKN060TCU,0.00,VWS V14.01,2013-05-24 10:28:00,
2013-05-24 05:29:00,37.4,28.9,29.44,NNW,338,0.0,0.0,71,0.00,,BKN060TCU,0.00,VWS V14.01,2013-05-24 10:29:00,
2013-05-24 05:30:00,37.4,28.5,29.44,NNW,338,0.0,0.0,70,0.00,,BKN060TCU,0.00,VWS V14.01,2013-05-24 10:30:00,
2013-05-24 05:31:00,37.4,28.2,29.44,NNW,338,0.0,0.0,69,0.00,,BKN060TCU,0.00,VWS V14.01,2013-05-24 10:31:00,
2013-05-24 05:32:00,37.2,28.0,29.44,NNW,338,0.0,0.0,69,0.00,,BKN060TCU,0.00,VWS V14.01,2013-05-24 10:32:00,
2013-05-24 05:33:00,37.2,28.0,29.44,NNW,338,0.0,0.0,69,0.00,,BKN060TCU,0.00,VWS V14.01,2013-05-24 10:33:00,
2013-05-24 05:34:00,37.0,27.8,29.44,NNW,338,0.0,0.0,69,0.00,,BKN060TCU,0.00,VWS V14.01,2013-05-24 10:34:00,
2013-05-24 05:35:00,37.0,27.8,29.47,NNW,338,0.0,0.0,69,0.00,,BKN060TCU,0.00,VWS V14.01,2013-05-24 10:35:00,
2013-05-24 05:36:00,36.9,27.7,29.47,NNW,338,0.0,0.0,69,0.00,,BKN060TCU,0.00,VWS V14.01,2013-05-24 10:36:00,
2013-05-24 05:37:00,36.9,27.7,29.47,NNW,338,0.0,0.0,69,0.00,,BKN060TCU,0.00,VWS V14.01,2013-05-24 10:37:00,
2013-05-24 05:38:00,36.9,27.7,29.47,NNW,338,0.0,0.0,69,0.00,,BKN060TCU,0.00,VWS V14.01,2013-05-24 10:38:00,
2013-05-24 05:39:00,36.9,28.0,29.47,NNW,338,0.0,0.0,70,0.00,,BKN060TCU,0.00,VWS V14.01,2013-05-24 10:39:00,
2013-05-24 05:40:00,36.9,28.0,29.47,NNW,338,0.0,0.0,70,0.00,,BKN060TCU,0.00,VWS V14.01,2013-05-24 10:40:00,
2013-05-24 05:41:00,36.9,28.0,29.47,NNW,338,0.0,0.0,70,0.00,,BKN060TCU,0.00,VWS V14.01,2013-05-24 10:41:00,
2013-05-24 05:42:00,36.9,28.0,29.47,NNW,338,0.0,0.0,70,0.00,,BKN060TCU,0.00,VWS V14.01,2013-05-24 10:42:00,
2013-05-24 05:43:00,36.9,28.0,29.47,NNW,338,0.0,0.0,70,0.00,,BKN060TCU,0.00,VWS V14.01,2013-05-24 10:43:00,
2013-05-24 05:44:00,36.9,28.0,29.47,NNW,338,0.0,0.0,70,0.00,,BKN060TCU,0.00,VWS V14.01,2013-05-24 10:44:00,
2013-05-24 05:45:00,36.9,28.0,29.47,NNW,338,0.0,0.0,70,0.00,,BKN060TCU,0.00,VWS V14.01,2013-05-24 10:45:00,
2013-05-24 05:46:00,36.9,28.0,29.47,NNW,338,0.0,0.0,70,0.00,,BKN060TCU,0.00,VWS V14.01,2013-05-24 10:46:00,
2013-05-24 05:47:00,36.9,28.0,29.47,NNW,338,0.0,0.0,70,0.00,,BKN060TCU,0.00,VWS V14.01,2013-05-24 10:47:00,
2013-05-24 05:48:00,36.9,28.4,29.47,NNW,338,0.0,0.0,71,0.00,,BKN060TCU,0.00,VWS V14.01,2013-05-24 10:48:00,
2013-05-24 05:49:00,36.9,28.4,29.47,NNW,338,0.0,0.0,71,0.00,,BKN060TCU,0.00,VWS V14.01,2013-05-24 10:49:00,
2013-05-24 05:50:00,36.9,28.4,29.47,NNW,338,0.0,0.0,71,0.00,,BKN060TCU,0.00,VWS V14.01,2013-05-24 10:50:00,
2013-05-24 05:51:00,36.9,28.4,29.47,NNW,338,0.0,0.0,71,0.00,,BKN060TCU,0.00,VWS V14.01,2013-05-24 10:51:00,
2013-05-24 05:52:00,36.9,28.4,29.47,NNW,338,0.0,0.0,71,0.00,,BKN060TCU,0.00,VWS V14.01,2013-05-24 10:52:00,
2013-05-24 05:53:00,36.9,28.4,29.47,NNW,338,0.0,0.0,71,0.00,,BKN060TCU,0.00,VWS V14.01,2013-05-24 10:53:00,
2013-05-24 05:54:00,36.7,28.2,29.47,NNW,338,0.0,0.0,71,0.00,,BKN060TCU,0.00,VWS V14.01,2013-05-24 10:54:00,
2013-05-24 05:55:00,36.7,27.8,29.47,NNW,338,0.0,0.0,70,0.00,,BKN060TCU,0.00,VWS V14.01,2013-05-24 10:55:00,
2013-05-24 05:56:00,36.7,27.8,29.47,NNW,338,0.0,0.0,70,0.00,,BKN060TCU,0.00,VWS V14.01,2013-05-24 10:56:00,
2013-05-24 05:57:00,36.5,27.7,29.47,NNW,338,0.0,0.0,70,0.00,,BKN060TCU,0.00,VWS V14.01,2013-05-24 10:57:00,
2013-05-24 05:58:00,36.5,27.7,29.47,NNW,338,0.0,0.0,70,0.00,,BKN060TCU,0.00,VWS V14.01,2013-05-24 10:58:00,
2013-05-24 05:59:00,36.5,27.7,29.47,NNW,338,0.0,0.0,70,0.00,,BKN060TCU,0.00,VWS V14.01,2013-05-24 10:59:00,
2013-05-24 06:00:00,36.5,28.0,29.47,NNW,338,0.0,0.0,71,0.00,,BKN060TCU,0.00,VWS V14.01,2013-05-24 11:00:00,
2013-05-24 06:01:00,36.5,28.0,29.47,NNW,338,0.0,0.0,71,0.00,,BKN060TCU,0.00,VWS V14.01,2013-05-24 11:01:00,
2013-05-24 06:02:00,36.5,27.7,29.47,NNW,338,0.0,0.0,70,0.00,,BKN060TCU,0.00,VWS V14.01,2013-05-24 11:02:00,
2013-05-24 06:03:00,36.5,27.7,29.47,NNW,338,0.0,0.0,70,0.00,,BKN060TCU,0.00,VWS V14.01,2013-05-24 11:03:00,
2013-05-24 06:04:00,36.5,27.7,29.47,NNW,338,0.0,0.0,70,0.00,,BKN060TCU,0.00,VWS V14.01,2013-05-24 11:04:00,
2013-05-24 06:05:00,36.5,27.7,29.47,NNW,338,0.0,0.0,70,0.00,,BKN060TCU,0.00,VWS V14.01,2013-05-24 11:05:00,
2013-05-24 06:06:00,36.5,28.0,29.47,NNW,338,0.0,0.0,71,0.00,,BKN060TCU,0.00,VWS V14.01,2013-05-24 11:06:00,
2013-05-24 06:07:00,36.5,28.0,29.47,NNW,338,0.0,0.0,71,0.00,,BKN060TCU,0.00,VWS V14.01,2013-05-24 11:07:00,
2013-05-24 06:08:00,36.7,28.2,29.47,NNW,338,0.0,0.0,71,0.00,,BKN060TCU,0.00,VWS V14.01,2013-05-24 11:08:00,
2013-05-24 06:09:00,36.7,28.2,29.47,NNW,338,0.0,0.0,71,0.00,,BKN060TCU,0.00,VWS V14.01,2013-05-24 11:09:00,
2013-05-24 06:10:00,36.7,28.2,29.47,NNW,338,0.0,0.0,71,0.00,,BKN060TCU,0.00,VWS V14.01,2013-05-24 11:10:00,
2013-05-24 06:11:00,36.7,28.5,29.47,NNW,338,0.0,0.0,72,0.00,,BKN060TCU,0.00,VWS V14.01,2013-05-24 11:11:00,
2013-05-24 06:12:00,36.9,28.7,29.47,NNW,338,0.0,0.0,72,0.00,,BKN060TCU,0.00,VWS V14.01,2013-05-24 11:12:00,
2013-05-24 06:13:00,36.9,29.0,29.47,NNW,338,0.0,0.0,73,0.00,,BKN060TCU,0.00,VWS V14.01,2013-05-24 11:13:00,
2013-05-24 06:14:00,36.9,29.0,29.47,NNW,338,0.0,0.0,73,0.00,,BKN060TCU,0.00,VWS V14.01,2013-05-24 11:14:00,
2013-05-24 06:15:00,36.9,29.0,29.47,NNW,338,0.0,0.0,73,0.00,,BKN060TCU,0.00,VWS V14.01,2013-05-24 11:15:00,
2013-05-24 06:16:00,36.9,28.7,29.47,NNW,338,0.0,0.0,72,0.00,,BKN060TCU,0.00,VWS V14.01,2013-05-24 11:16:00,
2013-05-24 06:17:00,36.9,28.7,29.47,NNW,338,0.0,0.0,72,0.00,,BKN060TCU,0.00,VWS V14.01,2013-05-24 11:17:00,
2013-05-24 06:18:00,36.9,28.7,29.47,NNW,338,0.0,0.0,72,0.00,,BKN060TCU,0.00,VWS V14.01,2013-05-24 11:18:00,
2013-05-24 06:19:00,36.9,28.7,29.47,NNW,338,0.0,0.0,72,0.00,,BKN060TCU,0.00,VWS V14.01,2013-05-24 11:19:00,
2013-05-24 06:20:00,36.9,28.7,29.47,NNW,338,0.0,0.0,72,0.00,,BKN060TCU,0.00,VWS V14.01,2013-05-24 11:20:00,
2013-05-24 06:21:00,36.9,28.7,29.47,NNW,338,0.0,0.0,72,0.00,,BKN060TCU,0.00,VWS V14.01,2013-05-24 11:21:00,
2013-05-24 06:22:00,36.9,28.7,29.47,NNW,338,0.0,0.0,72,0.00,,BKN060TCU,0.00,VWS V14.01,2013-05-24 11:22:00,
2013-05-24 06:23:00,36.9,28.7,29.47,NNW,338,0.0,0.0,72,0.00,,BKN060TCU,0.00,VWS V14.01,2013-05-24 11:23:00,
2013-05-24 06:24:00,36.9,28.7,29.47,NNW,338,0.0,0.0,72,0.00,,BKN060TCU,0.00,VWS V14.01,2013-05-24 11:24:00,
2013-05-24 06:26:00,36.9,28.7,29.47,NNW,338,0.0,0.0,72,0.00,,BKN060TCU,0.00,VWS V14.01,2013-05-24 11:26:00,
2013-05-24 06:27:00,37.0,28.9,29.47,NNW,338,0.0,0.0,72,0.00,,BKN060TCU,0.00,VWS V14.01,2013-05-24 11:27:00,
2013-05-24 06:28:00,37.0,29.2,29.47,NNW,338,0.0,0.0,73,0.00,,BKN060TCU,0.00,VWS V14.01,2013-05-24 11:28:00,
2013-05-24 06:29:00,37.0,29.2,29.47,NNW,338,0.0,0.0,73,0.00,,BKN060TCU,0.00,VWS V14.01,2013-05-24 11:29:00,
2013-05-24 06:30:00,37.2,29.4,29.47,NNW,338,0.0,0.0,73,0.00,,BKN060TCU,0.00,VWS V14.01,2013-05-24 11:30:00,
2013-05-24 06:31:00,37.4,29.5,29.47,NNW,338,0.0,0.0,73,0.00,,BKN060TCU,0.00,VWS V14.01,2013-05-24 11:31:00,
2013-05-24 06:32:00,37.4,29.5,29.47,NNW,338,0.0,0.0,73,0.00,,BKN060TCU,0.00,VWS V14.01,2013-05-24 11:32:00,
2013-05-24 06:33:00,37.4,29.2,29.47,NNW,338,0.0,0.0,72,0.00,,BKN060TCU,0.00,VWS V14.01,2013-05-24 11:33:00,
2013-05-24 06:34:00,37.6,29.4,29.47,NNW,338,0.0,0.0,72,0.00,,BKN060TCU,0.00,VWS V14.01,2013-05-24 11:34:00,
2013-05-24 06:35:00,37.6,29.4,29.47,NNW,338,0.0,0.0,72,0.00,,BKN060TCU,0.00,VWS V14.01,2013-05-24 11:35:00,
2013-05-24 06:36:00,37.6,29.7,29.47,NNW,338,0.0,0.0,73,0.00,,BKN060TCU,0.00,VWS V14.01,2013-05-24 11:36:00,
2013-05-24 06:37:00,37.6,29.7,29.47,NNW,338,0.0,0.0,73,0.00,,BKN060TCU,0.00,VWS V14.01,2013-05-24 11:37:00,
2013-05-24 06:38:00,37.8,29.9,29.47,NNW,338,0.0,0.0,73,0.00,,BKN060TCU,0.00,VWS V14.01,2013-05-24 11:38:00,
2013-05-24 06:39:00,37.9,30.1,29.47,NNW,338,0.0,0.0,73,0.00,,BKN060TCU,0.00,VWS V14.01,2013-05-24 11:39:00,
2013-05-24 06:40:00,37.9,30.1,29.47,NNW,338,0.0,0.0,73,0.00,,BKN060TCU,0.00,VWS V14.01,2013-05-24 11:40:00,
2013-05-24 06:41:00,38.1,30.2,29.47,NNW,338,0.0,0.0,73,0.00,,BKN060TCU,0.00,VWS V14.01,2013-05-24 11:41:00,
2013-05-24 06:42:00,38.1,30.2,29.47,NNW,338,0.0,0.0,73,0.00,,BKN060TCU,0.00,VWS V14.01,2013-05-24 11:42:00,
2013-05-24 06:43:00,38.3,30.4,29.47,NNW,338,0.0,0.0,73,0.00,,BKN060TCU,0.00,VWS V14.01,2013-05-24 11:43:00,
2013-05-24 06:44:00,38.5,30.6,29.47,NNW,338,0.0,0.0,73,0.00,,BKN060TCU,0.00,VWS V14.01,2013-05-24 11:44:00,
2013-05-24 06:45:00,38.5,30.6,29.47,NNW,338,0.0,0.0,73,0.00,,BKN060TCU,0.00,VWS V14.01,2013-05-24 11:45:00,
2013-05-24 06:46:00,38.7,30.8,29.47,NNW,338,0.0,0.0,73,0.00,,BKN060TCU,0.00,VWS V14.01,2013-05-24 11:46:00,
2013-05-24 06:47:00,38.7,30.8,29.47,NNW,338,0.0,0.0,73,0.00,,BKN060TCU,0.00,VWS V14.01,2013-05-24 11:47:00,
2013-05-24 06:48:00,38.7,30.8,29.47,NNW,338,0.0,0.0,73,0.00,,BKN060TCU,0.00,VWS V14.01,2013-05-24 11:48:00,
2013-05-24 06:49:00,38.7,30.8,29.47,NNW,338,0.0,0.0,73,0.00,,BKN060TCU,0.00,VWS V14.01,2013-05-24 11:49:00,
2013-05-24 06:50:00,38.8,30.9,29.47,NNW,338,0.0,0.0,73,0.00,,BKN060TCU,0.00,VWS V14.01,2013-05-24 11:50:00,
2013-05-24 06:51:00,39.0,31.5,29.47,NNW,338,0.0,0.0,74,0.00,,BKN060TCU,0.00,VWS V14.01,2013-05-24 11:51:00,
2013-05-24 06:52:00,39.0,31.5,29.47,NNW,338,0.0,0.0,74,0.00,,BKN060TCU,0.00,VWS V14.01,2013-05-24 11:52:00,
2013-05-24 06:53:00,39.2,31.6,29.47,NNW,338,0.0,0.0,74,0.00,,BKN060TCU,0.00,VWS V14.01,2013-05-24 11:53:00,
2013-05-24 06:54:00,39.4,31.8,29.47,NNW,338,0.0,0.0,74,0.00,,BKN060TCU,0.00,VWS V14.01,2013-05-24 11:54:00,
2013-05-24 06:55:00,39.4,31.5,29.47,NNW,338,0.0,0.0,73,0.00,,BKN060TCU,0.00,VWS V14.01,2013-05-24 11:55:00,
2013-05-24 06:56:00,39.6,31.6,29.47,NNW,338,0.0,0.0,73,0.00,,BKN060TCU,0.00,VWS V14.01,2013-05-24 11:56:00,
2013-05-24 06:57:00,39.6,31.6,29.47,NNW,338,0.0,0.0,73,0.00,,BKN060TCU,0.00,VWS V14.01,2013-05-24 11:57:00,
2013-05-24 06:58:00,39.7,31.8,29.47,NNW,338,0.0,0.0,73,0.00,,BKN060TCU,0.00,VWS V14.01,2013-05-24 11:58:00,
2013-05-24 06:59:00,39.7,31.8,29.47,NNW,338,0.0,0.0,73,0.00,,BKN060TCU,0.00,VWS V14.01,2013-05-24 11:59:00,
2013-05-24 07:00:00,39.9,32.0,29.47,NNW,338,0.0,0.0,73,0.00,,BKN060TCU,0.00,VWS V14.01,2013-05-24 12:00:00,
2013-05-24 07:01:00,40.3,32.3,29.47,NNW,338,0.0,0.0,73,0.00,,BKN060TCU,0.00,VWS V14.01,2013-05-24 12:01:00,
2013-05-24 07:02:00,40.3,32.3,29.47,NNW,338,0.0,0.0,73,0.00,,BKN060TCU,0.00,VWS V14.01,2013-05-24 12:02:00,
2013-05-24 07:03:00,40.5,32.5,29.47,NNW,338,0.0,0.0,73,0.00,,BKN060TCU,0.00,VWS V14.01,2013-05-24 12:03:00,
2013-05-24 07:04:00,40.6,32.7,29.47,NNW,338,0.0,0.0,73,0.00,,BKN060TCU,0.00,VWS V14.01,2013-05-24 12:04:00,
2013-05-24 07:05:00,40.6,32.7,29.47,NNW,338,0.0,0.0,73,0.00,,BKN060TCU,0.00,VWS V14.01,2013-05-24 12:05:00,
2013-05-24 07:06:00,41.0,32.7,29.47,NNW,338,0.0,0.0,72,0.00,,BKN060TCU,0.00,VWS V14.01,2013-05-24 12:06:00,
2013-05-24 07:07:00,41.0,32.7,29.47,NNW,338,0.0,0.0,72,0.00,,BKN060TCU,0.00,VWS V14.01,2013-05-24 12:07:00,
2013-05-24 07:08:00,41.0,32.7,29.47,NNW,338,0.0,0.0,72,0.00,,BKN060TCU,0.00,VWS V14.01,2013-05-24 12:08:00,
2013-05-24 07:09:00,41.2,32.8,29.47,NNW,338,0.0,0.0,72,0.00,,BKN060TCU,0.00,VWS V14.01,2013-05-24 12:09:00,
2013-05-24 07:10:00,41.2,32.8,29.47,NNW,338,0.0,0.0,72,0.00,,BKN060TCU,0.00,VWS V14.01,2013-05-24 12:10:00,
2013-05-24 07:11:00,41.5,33.2,29.47,NNW,338,0.0,0.0,72,0.00,,BKN060TCU,0.00,VWS V14.01,2013-05-24 12:11:00,
2013-05-24 07:12:00,41.5,33.2,29.47,NNW,338,0.0,0.0,72,0.00,,BKN060TCU,0.00,VWS V14.01,2013-05-24 12:12:00,
2013-05-24 07:13:00,41.7,33.4,29.47,NNW,338,0.0,0.0,72,0.00,,BKN060TCU,0.00,VWS V14.01,2013-05-24 12:13:00,
2013-05-24 07:14:00,41.7,33.4,29.47,NNW,338,0.0,0.0,72,0.00,,BKN060TCU,0.00,VWS V14.01,2013-05-24 12:14:00,
2013-05-24 07:15:00,41.9,33.5,29.47,NNW,338,0.0,0.0,72,0.00,,BKN060TCU,0.00,VWS V14.01,2013-05-24 12:15:00,
2013-05-24 07:16:00,42.1,33.7,29.47,NNW,338,0.0,0.0,72,0.00,,BKN060TCU,0.00,VWS V14.01,2013-05-24 12:16:00,
2013-05-24 07:17:00,42.1,33.7,29.47,NNW,338,0.0,0.0,72,0.00,,BKN060TCU,0.00,VWS V14.01,2013-05-24 12:17:00,
2013-05-24 07:18:00,42.1,33.7,29.47,NNW,338,0.0,0.0,72,0.00,,BKN060TCU,0.00,VWS V14.01,2013-05-24 12:18:00,
2013-05-24 07:19:00,42.4,34.1,29.47,NNW,338,0.0,0.0,72,0.00,,BKN060TCU,0.00,VWS V14.01,2013-05-24 12:19:00,
2013-05-24 07:20:00,42.4,33.7,29.47,NNW,338,0.0,0.0,71,0.00,,BKN060TCU,0.00,VWS V14.01,2013-05-24 12:20:00,
2013-05-24 07:21:00,43.0,34.2,29.47,NNW,338,0.0,0.0,71,0.00,,BKN060TCU,0.00,VWS V14.01,2013-05-24 12:21:00,
2013-05-24 07:22:00,43.0,34.2,29.47,NNW,338,0.0,0.0,71,0.00,,BKN060TCU,0.00,VWS V14.01,2013-05-24 12:22:00,
2013-05-24 07:23:00,43.0,34.2,29.47,NNW,338,0.0,0.0,71,0.00,,BKN060TCU,0.00,VWS V14.01,2013-05-24 12:23:00,
2013-05-24 07:24:00,43.2,34.0,29.47,NNW,338,0.0,0.0,70,0.00,,BKN060TCU,0.00,VWS V14.01,2013-05-24 12:24:00,
2013-05-24 07:25:00,43.3,34.2,29.47,NNW,338,0.0,0.0,70,0.00,,BKN060TCU,0.00,VWS V14.01,2013-05-24 12:25:00,
2013-05-24 07:26:00,43.7,34.6,29.47,NNW,338,0.0,0.0,70,0.00,,BKN060TCU,0.00,VWS V14.01,2013-05-24 12:26:00,
2013-05-24 07:27:00,44.1,34.6,29.47,NNW,338,0.0,0.0,69,0.00,,BKN060TCU,0.00,VWS V14.01,2013-05-24 12:27:00,
2013-05-24 07:28:00,44.1,34.6,29.47,NNW,338,0.0,0.0,69,0.00,,BKN060TCU,0.00,VWS V14.01,2013-05-24 12:28:00,
2013-05-24 07:29:00,44.4,34.2,29.47,NNW,338,0.0,0.0,67,0.00,,BKN060TCU,0.00,VWS V14.01,2013-05-24 12:29:00,
2013-05-24 07:30:00,44.6,34.0,29.47,NNW,338,0.0,0.0,66,0.00,,BKN060TCU,0.00,VWS V14.01,2013-05-24 12:30:00,
2013-05-24 07:31:00,44.8,34.5,29.47,NNW,338,0.0,0.0,67,0.00,,BKN060TCU,0.00,VWS V14.01,2013-05-24 12:31:00,
2013-05-24 07:32:00,44.8,34.5,29.47,NNW,338,0.0,0.0,67,0.00,,BKN060TCU,0.00,VWS V14.01,2013-05-24 12:32:00,
2013-05-24 07:33:00,44.8,34.5,29.47,NNW,338,0.0,0.0,67,0.00,,BKN060TCU,0.00,VWS V14.01,2013-05-24 12:33:00,
2013-05-24 07:34:00,44.8,34.5,29.47,NNW,338,0.0,0.0,67,0.00,,BKN060TCU,0.00,VWS V14.01,2013-05-24 12:34:00,
2013-05-24 07:35:00,44.8,34.5,29.47,NNW,338,0.0,0.0,67,0.00,,BKN060TCU,0.00,VWS V14.01,2013-05-24 12:35:00,
2013-05-24 07:36:00,45.7,34.6,29.47,NNW,338,0.0,0.0,65,0.00,,BKN060TCU,0.00,VWS V14.01,2013-05-24 12:36:00,
2013-05-24 07:37:00,45.7,34.6,29.47,NNW,338,0.0,0.0,65,0.00,,BKN060TCU,0.00,VWS V14.01,2013-05-24 12:37:00,
2013-05-24 07:38:00,45.7,34.6,29.47,NNW,338,0.0,0.0,65,0.00,,BKN060TCU,0.00,VWS V14.01,2013-05-24 12:38:00,
2013-05-24 07:39:00,45.7,34.6,29.47,NNW,338,0.0,0.0,65,0.00,,BKN060TCU,0.00,VWS V14.01,2013-05-24 12:39:00,
2013-05-24 07:40:00,46.4,33.7,29.47,NNW,338,0.0,0.0,61,0.00,,BKN060TCU,0.00,VWS V14.01,2013-05-24 12:40:00,
2013-05-24 07:41:00,46.6,33.5,29.47,NNW,338,0.0,0.0,60,0.00,,BKN060TCU,0.00,VWS V14.01,2013-05-24 12:41:00,
2013-05-24 07:42:00,46.6,33.5,29.47,NNW,338,0.0,0.0,60,0.00,,BKN060TCU,0.00,VWS V14.01,2013-05-24 12:42:00,
2013-05-24 07:43:00,46.8,33.6,29.47,NNW,338,0.0,0.0,60,0.00,,BKN060TCU,0.00,VWS V14.01,2013-05-24 12:43:00,
2013-05-24 07:44:00,46.9,34.2,29.47,NNW,338,0.0,0.0,61,0.00,,BKN060TCU,0.00,VWS V14.01,2013-05-24 12:44:00,
2013-05-24 07:45:00,46.9,34.2,29.47,NNW,338,0.0,0.0,61,0.00,,BKN060TCU,0.00,VWS V14.01,2013-05-24 12:45:00,
2013-05-24 07:46:00,47.1,34.4,29.47,NNW,338,0.0,0.0,61,0.00,,BKN060TCU,0.00,VWS V14.01,2013-05-24 12:46:00,
2013-05-24 07:47:00,47.1,34.4,29.47,NNW,338,0.0,0.0,61,0.00,,BKN060TCU,0.00,VWS V14.01,2013-05-24 12:47:00,
2013-05-24 07:48:00,47.3,34.1,29.47,NNW,338,0.0,0.0,60,0.00,,BKN060TCU,0.00,VWS V14.01,2013-05-24 12:48:00,
2013-05-24 07:49:00,47.7,34.0,29.47,NNW,338,0.0,0.0,59,0.00,,BKN060TCU,0.00,VWS V14.01,2013-05-24 12:49:00,
2013-05-24 07:50:00,47.7,34.0,29.47,NNW,338,0.0,0.0,59,0.00,,BKN060TCU,0.00,VWS V14.01,2013-05-24 12:50:00,
2013-05-24 07:51:00,47.7,34.0,29.47,NNW,338,0.0,0.0,59,0.00,,BKN060TCU,0.00,VWS V14.01,2013-05-24 12:51:00,
2013-05-24 07:52:00,47.7,34.0,29.47,NNW,338,0.0,0.0,59,0.00,,BKN060TCU,0.00,VWS V14.01,2013-05-24 12:52:00,
2013-05-24 07:53:00,47.7,34.0,29.47,NNW,338,0.0,0.0,59,0.00,,BKN060TCU,0.00,VWS V14.01,2013-05-24 12:53:00,
2013-05-24 07:54:00,47.7,34.0,29.47,NNW,338,0.0,0.0,59,0.00,,BKN060TCU,0.00,VWS V14.01,2013-05-24 12:54:00,
2013-05-24 07:55:00,47.7,34.0,29.47,NNW,338,0.0,0.0,59,0.00,,BKN060TCU,0.00,VWS V14.01,2013-05-24 12:55:00,
2013-05-24 07:56:00,47.7,34.0,29.47,NNW,338,0.0,0.0,59,0.00,,BKN060TCU,0.00,VWS V14.01,2013-05-24 12:56:00,
2013-05-24 07:57:00,47.7,34.0,29.47,NNW,338,0.0,0.0,59,0.00,,BKN060TCU,0.00,VWS V14.01,2013-05-24 12:57:00,
2013-05-24 07:58:00,48.6,33.6,29.47,NNW,338,0.0,0.0,56,0.00,,BKN060TCU,0.00,VWS V14.01,2013-05-24 12:58:00,
2013-05-24 07:59:00,48.6,33.6,29.47,NNW,338,0.0,0.0,56,0.00,,BKN060TCU,0.00,VWS V14.01,2013-05-24 12:59:00,
2013-05-24 08:00:00,48.6,33.1,29.47,NNW,338,0.0,0.0,55,0.00,,BKN060TCU,0.00,VWS V14.01,2013-05-24 13:00:00,
2013-05-24 08:01:00,48.7,33.3,29.47,NNW,338,0.0,0.0,55,0.00,,BKN060TCU,0.00,VWS V14.01,2013-05-24 13:01:00,
2013-05-24 08:02:00,48.7,33.3,29.47,NNW,338,0.0,0.0,55,0.00,,BKN060TCU,0.00,VWS V14.01,2013-05-24 13:02:00,
2013-05-24 08:03:00,48.7,33.3,29.47,NNW,338,0.0,0.0,55,0.00,,BKN060TCU,0.00,VWS V14.01,2013-05-24 13:03:00,
2013-05-24 08:04:00,48.7,33.3,29.47,NNW,338,0.0,0.0,55,0.00,,BKN060TCU,0.00,VWS V14.01,2013-05-24 13:04:00,
2013-05-24 08:05:00,48.7,33.3,29.47,NNW,338,0.0,0.0,55,0.00,,BKN060TCU,0.00,VWS V14.01,2013-05-24 13:05:00,
2013-05-24 08:06:00,48.9,33.5,29.47,NNW,338,0.0,0.0,55,0.00,,BKN060TCU,0.00,VWS V14.01,2013-05-24 13:06:00,
2013-05-24 08:07:00,48.9,33.5,29.47,NNW,338,0.0,0.0,55,0.00,,BKN060TCU,0.00,VWS V14.01,2013-05-24 13:07:00,
2013-05-24 08:08:00,48.9,33.5,29.47,NNW,338,0.0,0.0,55,0.00,,BKN060TCU,0.00,VWS V14.01,2013-05-24 13:08:00,
2013-05-24 08:09:00,48.9,33.5,29.47,NNW,338,0.0,0.0,55,0.00,,BKN060TCU,0.00,VWS V14.01,2013-05-24 13:09:00,
2013-05-24 08:10:00,48.9,33.5,29.47,NNW,338,0.0,0.0,55,0.00,,BKN060TCU,0.00,VWS V14.01,2013-05-24 13:10:00,
2013-05-24 08:11:00,48.9,33.5,29.47,NNW,338,0.0,0.0,55,0.00,,BKN060TCU,0.00,VWS V14.01,2013-05-24 13:11:00,
2013-05-24 08:12:00,48.9,33.5,29.47,NNW,338,0.0,0.0,55,0.00,,BKN060TCU,0.00,VWS V14.01,2013-05-24 13:12:00,
2013-05-24 08:13:00,48.9,33.5,29.47,NNW,338,0.0,0.0,55,0.00,,BKN060TCU,0.00,VWS V14.01,2013-05-24 13:13:00,
2013-05-24 08:14:00,49.5,34.0,29.47,NNW,338,0.0,0.0,55,0.00,,BKN060TCU,0.00,VWS V14.01,2013-05-24 13:14:00,
2013-05-24 08:15:00,49.6,34.2,29.47,NNW,338,0.0,0.0,55,0.00,,BKN060TCU,0.00,VWS V14.01,2013-05-24 13:15:00,
2013-05-24 08:16:00,49.6,34.2,29.47,NNW,338,0.0,0.0,55,0.00,,BKN060TCU,0.00,VWS V14.01,2013-05-24 13:16:00,
2013-05-24 08:17:00,49.6,34.2,29.47,NNW,338,0.0,0.0,55,0.00,,BKN060TCU,0.00,VWS V14.01,2013-05-24 13:17:00,
2013-05-24 08:18:00,49.6,34.2,29.47,NNW,338,0.0,0.0,55,0.00,,BKN060TCU,0.00,VWS V14.01,2013-05-24 13:18:00,
2013-05-24 08:19:00,49.8,34.3,29.47,NNW,338,0.0,0.0,55,0.00,,BKN060TCU,0.00,VWS V14.01,2013-05-24 13:19:00,
2013-05-24 08:20:00,49.8,33.9,29.47,NNW,338,0.0,0.0,54,0.00,,BKN060TCU,0.00,VWS V14.01,2013-05-24 13:20:00,
2013-05-24 08:21:00,49.8,33.9,29.47,NNW,338,0.0,0.0,54,0.00,,BKN060TCU,0.00,VWS V14.01,2013-05-24 13:21:00,
2013-05-24 08:22:00,49.8,33.9,29.47,NNW,338,0.0,0.0,54,0.00,,BKN060TCU,0.00,VWS V14.01,2013-05-24 13:22:00,
2013-05-24 08:23:00,49.8,33.9,29.47,NNW,338,0.0,0.0,54,0.00,,BKN060TCU,0.00,VWS V14.01,2013-05-24 13:23:00,
2013-05-24 08:24:00,49.8,33.9,29.47,NNW,338,0.0,0.0,54,0.00,,BKN060TCU,0.00,VWS V14.01,2013-05-24 13:24:00,
2013-05-24 08:25:00,49.8,33.9,29.47,NNW,338,0.0,0.0,54,0.00,,BKN060TCU,0.00,VWS V14.01,2013-05-24 13:25:00,
2013-05-24 08:26:00,49.8,33.9,29.47,NNW,338,0.0,0.0,54,0.00,,BKN060TCU,0.00,VWS V14.01,2013-05-24 13:26:00,
2013-05-24 08:27:00,49.8,33.9,29.47,NNW,338,0.0,0.0,54,0.00,,BKN060TCU,0.00,VWS V14.01,2013-05-24 13:27:00,
2013-05-24 08:28:00,49.8,33.9,29.47,NNW,338,0.0,0.0,54,0.00,,BKN060TCU,0.00,VWS V14.01,2013-05-24 13:28:00,
2013-05-24 08:29:00,49.8,33.9,29.47,NNW,338,0.0,0.0,54,0.00,,BKN060TCU,0.00,VWS V14.01,2013-05-24 13:29:00,
2013-05-24 08:30:00,49.8,33.9,29.47,NNW,338,0.0,0.0,54,0.00,,BKN060TCU,0.00,VWS V14.01,2013-05-24 13:30:00,
2013-05-24 08:31:00,50.4,34.4,29.47,NNW,338,0.0,0.0,54,0.00,,BKN060TCU,0.00,VWS V14.01,2013-05-24 13:31:00,
2013-05-24 08:32:00,50.4,34.4,29.47,NNW,338,0.0,0.0,54,0.00,,BKN060TCU,0.00,VWS V14.01,2013-05-24 13:32:00,
2013-05-24 08:33:00,50.5,34.5,29.47,NNW,338,0.0,0.0,54,0.00,,BKN060TCU,0.00,VWS V14.01,2013-05-24 13:33:00,
2013-05-24 08:34:00,50.5,34.5,29.47,NNW,338,0.0,0.0,54,0.00,,BKN060TCU,0.00,VWS V14.01,2013-05-24 13:34:00,
2013-05-24 08:35:00,50.7,34.7,29.47,NNW,338,0.0,0.0,54,0.00,,BKN060TCU,0.00,VWS V14.01,2013-05-24 13:35:00,
2013-05-24 08:36:00,50.7,34.7,29.47,NNW,338,0.0,0.0,54,0.00,,BKN060TCU,0.00,VWS V14.01,2013-05-24 13:36:00,
2013-05-24 08:37:00,50.7,34.7,29.47,NNW,338,0.0,0.0,54,0.00,,BKN060TCU,0.00,VWS V14.01,2013-05-24 13:37:00,
2013-05-24 08:38:00,50.9,34.9,29.47,NNW,338,0.0,0.0,54,0.00,,BKN060TCU,0.00,VWS V14.01,2013-05-24 13:38:00,
2013-05-24 08:39:00,50.9,34.9,29.47,NNW,338,0.0,0.0,54,0.00,,BKN060TCU,0.00,VWS V14.01,2013-05-24 13:39:00,
2013-05-24 08:40:00,50.9,34.4,29.47,NNW,338,0.0,0.0,53,0.00,,BKN060TCU,0.00,VWS V14.01,2013-05-24 13:40:00,
2013-05-24 08:41:00,50.9,34.9,29.47,NNW,338,0.0,0.0,54,0.00,,BKN060TCU,0.00,VWS V14.01,2013-05-24 13:41:00,
2013-05-24 08:42:00,50.9,34.9,29.47,NNW,338,0.0,0.0,54,0.00,,BKN060TCU,0.00,VWS V14.01,2013-05-24 13:42:00,
2013-05-24 08:43:00,50.9,34.9,29.47,NNW,338,0.0,0.0,54,0.00,,BKN060TCU,0.00,VWS V14.01,2013-05-24 13:43:00,
2013-05-24 08:44:00,50.9,34.9,29.47,NNW,338,0.0,0.0,54,0.00,,BKN060TCU,0.00,VWS V14.01,2013-05-24 13:44:00,
2013-05-24 08:45:00,51.3,34.7,29.47,NNW,338,0.0,0.0,53,0.00,,BKN060TCU,0.00,VWS V14.01,2013-05-24 13:45:00,
2013-05-24 08:46:00,50.9,34.9,29.47,NNW,338,0.0,0.0,54,0.00,,BKN060TCU,0.00,VWS V14.01,2013-05-24 13:46:00,
2013-05-24 08:47:00,51.3,34.7,29.47,NNW,338,0.0,0.0,53,0.00,,BKN060TCU,0.00,VWS V14.01,2013-05-24 13:47:00,
2013-05-24 08:48:00,51.4,34.9,29.47,NNW,338,0.0,0.0,53,0.00,,BKN060TCU,0.00,VWS V14.01,2013-05-24 13:48:00,
2013-05-24 08:49:00,51.6,35.5,29.47,NNW,338,0.0,0.0,54,0.00,,BKN060TCU,0.00,VWS V14.01,2013-05-24 13:49:00,
2013-05-24 08:50:00,51.8,35.7,29.47,NNW,338,0.0,0.0,54,0.00,,BKN060TCU,0.00,VWS V14.01,2013-05-24 13:50:00,
2013-05-24 08:51:00,51.8,35.7,29.47,NNW,338,0.0,0.0,54,0.00,,BKN060TCU,0.00,VWS V14.01,2013-05-24 13:51:00,
2013-05-24 08:52:00,51.8,35.2,29.47,NNW,338,0.0,0.0,53,0.00,,BKN060TCU,0.00,VWS V14.01,2013-05-24 13:52:00,
2013-05-24 08:53:00,51.6,35.1,29.47,NNW,338,0.0,0.0,53,0.00,,BKN060TCU,0.00,VWS V14.01,2013-05-24 13:53:00,
2013-05-24 08:54:00,51.6,34.6,29.47,NNW,338,0.0,0.0,52,0.00,,BKN060TCU,0.00,VWS V14.01,2013-05-24 13:54:00,
2013-05-24 08:55:00,51.8,35.2,29.47,NNW,338,0.0,0.0,53,0.00,,BKN060TCU,0.00,VWS V14.01,2013-05-24 13:55:00,
2013-05-24 08:56:00,51.8,35.2,29.47,NNW,338,0.0,0.0,53,0.00,,BKN060TCU,0.00,VWS V14.01,2013-05-24 13:56:00,
2013-05-24 08:57:00,51.6,35.1,29.47,NNW,338,0.0,0.0,53,0.00,,BKN060TCU,0.00,VWS V14.01,2013-05-24 13:57:00,
2013-05-24 08:58:00,51.8,34.8,29.47,NNW,338,0.0,0.0,52,0.00,,BKN060TCU,0.00,VWS V14.01,2013-05-24 13:58:00,
2013-05-24 08:59:00,52.0,34.9,29.47,NNW,338,0.0,0.0,52,0.00,,BKN060TCU,0.00,VWS V14.01,2013-05-24 13:59:00,
2013-05-24 09:00:00,52.2,35.6,29.47,NNW,338,0.0,0.0,53,0.00,,BKN060TCU,0.00,VWS V14.01,2013-05-24 14:00:00,
2013-05-24 09:01:00,52.3,35.2,29.47,NNW,338,0.0,0.0,52,0.00,,BKN060TCU,0.00,VWS V14.01,2013-05-24 14:01:00,
2013-05-24 09:02:00,52.3,35.2,29.47,NNW,338,0.0,0.0,52,0.00,,BKN060TCU,0.00,VWS V14.01,2013-05-24 14:02:00,
2013-05-24 09:03:00,52.3,35.2,29.47,NNW,338,0.0,0.0,52,0.00,,BKN060TCU,0.00,VWS V14.01,2013-05-24 14:03:00,
2013-05-24 09:04:00,52.7,35.6,29.47,NNW,338,0.0,0.0,52,0.00,,BKN060TCU,0.00,VWS V14.01,2013-05-24 14:04:00,
2013-05-24 09:05:00,52.9,35.8,29.47,NNW,338,0.0,0.0,52,0.00,,BKN060TCU,0.00,VWS V14.01,2013-05-24 14:05:00,
2013-05-24 09:06:00,53.1,36.4,29.47,NNW,338,0.0,0.0,53,0.00,,BKN060TCU,0.00,VWS V14.01,2013-05-24 14:06:00,
2013-05-24 09:07:00,53.1,36.4,29.47,NNW,338,0.0,0.0,53,0.00,,BKN060TCU,0.00,VWS V14.01,2013-05-24 14:07:00,
2013-05-24 09:08:00,53.2,36.6,29.47,NNW,338,0.0,0.0,53,0.00,,BKN060TCU,0.00,VWS V14.01,2013-05-24 14:08:00,
2013-05-24 09:09:00,53.2,36.6,29.47,NNW,338,0.0,0.0,53,0.00,,BKN060TCU,0.00,VWS V14.01,2013-05-24 14:09:00,
2013-05-24 09:10:00,53.4,36.2,29.47,NNW,338,0.0,0.0,52,0.00,,BKN060TCU,0.00,VWS V14.01,2013-05-24 14:10:00,
2013-05-24 09:11:00,53.4,36.7,29.47,NNW,338,0.0,0.0,53,0.00,,BKN060TCU,0.00,VWS V14.01,2013-05-24 14:11:00,
2013-05-24 09:12:00,53.6,36.9,29.47,NNW,338,0.0,0.0,53,0.00,,BKN060TCU,0.00,VWS V14.01,2013-05-24 14:12:00,
2013-05-24 09:13:00,53.8,37.1,29.47,NNW,338,0.0,0.0,53,0.00,,BKN060TCU,0.00,VWS V14.01,2013-05-24 14:13:00,
2013-05-24 09:14:00,53.8,37.1,29.47,NNW,338,0.0,0.0,53,0.00,,BKN060TCU,0.00,VWS V14.01,2013-05-24 14:14:00,
2013-05-24 09:15:00,54.0,36.8,29.47,NNW,338,0.0,0.0,52,0.00,,BKN060TCU,0.00,VWS V14.01,2013-05-24 14:15:00,
2013-05-24 09:16:00,54.0,36.8,29.47,NNW,338,0.0,0.0,52,0.00,,BKN060TCU,0.00,VWS V14.01,2013-05-24 14:16:00,
2013-05-24 09:17:00,54.0,36.8,29.47,NNW,338,0.0,0.0,52,0.00,,BKN060TCU,0.00,VWS V14.01,2013-05-24 14:17:00,
2013-05-24 09:18:00,54.1,36.9,29.47,NNW,338,0.0,0.0,52,0.00,,BKN060TCU,0.00,VWS V14.01,2013-05-24 14:18:00,
2013-05-24 09:19:00,54.3,36.6,29.47,NNW,338,0.0,0.0,51,0.00,,BKN060TCU,0.00,VWS V14.01,2013-05-24 14:19:00,
2013-05-24 09:20:00,54.5,36.8,29.47,NNW,338,0.0,0.0,51,0.00,,BKN060TCU,0.00,VWS V14.01,2013-05-24 14:20:00,
2013-05-24 09:21:00,54.5,36.8,29.47,NNW,338,0.0,0.0,51,0.00,,BKN060TCU,0.00,VWS V14.01,2013-05-24 14:21:00,
2013-05-24 09:22:00,54.7,37.4,29.47,NNW,338,0.0,0.0,52,0.00,,BKN060TCU,0.00,VWS V14.01,2013-05-24 14:22:00,
2013-05-24 09:23:00,54.7,36.9,29.47,NNW,338,0.0,0.0,51,0.00,,BKN060TCU,0.00,VWS V14.01,2013-05-24 14:23:00,
2013-05-24 09:24:00,54.9,37.1,29.47,NNW,338,0.0,0.0,51,0.00,,BKN060TCU,0.00,VWS V14.01,2013-05-24 14:24:00,
2013-05-24 09:25:00,55.8,37.9,29.47,NNW,338,0.0,0.0,51,0.00,,BKN060TCU,0.00,VWS V14.01,2013-05-24 14:25:00,
2013-05-24 09:26:00,55.4,37.6,29.47,NNW,338,0.0,0.0,51,0.00,,BKN060TCU,0.00,VWS V14.01,2013-05-24 14:26:00,
2013-05-24 09:27:00,55.8,37.4,29.47,NNW,338,0.0,0.0,50,0.00,,BKN060TCU,0.00,VWS V14.01,2013-05-24 14:27:00,
2013-05-24 09:28:00,56.1,37.8,29.47,NNW,338,0.0,0.0,50,0.00,,BKN060TCU,0.00,VWS V14.01,2013-05-24 14:28:00,
2013-05-24 09:29:00,56.1,37.2,29.47,NNW,338,0.0,0.0,49,0.00,,BKN060TCU,0.00,VWS V14.01,2013-05-24 14:29:00,
2013-05-24 09:30:00,56.8,37.9,29.47,NNW,338,0.0,0.0,49,0.00,,BKN060TCU,0.00,VWS V14.01,2013-05-24 14:30:00,
2013-05-24 09:31:00,56.5,37.6,29.47,NNW,338,0.0,0.0,49,0.00,,BKN060TCU,0.00,VWS V14.01,2013-05-24 14:31:00,
2013-05-24 09:32:00,56.8,37.9,29.47,NNW,338,0.0,0.0,49,0.00,,BKN060TCU,0.00,VWS V14.01,2013-05-24 14:32:00,
2013-05-24 09:33:00,57.2,38.8,29.47,NNW,338,0.0,0.0,50,0.00,,BKN060TCU,0.00,VWS V14.01,2013-05-24 14:33:00,
2013-05-24 09:34:00,57.9,38.9,29.47,NNW,338,0.0,0.0,49,0.00,,BKN060TCU,0.00,VWS V14.01,2013-05-24 14:34:00,
2013-05-24 09:35:00,58.3,39.7,29.47,NNW,338,0.0,0.0,50,0.00,,BKN060TCU,0.00,VWS V14.01,2013-05-24 14:35:00,
2013-05-24 09:36:00,58.5,39.9,29.47,NNW,338,0.0,0.0,50,0.00,,BKN060TCU,0.00,VWS V14.01,2013-05-24 14:36:00,
2013-05-24 09:37:00,58.8,39.7,29.47,NNW,338,0.0,0.0,49,0.00,,BKN060TCU,0.00,VWS V14.01,2013-05-24 14:37:00,
2013-05-24 09:38:00,59.0,39.4,29.47,NNW,338,0.0,0.0,48,0.00,,BKN060TCU,0.00,VWS V14.01,2013-05-24 14:38:00,
2013-05-24 09:39:00,59.2,39.5,29.47,NNW,338,0.0,0.0,48,0.00,,BKN060TCU,0.00,VWS V14.01,2013-05-24 14:39:00,
2013-05-24 09:40:00,59.4,39.7,29.47,NNW,338,0.0,0.0,48,0.00,,BKN060TCU,0.00,VWS V14.01,2013-05-24 14:40:00,
2013-05-24 09:41:00,59.2,39.0,29.47,NNW,338,0.0,0.0,47,0.00,,BKN060TCU,0.00,VWS V14.01,2013-05-24 14:41:00,
2013-05-24 09:42:00,59.2,38.4,29.47,NNW,338,0.0,0.0,46,0.00,,BKN060TCU,0.00,VWS V14.01,2013-05-24 14:42:00,
2013-05-24 09:43:00,59.2,38.4,29.47,NNW,338,0.0,0.0,46,0.00,,BKN060TCU,0.00,VWS V14.01,2013-05-24 14:43:00,
2013-05-24 09:44:00,59.7,39.5,29.47,NNW,338,0.0,0.0,47,0.00,,BKN060TCU,0.00,VWS V14.01,2013-05-24 14:44:00,
2013-05-24 09:45:00,59.7,39.5,29.47,NNW,338,0.0,0.0,47,0.00,,BKN060TCU,0.00,VWS V14.01,2013-05-24 14:45:00,
2013-05-24 09:46:00,60.4,40.1,29.47,NNW,338,0.0,0.0,47,0.00,,BKN060TCU,0.00,VWS V14.01,2013-05-24 14:46:00,
2013-05-24 09:47:00,60.4,40.1,29.47,NNW,338,0.0,0.0,47,0.00,,BKN060TCU,0.00,VWS V14.01,2013-05-24 14:47:00,
2013-05-24 09:48:00,60.6,40.3,29.47,NNW,338,0.0,0.0,47,0.00,,BKN060TCU,0.00,VWS V14.01,2013-05-24 14:48:00,
2013-05-24 09:49:00,61.2,40.8,29.47,NNW,338,0.0,0.0,47,0.00,,BKN060TCU,0.00,VWS V14.01,2013-05-24 14:49:00,
2013-05-24 09:50:00,61.3,41.0,29.47,NNW,338,0.0,0.0,47,0.00,,BKN060TCU,0.00,VWS V14.01,2013-05-24 14:50:00,
2013-05-24 09:51:00,61.7,41.3,29.47,NNW,338,0.0,0.0,47,0.00,,BKN060TCU,0.00,VWS V14.01,2013-05-24 14:51:00,
2013-05-24 09:52:00,61.9,41.5,29.47,NNW,338,0.0,0.0,47,0.00,,BKN060TCU,0.00,VWS V14.01,2013-05-24 14:52:00,
2013-05-24 09:53:00,61.9,40.9,29.47,NNW,338,0.0,0.0,46,0.00,,BKN060TCU,0.00,VWS V14.01,2013-05-24 14:53:00,
2013-05-24 09:54:00,61.3,39.8,29.47,NNW,338,0.0,0.0,45,0.00,,BKN060TCU,0.00,VWS V14.01,2013-05-24 14:54:00,
2013-05-24 09:55:00,61.7,40.2,29.47,NNW,338,0.0,0.0,45,0.00,,BKN060TCU,0.00,VWS V14.01,2013-05-24 14:55:00,
2013-05-24 09:56:00,62.1,40.5,29.47,NNW,338,0.0,0.0,45,0.00,,BKN060TCU,0.00,VWS V14.01,2013-05-24 14:56:00,
2013-05-24 09:57:00,62.1,40.5,29.47,NNW,338,0.0,0.0,45,0.00,,BKN060TCU,0.00,VWS V14.01,2013-05-24 14:57:00,
2013-05-24 09:58:00,62.4,40.8,29.47,NNW,338,0.0,0.0,45,0.00,,BKN060TCU,0.00,VWS V14.01,2013-05-24 14:58:00,
2013-05-24 09:59:00,63.0,41.3,29.47,NNW,338,0.0,0.0,45,0.00,,BKN060TCU,0.00,VWS V14.01,2013-05-24 14:59:00,
2013-05-24 10:00:00,63.0,41.3,29.47,NNW,338,0.0,0.0,45,0.00,,BKN060TCU,0.00,VWS V14.01,2013-05-24 15:00:00,
2013-05-24 10:01:00,64.0,42.3,29.47,NNW,338,0.0,0.0,45,0.00,,BKN060TCU,0.00,VWS V14.01,2013-05-24 15:01:00,
2013-05-24 10:02:00,64.0,42.3,29.47,NNW,338,0.0,0.0,45,0.00,,BKN060TCU,0.00,VWS V14.01,2013-05-24 15:02:00,
2013-05-24 10:03:00,63.7,41.4,29.47,NNW,338,0.0,0.0,44,0.00,,BKN060TCU,0.00,VWS V14.01,2013-05-24 15:03:00,
2013-05-24 10:04:00,64.0,41.7,29.47,NNW,338,0.0,0.0,44,0.00,,BKN060TCU,0.00,VWS V14.01,2013-05-24 15:04:00,
2013-05-24 10:05:00,64.4,42.0,29.47,NNW,338,0.0,0.0,44,0.00,,BKN060TCU,0.00,VWS V14.01,2013-05-24 15:05:00,
2013-05-24 10:06:00,64.4,42.0,29.47,NNW,338,0.0,0.0,44,0.00,,BKN060TCU,0.00,VWS V14.01,2013-05-24 15:06:00,
2013-05-24 10:07:00,64.6,42.2,29.47,NNW,338,0.0,0.0,44,0.00,,BKN060TCU,0.00,VWS V14.01,2013-05-24 15:07:00,
2013-05-24 10:08:00,64.8,42.4,29.47,NNW,338,0.0,0.0,44,0.00,,BKN060TCU,0.00,VWS V14.01,2013-05-24 15:08:00,
2013-05-24 10:09:00,64.4,41.4,29.47,NNW,338,0.0,0.0,43,0.00,,BKN060TCU,0.00,VWS V14.01,2013-05-24 15:09:00,
2013-05-24 10:10:00,64.8,42.4,29.47,NNW,338,0.0,0.0,44,0.00,,BKN060TCU,0.00,VWS V14.01,2013-05-24 15:10:00,
2013-05-24 10:11:00,64.8,41.8,29.47,NNW,338,0.0,0.0,43,0.00,,BKN060TCU,0.00,VWS V14.01,2013-05-24 15:11:00,
2013-05-24 10:12:00,64.6,41.0,29.47,NNW,338,0.0,0.0,42,0.00,,BKN060TCU,0.00,VWS V14.01,2013-05-24 15:12:00,
2013-05-24 10:13:00,64.2,40.7,29.47,NNW,338,0.0,0.0,42,0.00,,BKN060TCU,0.00,VWS V14.01,2013-05-24 15:13:00,
2013-05-24 10:14:00,64.6,41.0,29.47,NNW,338,0.0,0.0,42,0.00,,BKN060TCU,0.00,VWS V14.01,2013-05-24 15:14:00,
2013-05-24 10:15:00,64.4,40.8,29.47,NNW,338,0.0,0.0,42,0.00,,BKN060TCU,0.00,VWS V14.01,2013-05-24 15:15:00,
2013-05-24 10:16:00,64.9,41.3,29.47,NNW,338,0.0,0.0,42,0.00,,BKN060TCU,0.00,VWS V14.01,2013-05-24 15:16:00,
2013-05-24 10:17:00,64.9,41.3,29.47,NNW,338,0.0,0.0,42,0.00,,BKN060TCU,0.00,VWS V14.01,2013-05-24 15:17:00,
2013-05-24 10:18:00,65.7,42.6,29.47,NNW,338,0.0,0.0,43,0.00,,BKN060TCU,0.00,VWS V14.01,2013-05-24 15:18:00,
2013-05-24 10:19:00,65.8,42.7,29.47,NNW,338,0.0,0.0,43,0.00,,BKN060TCU,0.00,VWS V14.01,2013-05-24 15:19:00,
2013-05-24 10:20:00,66.2,42.5,29.44,NNW,338,0.0,0.0,42,0.00,,BKN060TCU,0.00,VWS V14.01,2013-05-24 15:20:00,
2013-05-24 10:21:00,66.2,42.5,29.44,NNW,338,0.0,0.0,42,0.00,,BKN060TCU,0.00,VWS V14.01,2013-05-24 15:21:00,
2013-05-24 10:22:00,66.2,41.8,29.44,NNW,338,0.0,0.0,41,0.00,,BKN060TCU,0.00,VWS V14.01,2013-05-24 15:22:00,
2013-05-24 10:23:00,66.2,41.8,29.44,NNW,338,0.0,0.0,41,0.00,,BKN060TCU,0.00,VWS V14.01,2013-05-24 15:23:00,
2013-05-24 10:24:00,66.2,41.8,29.44,NNW,338,0.0,0.0,41,0.00,,BKN060TCU,0.00,VWS V14.01,2013-05-24 15:24:00,
2013-05-24 10:25:00,66.4,42.0,29.44,NNW,338,0.0,0.0,41,0.00,,BKN060TCU,0.00,VWS V14.01,2013-05-24 15:25:00,
2013-05-24 10:26:00,65.3,39.7,29.44,NNW,338,0.0,0.0,39,0.00,,BKN060TCU,0.00,VWS V14.01,2013-05-24 15:26:00,
2013-05-24 10:27:00,64.8,39.9,29.44,NNW,338,0.0,0.0,40,0.00,,BKN060TCU,0.00,VWS V14.01,2013-05-24 15:27:00,
2013-05-24 10:28:00,65.1,40.2,29.44,NNW,338,0.0,0.0,40,0.00,,BKN060TCU,0.00,VWS V14.01,2013-05-24 15:28:00,
2013-05-24 10:29:00,64.9,40.1,29.44,NNW,338,0.0,0.0,40,0.00,,BKN060TCU,0.00,VWS V14.01,2013-05-24 15:29:00,
2013-05-24 10:30:00,65.5,40.5,29.44,NNW,338,0.0,0.0,40,0.00,,BKN060TCU,0.00,VWS V14.01,2013-05-24 15:30:00,
2013-05-24 10:31:00,65.3,40.4,29.44,NNW,338,0.0,0.0,40,0.00,,BKN060TCU,0.00,VWS V14.01,2013-05-24 15:31:00,
2013-05-24 10:32:00,65.3,40.4,29.44,NNW,338,0.0,0.0,40,0.00,,BKN060TCU,0.00,VWS V14.01,2013-05-24 15:32:00,
2013-05-24 10:33:00,65.1,39.6,29.44,NNW,338,0.0,0.0,39,0.00,,BKN060TCU,0.00,VWS V14.01,2013-05-24 15:33:00,
2013-05-24 10:34:00,64.4,38.9,29.44,NNW,338,0.0,0.0,39,0.00,,BKN060TCU,0.00,VWS V14.01,2013-05-24 15:34:00,
2013-05-24 10:35:00,64.8,39.2,29.44,NNW,338,0.0,0.0,39,0.00,,BKN060TCU,0.00,VWS V14.01,2013-05-24 15:35:00,
2013-05-24 10:36:00,65.3,40.4,29.44,NNW,338,0.0,0.0,40,0.00,,BKN060TCU,0.00,VWS V14.01,2013-05-24 15:36:00,
2013-05-24 10:37:00,65.5,39.9,29.44,NNW,338,0.0,0.0,39,0.00,,BKN060TCU,0.00,VWS V14.01,2013-05-24 15:37:00,
2013-05-24 10:38:00,65.5,39.9,29.44,NNW,338,0.0,0.0,39,0.00,,BKN060TCU,0.00,VWS V14.01,2013-05-24 15:38:00,
2013-05-24 10:39:00,65.7,40.0,29.44,NNW,338,0.0,0.0,39,0.00,,BKN060TCU,0.00,VWS V14.01,2013-05-24 15:39:00,
2013-05-24 10:40:00,65.1,38.9,29.44,NNW,338,0.0,0.0,38,0.00,,BKN060TCU,0.00,VWS V14.01,2013-05-24 15:40:00,
2013-05-24 10:41:00,65.8,40.2,29.44,NNW,338,0.0,0.0,39,0.00,,BKN060TCU,0.00,VWS V14.01,2013-05-24 15:41:00,
2013-05-24 10:42:00,65.8,40.2,29.44,NNW,338,0.0,0.0,39,0.00,,BKN060TCU,0.00,VWS V14.01,2013-05-24 15:42:00,
2013-05-24 10:43:00,65.8,40.2,29.44,NNW,338,0.0,0.0,39,0.00,,BKN060TCU,0.00,VWS V14.01,2013-05-24 15:43:00,
2013-05-24 10:44:00,66.6,40.9,29.44,NNW,338,0.0,0.0,39,0.00,,BKN060TCU,0.00,VWS V14.01,2013-05-24 15:44:00,
2013-05-24 10:45:00,66.6,40.9,29.44,NNW,338,0.0,0.0,39,0.00,,BKN060TCU,0.00,VWS V14.01,2013-05-24 15:45:00,
2013-05-24 10:46:00,66.4,40.7,29.44,NNW,338,0.0,0.0,39,0.00,,BKN060TCU,0.00,VWS V14.01,2013-05-24 15:46:00,
2013-05-24 10:47:00,66.4,40.7,29.44,NNW,338,0.0,0.0,39,0.00,,BKN060TCU,0.00,VWS V14.01,2013-05-24 15:47:00,
2013-05-24 10:48:00,66.7,41.0,29.44,NNW,338,0.0,0.0,39,0.00,,BKN060TCU,0.00,VWS V14.01,2013-05-24 15:48:00,
2013-05-24 10:49:00,66.7,41.0,29.44,NNW,338,0.0,0.0,39,0.00,,BKN060TCU,0.00,VWS V14.01,2013-05-24 15:49:00,
2013-05-24 10:50:00,66.9,40.5,29.44,NNW,338,0.0,0.0,38,0.00,,BKN060TCU,0.00,VWS V14.01,2013-05-24 15:50:00,
2013-05-24 10:51:00,67.3,40.8,29.44,NNW,338,0.0,0.0,38,0.00,,BKN060TCU,0.00,VWS V14.01,2013-05-24 15:51:00,
2013-05-24 10:52:00,67.3,41.5,29.44,NNW,338,0.0,0.0,39,0.00,,BKN060TCU,0.00,VWS V14.01,2013-05-24 15:52:00,
2013-05-24 10:53:00,67.6,41.8,29.44,NNW,338,0.0,0.0,39,0.00,,BKN060TCU,0.00,VWS V14.01,2013-05-24 15:53:00,
2013-05-24 10:54:00,67.8,42.0,29.44,NNW,338,0.0,0.0,39,0.00,,BKN060TCU,0.00,VWS V14.01,2013-05-24 15:54:00,
2013-05-24 10:55:00,68.0,41.5,29.44,NNW,338,0.0,0.0,38,0.00,,BKN060TCU,0.00,VWS V14.01,2013-05-24 15:55:00,
2013-05-24 10:56:00,68.2,41.6,29.44,NNW,338,0.0,0.0,38,0.00,,BKN060TCU,0.00,VWS V14.01,2013-05-24 15:56:00,
2013-05-24 10:57:00,68.2,41.6,29.44,NNW,338,0.0,0.0,38,0.00,,BKN060TCU,0.00,VWS V14.01,2013-05-24 15:57:00,
2013-05-24 10:58:00,68.7,42.1,29.44,NNW,338,0.0,0.0,38,0.00,,BKN060TCU,0.00,VWS V14.01,2013-05-24 15:58:00,
2013-05-24 10:59:00,68.7,41.4,29.44,NNW,338,0.0,0.0,37,0.00,,BKN060TCU,0.00,VWS V14.01,2013-05-24 15:59:00,
2013-05-24 11:00:00,68.9,41.6,29.44,NNW,338,0.0,0.0,37,0.00,,BKN060TCU,0.00,VWS V14.01,2013-05-24 16:00:00,
2013-05-24 11:01:00,69.3,42.6,29.44,NNW,338,0.0,0.0,38,0.00,,BKN060TCU,0.00,VWS V14.01,2013-05-24 16:01:00,
2013-05-24 11:02:00,69.3,42.6,29.44,NNW,338,0.0,0.0,38,0.00,,BKN060TCU,0.00,VWS V14.01,2013-05-24 16:02:00,
2013-05-24 11:03:00,68.5,41.3,29.44,NNW,338,0.0,0.0,37,0.00,,BKN060TCU,0.00,VWS V14.01,2013-05-24 16:03:00,
2013-05-24 11:04:00,68.7,40.7,29.44,NNW,338,0.0,0.0,36,0.00,,BKN060TCU,0.00,VWS V14.01,2013-05-24 16:04:00,
2013-05-24 11:05:00,68.5,41.3,29.44,NNW,338,0.0,0.0,37,0.00,,BKN060TCU,0.00,VWS V14.01,2013-05-24 16:05:00,
2013-05-24 11:06:00,68.7,41.4,29.44,NNW,338,0.0,0.0,37,0.00,,BKN060TCU,0.00,VWS V14.01,2013-05-24 16:06:00,
2013-05-24 11:07:00,68.4,40.4,29.44,NNW,338,0.0,0.0,36,0.00,,BKN060TCU,0.00,VWS V14.01,2013-05-24 16:07:00,
2013-05-24 11:08:00,68.7,40.7,29.44,NNW,338,0.0,0.0,36,0.00,,BKN060TCU,0.00,VWS V14.01,2013-05-24 16:08:00,
2013-05-24 11:09:00,68.7,40.7,29.44,NNW,338,0.0,0.0,36,0.00,,BKN060TCU,0.00,VWS V14.01,2013-05-24 16:09:00,
2013-05-24 11:10:00,68.9,40.9,29.44,NNW,338,0.0,0.0,36,0.00,,BKN060TCU,0.00,VWS V14.01,2013-05-24 16:10:00,
2013-05-24 11:11:00,68.7,40.0,29.44,NNW,338,0.0,0.0,35,0.00,,BKN060TCU,0.00,VWS V14.01,2013-05-24 16:11:00,
2013-05-24 11:12:00,68.7,40.0,29.44,NNW,338,0.0,0.0,35,0.00,,BKN060TCU,0.00,VWS V14.01,2013-05-24 16:12:00,
2013-05-24 11:13:00,68.7,40.7,29.44,NNW,338,0.0,0.0,36,0.00,,BKN060TCU,0.00,VWS V14.01,2013-05-24 16:13:00,
2013-05-24 11:14:00,68.4,40.4,29.44,NNW,338,0.0,0.0,36,0.00,,BKN060TCU,0.00,VWS V14.01,2013-05-24 16:14:00,
2013-05-24 11:15:00,68.5,40.6,29.44,NNW,338,0.0,0.0,36,0.00,,BKN060TCU,0.00,VWS V14.01,2013-05-24 16:15:00,
2013-05-24 11:16:00,68.7,40.0,29.44,NNW,338,0.0,0.0,35,0.00,,BKN060TCU,0.00,VWS V14.01,2013-05-24 16:16:00,
2013-05-24 11:17:00,68.7,40.0,29.44,NNW,338,0.0,0.0,35,0.00,,BKN060TCU,0.00,VWS V14.01,2013-05-24 16:17:00,
2013-05-24 11:18:00,68.5,40.6,29.44,NNW,338,0.0,0.0,36,0.00,,BKN060TCU,0.00,VWS V14.01,2013-05-24 16:18:00,
2013-05-24 11:19:00,69.3,41.2,29.44,NNW,338,0.0,0.0,36,0.00,,BKN060TCU,0.00,VWS V14.01,2013-05-24 16:19:00,
2013-05-24 11:20:00,68.0,39.3,29.44,NNW,338,0.0,0.0,35,0.00,,BKN060TCU,0.00,VWS V14.01,2013-05-24 16:20:00,
2013-05-24 11:21:00,68.9,40.2,29.44,NNW,338,0.0,0.0,35,0.00,,BKN060TCU,0.00,VWS V14.01,2013-05-24 16:21:00,
2013-05-24 11:22:00,68.9,40.9,29.44,NNW,338,0.0,0.0,36,0.00,,BKN060TCU,0.00,VWS V14.01,2013-05-24 16:22:00,
2013-05-24 11:23:00,69.6,41.5,29.44,NNW,338,0.0,0.0,36,0.00,,BKN060TCU,0.00,VWS V14.01,2013-05-24 16:23:00,
2013-05-24 11:24:00,70.2,42.0,29.44,NNW,338,0.0,0.0,36,0.00,,BKN060TCU,0.00,VWS V14.01,2013-05-24 16:24:00,
2013-05-24 11:25:00,70.7,43.2,29.44,NNW,338,0.0,0.0,37,0.00,,BKN060TCU,0.00,VWS V14.01,2013-05-24 16:25:00,
2013-05-24 11:26:00,70.7,42.5,29.44,NNW,338,0.0,0.0,36,0.00,,BKN060TCU,0.00,VWS V14.01,2013-05-24 16:26:00,
2013-05-24 11:27:00,70.7,42.5,29.44,NNW,338,0.0,0.0,36,0.00,,BKN060TCU,0.00,VWS V14.01,2013-05-24 16:27:00,
2013-05-24 11:28:00,70.2,41.3,29.44,NNW,338,0.0,0.0,35,0.00,,BKN060TCU,0.00,VWS V14.01,2013-05-24 16:28:00,
2013-05-24 11:29:00,70.5,42.3,29.44,NNW,338,0.0,0.0,36,0.00,,BKN060TCU,0.00,VWS V14.01,2013-05-24 16:29:00,
2013-05-24 11:30:00,70.3,41.4,29.44,NNW,338,0.0,0.0,35,0.00,,BKN060TCU,0.00,VWS V14.01,2013-05-24 16:30:00,
2013-05-24 11:31:00,70.9,42.6,29.44,NNW,338,0.0,0.0,36,0.00,,BKN060TCU,0.00,VWS V14.01,2013-05-24 16:31:00,
2013-05-24 11:32:00,69.6,40.8,29.44,NNW,338,0.0,0.0,35,0.00,,BKN060TCU,0.00,VWS V14.01,2013-05-24 16:32:00,
2013-05-24 11:33:00,70.5,41.6,29.44,NNW,338,0.0,0.0,35,0.00,,BKN060TCU,0.00,VWS V14.01,2013-05-24 16:33:00,
2013-05-24 11:34:00,70.5,41.6,29.44,NNW,338,0.0,0.0,35,0.00,,BKN060TCU,0.00,VWS V14.01,2013-05-24 16:34:00,
2013-05-24 11:35:00,70.9,42.6,29.41,NNW,338,0.0,0.0,36,0.00,,BKN060TCU,0.00,VWS V14.01,2013-05-24 16:35:00,
2013-05-24 11:36:00,70.3,41.4,29.41,NNW,338,0.0,0.0,35,0.00,,BKN060TCU,0.00,VWS V14.01,2013-05-24 16:36:00,
2013-05-24 11:37:00,70.9,41.9,29.41,NNW,338,0.0,0.0,35,0.00,,BKN060TCU,0.00,VWS V14.01,2013-05-24 16:37:00,
2013-05-24 11:38:00,70.9,41.9,29.41,NNW,338,0.0,0.0,35,0.00,,BKN060TCU,0.00,VWS V14.01,2013-05-24 16:38:00,
2013-05-24 11:39:00,71.4,42.4,29.41,NNW,338,0.0,0.0,35,0.00,,BKN060TCU,0.00,VWS V14.01,2013-05-24 16:39:00,
2013-05-24 11:40:00,72.0,42.1,29.41,NNW,338,0.0,0.0,34,0.00,,BKN060TCU,0.00,VWS V14.01,2013-05-24 16:40:00,
2013-05-24 11:41:00,71.8,42.7,29.41,NNW,338,0.0,0.0,35,0.00,,BKN060TCU,0.00,VWS V14.01,2013-05-24 16:41:00,
2013-05-24 11:42:00,71.8,42.7,29.41,NNW,338,0.0,0.0,35,0.00,,BKN060TCU,0.00,VWS V14.01,2013-05-24 16:42:00,
2013-05-24 11:43:00,71.8,41.9,29.41,NNW,338,0.0,0.0,34,0.00,,BKN060TCU,0.00,VWS V14.01,2013-05-24 16:43:00,
2013-05-24 11:44:00,71.4,42.4,29.41,NNW,338,0.0,0.0,35,0.00,,BKN060TCU,0.00,VWS V14.01,2013-05-24 16:44:00,
2013-05-24 11:45:00,72.5,43.3,29.41,NNW,338,0.0,0.0,35,0.00,,BKN060TCU,0.00,VWS V14.01,2013-05-24 16:45:00,
2013-05-24 11:46:00,70.9,41.1,29.41,NNW,338,0.0,0.0,34,0.00,,BKN060TCU,0.00,VWS V14.01,2013-05-24 16:46:00,
2013-05-24 11:47:00,70.9,41.1,29.41,NNW,338,0.0,0.0,34,0.00,,BKN060TCU,0.00,VWS V14.01,2013-05-24 16:47:00,
2013-05-24 11:48:00,70.3,40.7,29.41,NNW,338,0.0,0.0,34,0.00,,BKN060TCU,0.00,VWS V14.01,2013-05-24 16:48:00,
2013-05-24 11:49:00,70.2,41.3,29.41,NNW,338,0.0,0.0,35,0.00,,BKN060TCU,0.00,VWS V14.01,2013-05-24 16:49:00,
2013-05-24 11:50:00,70.9,41.9,29.44,NNW,338,0.0,0.0,35,0.00,,BKN060TCU,0.00,VWS V14.01,2013-05-24 16:50:00,
2013-05-24 11:51:00,70.9,41.9,29.44,NNW,338,0.0,0.0,35,0.00,,BKN060TCU,0.00,VWS V14.01,2013-05-24 16:51:00,
2013-05-24 11:52:00,71.4,42.4,29.44,NNW,338,0.0,0.0,35,0.00,,BKN060TCU,0.00,VWS V14.01,2013-05-24 16:52:00,
2013-05-24 11:53:00,71.2,42.2,29.44,NNW,338,0.0,0.0,35,0.00,,BKN060TCU,0.00,VWS V14.01,2013-05-24 16:53:00,
2013-05-24 11:54:00,72.0,42.1,29.44,NNW,338,0.0,0.0,34,0.00,,BKN060TCU,0.00,VWS V14.01,2013-05-24 16:54:00,
2013-05-24 11:55:00,72.3,42.4,29.44,NNW,338,0.0,0.0,34,0.00,,BKN060TCU,0.00,VWS V14.01,2013-05-24 16:55:00,
2013-05-24 11:56:00,72.3,42.4,29.44,NNW,338,0.0,0.0,34,0.00,,BKN060TCU,0.00,VWS V14.01,2013-05-24 16:56:00,
2013-05-24 11:57:00,72.3,42.4,29.44,NNW,338,0.0,0.0,34,0.00,,BKN060TCU,0.00,VWS V14.01,2013-05-24 16:57:00,
2013-05-24 11:58:00,71.8,41.9,29.44,NNW,338,0.0,0.0,34,0.00,,BKN060TCU,0.00,VWS V14.01,2013-05-24 16:58:00,
2013-05-24 11:59:00,72.5,42.6,29.44,NNW,338,0.0,0.0,34,0.00,,BKN060TCU,0.00,VWS V14.01,2013-05-24 16:59:00,
2013-05-24 12:00:00,73.2,43.2,29.44,NNW,338,0.0,0.0,34,0.00,,BKN060TCU,0.00,VWS V14.01,2013-05-24 17:00:00,
2013-05-24 12:01:00,73.2,43.2,29.44,NNW,338,0.0,0.0,34,0.00,,BKN060TCU,0.00,VWS V14.01,2013-05-24 17:01:00,
2013-05-24 12:02:00,72.7,42.7,29.44,NNW,338,0.0,0.0,34,0.00,,BKN060TCU,0.00,VWS V14.01,2013-05-24 17:02:00,
2013-05-24 12:03:00,71.4,40.8,29.44,NNW,338,0.0,0.0,33,0.00,,BKN060TCU,0.00,VWS V14.01,2013-05-24 17:03:00,
2013-05-24 12:04:00,71.2,40.7,29.44,NNW,338,0.0,0.0,33,0.00,,BKN060TCU,0.00,VWS V14.01,2013-05-24 17:04:00,
2013-05-24 12:05:00,69.6,40.0,29.44,NNW,338,0.0,0.0,34,0.00,,BKN060TCU,0.00,VWS V14.01,2013-05-24 17:05:00,
2013-05-24 12:06:00,69.6,40.0,29.44,NNW,338,0.0,0.0,34,0.00,,BKN060TCU,0.00,VWS V14.01,2013-05-24 17:06:00,
2013-05-24 12:07:00,69.6,40.0,29.44,NNW,338,0.0,0.0,34,0.00,,BKN060TCU,0.00,VWS V14.01,2013-05-24 17:07:00,
2013-05-24 12:08:00,70.0,40.3,29.44,NNW,338,0.0,0.0,34,0.00,,BKN060TCU,0.00,VWS V14.01,2013-05-24 17:08:00,
2013-05-24 12:09:00,69.8,40.2,29.44,NNW,338,0.0,0.0,34,0.00,,BKN060TCU,0.00,VWS V14.01,2013-05-24 17:09:00,
2013-05-24 12:10:00,70.2,40.5,29.44,NNW,338,0.0,0.0,34,0.00,,BKN060TCU,0.00,VWS V14.01,2013-05-24 17:10:00,
2013-05-24 12:11:00,70.2,40.5,29.44,NNW,338,0.0,0.0,34,0.00,,BKN060TCU,0.00,VWS V14.01,2013-05-24 17:11:00,
2013-05-24 12:12:00,70.2,40.5,29.44,NNW,338,0.0,0.0,34,0.00,,BKN060TCU,0.00,VWS V14.01,2013-05-24 17:12:00,
2013-05-24 12:13:00,71.6,41.8,29.44,NNW,338,0.0,0.0,34,0.00,,BKN060TCU,0.00,VWS V14.01,2013-05-24 17:13:00,
2013-05-24 12:14:00,71.6,41.8,29.44,NNW,338,0.0,0.0,34,0.00,,BKN060TCU,0.00,VWS V14.01,2013-05-24 17:14:00,
2013-05-24 12:15:00,71.8,41.9,29.44,NNW,338,0.0,0.0,34,0.00,,BKN060TCU,0.00,VWS V14.01,2013-05-24 17:15:00,
2013-05-24 12:16:00,71.8,41.9,29.44,NNW,338,0.0,0.0,34,0.00,,BKN060TCU,0.00,VWS V14.01,2013-05-24 17:16:00,
2013-05-24 12:17:00,71.6,41.8,29.44,NNW,338,0.0,0.0,34,0.00,,BKN060TCU,0.00,VWS V14.01,2013-05-24 17:17:00,
2013-05-24 12:18:00,72.3,42.4,29.44,NNW,338,0.0,0.0,34,0.00,,BKN060TCU,0.00,VWS V14.01,2013-05-24 17:18:00,
2013-05-24 12:19:00,72.5,42.6,29.44,NNW,338,0.0,0.0,34,0.00,,BKN060TCU,0.00,VWS V14.01,2013-05-24 17:19:00,
2013-05-24 12:20:00,73.2,43.2,29.44,NNW,338,0.0,0.0,34,0.00,,BKN060TCU,0.00,VWS V14.01,2013-05-24 17:20:00,
2013-05-24 12:21:00,73.2,43.2,29.44,NNW,338,0.0,0.0,34,0.00,,BKN060TCU,0.00,VWS V14.01,2013-05-24 17:21:00,
2013-05-24 12:22:00,73.0,43.0,29.44,NNW,338,0.0,0.0,34,0.00,,BKN060TCU,0.00,VWS V14.01,2013-05-24 17:22:00,
2013-05-24 12:23:00,72.7,43.5,29.44,NNW,338,0.0,0.0,35,0.00,,BKN060TCU,0.00,VWS V14.01,2013-05-24 17:23:00,
2013-05-24 12:24:00,72.7,42.7,29.44,NNW,338,0.0,0.0,34,0.00,,BKN060TCU,0.00,VWS V14.01,2013-05-24 17:24:00,
2013-05-24 12:25:00,72.9,42.9,29.44,NNW,338,0.0,0.0,34,0.00,,BKN060TCU,0.00,VWS V14.01,2013-05-24 17:25:00,
2013-05-24 12:26:00,73.2,43.2,29.44,NNW,338,0.0,0.0,34,0.00,,BKN060TCU,0.00,VWS V14.01,2013-05-24 17:26:00,
2013-05-24 12:27:00,72.9,42.9,29.44,NNW,338,0.0,0.0,34,0.00,,BKN060TCU,0.00,VWS V14.01,2013-05-24 17:27:00,
2013-05-24 12:28:00,73.2,43.2,29.44,NNW,338,0.0,0.0,34,0.00,,BKN060TCU,0.00,VWS V14.01,2013-05-24 17:28:00,
2013-05-24 12:29:00,74.3,44.2,29.44,NNW,338,0.0,0.0,34,0.00,,BKN060TCU,0.00,VWS V14.01,2013-05-24 17:29:00,
2013-05-24 12:30:00,75.2,44.9,29.44,NNW,338,0.0,0.0,34,0.00,,BKN060TCU,0.00,VWS V14.01,2013-05-24 17:30:00,
2013-05-24 12:31:00,75.2,44.9,29.44,NNW,338,0.0,0.0,34,0.00,,BKN060TCU,0.00,VWS V14.01,2013-05-24 17:31:00,
2013-05-24 12:32:00,75.2,44.9,29.44,NNW,338,0.0,0.0,34,0.00,,BKN060TCU,0.00,VWS V14.01,2013-05-24 17:32:00,
2013-05-24 12:33:00,75.6,45.2,29.44,NNW,338,0.0,0.0,34,0.00,,BKN060TCU,0.00,VWS V14.01,2013-05-24 17:33:00,
2013-05-24 12:34:00,75.6,44.5,29.44,NNW,338,0.0,0.0,33,0.00,,BKN060TCU,0.00,VWS V14.01,2013-05-24 17:34:00,
2013-05-24 12:35:00,74.5,43.5,29.44,NNW,338,0.0,0.0,33,0.00,,BKN060TCU,0.00,VWS V14.01,2013-05-24 17:35:00,
2013-05-24 12:36:00,74.5,43.5,29.44,NNW,338,0.0,0.0,33,0.00,,BKN060TCU,0.00,VWS V14.01,2013-05-24 17:36:00,
2013-05-24 12:37:00,74.1,43.2,29.44,NNW,338,0.0,0.0,33,0.00,,BKN060TCU,0.00,VWS V14.01,2013-05-24 17:37:00,
2013-05-24 12:38:00,74.5,43.5,29.44,NNW,338,0.0,0.0,33,0.00,,BKN060TCU,0.00,VWS V14.01,2013-05-24 17:38:00,
2013-05-24 12:39:00,74.1,43.2,29.44,NNW,338,0.0,0.0,33,0.00,,BKN060TCU,0.00,VWS V14.01,2013-05-24 17:39:00,
2013-05-24 12:40:00,74.1,42.4,29.44,NNW,338,0.0,0.0,32,0.00,,BKN060TCU,0.00,VWS V14.01,2013-05-24 17:40:00,
2013-05-24 12:41:00,74.1,43.2,29.44,NNW,338,0.0,0.0,33,0.00,,BKN060TCU,0.00,VWS V14.01,2013-05-24 17:41:00,
2013-05-24 12:42:00,74.1,42.4,29.44,NNW,338,0.0,0.0,32,0.00,,BKN060TCU,0.00,VWS V14.01,2013-05-24 17:42:00,
2013-05-24 12:43:00,73.8,42.1,29.44,NNW,338,0.0,0.0,32,0.00,,BKN060TCU,0.00,VWS V14.01,2013-05-24 17:43:00,
2013-05-24 12:44:00,73.4,42.6,29.44,NNW,338,0.0,0.0,33,0.00,,BKN060TCU,0.00,VWS V14.01,2013-05-24 17:44:00,
2013-05-24 12:45:00,73.9,43.0,29.44,NNW,338,0.0,0.0,33,0.00,,BKN060TCU,0.00,VWS V14.01,2013-05-24 17:45:00,
2013-05-24 12:46:00,73.9,43.0,29.44,NNW,338,0.0,0.0,33,0.00,,BKN060TCU,0.00,VWS V14.01,2013-05-24 17:46:00,
2013-05-24 12:47:00,73.9,43.0,29.44,NNW,338,0.0,0.0,33,0.00,,BKN060TCU,0.00,VWS V14.01,2013-05-24 17:47:00,
2013-05-24 12:48:00,75.0,44.0,29.44,NNW,338,0.0,0.0,33,0.00,,BKN060TCU,0.00,VWS V14.01,2013-05-24 17:48:00,
2013-05-24 12:49:00,75.0,44.0,29.44,NNW,338,0.0,0.0,33,0.00,,BKN060TCU,0.00,VWS V14.01,2013-05-24 17:49:00,
2013-05-24 12:50:00,74.3,43.4,29.44,NNW,338,0.0,0.0,33,0.00,,BKN060TCU,0.00,VWS V14.01,2013-05-24 17:50:00,
2013-05-24 12:51:00,74.3,43.4,29.44,NNW,338,0.0,0.0,33,0.00,,BKN060TCU,0.00,VWS V14.01,2013-05-24 17:51:00,
2013-05-24 12:52:00,73.9,43.0,29.44,NNW,338,0.0,0.0,33,0.00,,BKN060TCU,0.00,VWS V14.01,2013-05-24 17:52:00,
2013-05-24 12:53:00,73.0,42.3,29.44,NNW,338,0.0,0.0,33,0.00,,BKN060TCU,0.00,VWS V14.01,2013-05-24 17:53:00,
2013-05-24 12:54:00,73.6,42.7,29.44,NNW,338,0.0,0.0,33,0.00,,BKN060TCU,0.00,VWS V14.01,2013-05-24 17:54:00,
2013-05-24 12:55:00,74.7,43.7,29.44,NNW,338,0.0,0.0,33,0.00,,BKN060TCU,0.00,VWS V14.01,2013-05-24 17:55:00,
2013-05-24 12:56:00,74.1,43.2,29.44,NNW,338,0.0,0.0,33,0.00,,BKN060TCU,0.00,VWS V14.01,2013-05-24 17:56:00,
2013-05-24 12:57:00,74.7,43.7,29.44,NNW,338,0.0,0.0,33,0.00,,BKN060TCU,0.00,VWS V14.01,2013-05-24 17:57:00,
2013-05-24 12:58:00,74.1,43.2,29.44,NNW,338,0.0,0.0,33,0.00,,BKN060TCU,0.00,VWS V14.01,2013-05-24 17:58:00,
2013-05-24 12:59:00,73.8,42.9,29.44,NNW,338,0.0,0.0,33,0.00,,BKN060TCU,0.00,VWS V14.01,2013-05-24 17:59:00,
2013-05-24 13:00:00,73.6,42.7,29.44,NNW,338,0.0,0.0,33,0.00,,BKN060TCU,0.00,VWS V14.01,2013-05-24 18:00:00,
2013-05-24 13:01:00,73.6,42.7,29.44,NNW,338,0.0,0.0,33,0.00,,BKN060TCU,0.00,VWS V14.01,2013-05-24 18:01:00,
2013-05-24 13:02:00,73.0,42.3,29.44,NNW,338,0.0,0.0,33,0.00,,BKN060TCU,0.00,VWS V14.01,2013-05-24 18:02:00,
2013-05-24 13:03:00,72.3,41.6,29.44,NNW,338,0.0,0.0,33,0.00,,BKN060TCU,0.00,VWS V14.01,2013-05-24 18:03:00,
2013-05-24 13:04:00,73.0,42.3,29.44,NNW,338,0.0,0.0,33,0.00,,BKN060TCU,0.00,VWS V14.01,2013-05-24 18:04:00,
2013-05-24 13:05:00,73.6,43.5,29.41,NNW,338,0.0,0.0,34,0.00,,BKN060TCU,0.00,VWS V14.01,2013-05-24 18:05:00,
2013-05-24 13:06:00,73.6,43.5,29.41,NNW,338,0.0,0.0,34,0.00,,BKN060TCU,0.00,VWS V14.01,2013-05-24 18:06:00,
2013-05-24 13:07:00,74.7,44.5,29.41,NNW,338,0.0,0.0,34,0.00,,BKN060TCU,0.00,VWS V14.01,2013-05-24 18:07:00,
2013-05-24 13:08:00,75.0,44.8,29.41,NNW,338,0.0,0.0,34,0.00,,BKN060TCU,0.00,VWS V14.01,2013-05-24 18:08:00,
2013-05-24 13:09:00,75.0,44.8,29.41,NNW,338,0.0,0.0,34,0.00,,BKN060TCU,0.00,VWS V14.01,2013-05-24 18:09:00,
2013-05-24 13:10:00,76.1,44.9,29.41,NNW,338,0.0,0.0,33,0.00,,BKN060TCU,0.00,VWS V14.01,2013-05-24 18:10:00,
2013-05-24 13:11:00,76.1,44.9,29.41,NNW,338,0.0,0.0,33,0.00,,BKN060TCU,0.00,VWS V14.01,2013-05-24 18:11:00,
2013-05-24 13:12:00,76.3,45.1,29.41,SSE,158,6.3,6.3,33,0.00,,FEW,0.00,VWS V14.01,2013-05-24 18:12:00,
2013-05-24 13:13:00,76.3,45.1,29.41,SSE,158,6.3,6.3,33,0.00,,FEW,0.00,VWS V14.01,2013-05-24 18:13:00,
2013-05-24 13:14:00,75.6,43.7,29.41,SSE,158,6.3,6.3,32,0.00,,FEW,0.00,VWS V14.01,2013-05-24 18:14:00,
2013-05-24 13:15:00,76.1,44.9,29.41,NNW,338,0.0,0.0,33,0.00,,BKN060TCU,0.00,VWS V14.01,2013-05-24 18:15:00,
2013-05-24 13:17:00,74.7,42.9,0.00,SSE,158,3.4,3.4,32,0.00,,FEW,0.00,VWS V14.01,2013-05-24 18:17:00,
2013-05-24 13:18:00,74.7,43.7,29.41,SE,135,6.5,6.5,33,0.00,,FEW,0.00,VWS V14.01,2013-05-24 18:18:00,
2013-05-24 13:19:00,75.0,44.0,29.41,NNE,22,3.6,6.5,33,0.00,,FEW,0.00,VWS V14.01,2013-05-24 18:19:00,
2013-05-24 13:20:00,76.1,44.9,29.41,NNW,338,0.0,0.0,33,0.00,,BKN060TCU,0.00,VWS V14.01,2013-05-24 18:20:00,
2013-05-24 13:21:00,74.5,43.5,29.41,SSE,158,5.4,7.6,33,0.00,,FEW,0.00,VWS V14.01,2013-05-24 18:21:00,
2013-05-24 13:22:00,73.9,43.0,29.41,SW,225,4.0,6.3,33,0.00,,FEW,0.00,VWS V14.01,2013-05-24 18:22:00,
2013-05-24 13:23:00,73.6,42.7,29.41,South,180,4.7,4.7,33,0.00,,FEW,0.00,VWS V14.01,2013-05-24 18:23:00,
2013-05-24 13:24:00,72.3,41.6,29.41,South,180,7.8,7.8,33,0.00,,FEW,0.00,VWS V14.01,2013-05-24 18:24:00,
2013-05-24 13:25:00,71.2,41.5,29.41,SE,135,1.1,1.1,34,0.00,,,0.00,VWS V14.01,2013-05-24 18:25:00,
2013-05-24 13:26:00,70.5,40.8,29.41,ESE,112,3.1,6.0,34,0.00,,FEW,0.00,VWS V14.01,2013-05-24 18:26:00,
2013-05-24 13:27:00,71.2,41.5,29.41,ENE,68,0.0,3.1,34,0.00,,FEW,0.00,VWS V14.01,2013-05-24 18:27:00,
2013-05-24 13:28:00,72.0,41.3,29.41,ESE,112,9.2,9.2,33,0.00,,FEW,0.00,VWS V14.01,2013-05-24 18:28:00,
2013-05-24 13:29:00,72.0,41.3,29.41,SE,135,2.9,9.2,33,0.00,,FEW,0.00,VWS V14.01,2013-05-24 18:29:00,
2013-05-24 13:30:00,73.4,42.6,30.41,NE,45,1.6,4.3,33,0.00,,,0.00,VWS V14.01,2013-05-24 18:30:00,
2013-05-24 13:31:00,72.7,42.0,29.41,ESE,112,4.3,8.7,33,0.00,,FEW,0.00,VWS V14.01,2013-05-24 18:31:00,
2013-05-24 13:32:00,73.4,42.6,30.42,NE,45,1.6,4.3,33,0.00,,FEW,0.00,VWS V14.01,2013-05-24 18:32:00,
2013-05-24 13:33:00,74.3,44.2,30.42,NW,315,3.6,3.6,34,0.00,,FEW,0.00,VWS V14.01,2013-05-24 18:33:00,
2013-05-24 13:34:00,75.0,44.8,30.42,SE,135,2.0,3.6,34,0.00,,FEW,0.00,VWS V14.01,2013-05-24 18:34:00,
2013-05-24 13:35:00,77.2,45.9,30.41,North,0,0.0,0.0,33,0.00,,,0.00,VWS V14.01,2013-05-24 18:35:00,
2013-05-24 13:36:00,76.6,45.4,30.42,NNE,22,1.3,5.4,33,0.00,,FEW,0.00,VWS V14.01,2013-05-24 18:36:00,
2013-05-24 13:37:00,77.2,45.9,30.42,NNE,22,0.0,2.7,33,0.00,,FEW,0.00,VWS V14.01,2013-05-24 18:37:00,
2013-05-24 13:38:00,77.0,45.7,30.42,NNE,22,3.4,3.4,33,0.00,,FEW,0.00,VWS V14.01,2013-05-24 18:38:00,
2013-05-24 13:39:00,76.1,44.9,30.42,ESE,112,5.4,5.4,33,0.00,,FEW,0.00,VWS V14.01,2013-05-24 18:39:00,
2013-05-24 13:40:00,71.8,41.2,30.41,SSE,158,5.8,5.8,33,0.00,,,0.00,VWS V14.01,2013-05-24 18:40:00,
2013-05-24 13:41:00,73.4,41.8,30.42,SE,135,4.7,6.5,32,0.00,,FEW,0.00,VWS V14.01,2013-05-24 18:41:00,
2013-05-24 13:42:00,72.7,42.0,30.42,SSE,158,5.8,6.0,33,0.00,,FEW,0.00,VWS V14.01,2013-05-24 18:42:00,
2013-05-24 13:43:00,72.0,41.3,30.42,NE,45,2.7,5.8,33,0.00,,FEW,0.00,VWS V14.01,2013-05-24 18:43:00,
2013-05-24 13:44:00,72.3,41.6,30.42,South,180,2.5,5.8,33,0.00,,FEW,0.00,VWS V14.01,2013-05-24 18:44:00,
2013-05-24 13:45:00,73.2,42.4,30.41,ESE,112,2.2,4.0,33,0.00,,,0.00,VWS V14.01,2013-05-24 18:45:00,
2013-05-24 13:46:00,72.5,41.8,30.42,ESE,112,4.0,4.3,33,0.00,,FEW,0.00,VWS V14.01,2013-05-24 18:46:00,
2013-05-24 13:47:00,73.2,42.4,30.42,ESE,112,2.2,4.0,33,0.00,,FEW,0.00,VWS V14.01,2013-05-24 18:47:00,
2013-05-24 13:48:00,74.3,43.4,30.42,South,180,2.0,2.2,33,0.00,,FEW,0.00,VWS V14.01,2013-05-24 18:48:00,
2013-05-24 13:49:00,75.2,43.3,30.42,SSW,202,8.1,8.1,32,0.00,,FEW,0.00,VWS V14.01,2013-05-24 18:49:00,
2013-05-24 13:50:00,74.5,43.5,30.41,ENE,68,6.0,7.4,33,0.00,,,0.00,VWS V14.01,2013-05-24 18:50:00,
2013-05-24 13:53:00,74.5,43.5,30.42,SSE,158,6.3,7.4,33,0.00,,FEW,0.00,VWS V14.01,2013-05-24 18:53:00,
2013-05-24 13:54:00,73.6,41.9,30.42,SSE,158,5.6,10.3,32,0.00,,FEW,0.00,VWS V14.01,2013-05-24 18:54:00,
2013-05-24 13:55:00,71.4,40.8,30.41,East,90,3.4,4.9,33,0.00,,,0.00,VWS V14.01,2013-05-24 18:55:00,
2013-05-24 13:56:00,72.1,41.5,30.42,NNW,338,2.9,3.8,33,0.00,,FEW,0.00,VWS V14.01,2013-05-24 18:56:00,
2013-05-24 13:57:00,71.4,40.8,30.42,East,90,3.4,4.9,33,0.00,,FEW,0.00,VWS V14.01,2013-05-24 18:57:00,
2013-05-24 13:59:00,71.4,40.8,30.42,SSW,202,2.7,3.4,33,0.00,,FEW,0.00,VWS V14.01,2013-05-24 18:59:00,
2013-05-24 14:00:00,70.0,39.6,30.41,South,180,5.6,5.6,33,0.00,,,0.00,VWS V14.01,2013-05-24 19:00:00,
2013-05-24 14:01:00,70.0,39.6,30.42,SSE,158,4.5,4.5,33,0.00,,FEW,0.00,VWS V14.01,2013-05-24 19:01:00,
2013-05-24 14:02:00,70.0,39.6,30.42,South,180,5.6,5.6,33,0.00,,FEW,0.00,VWS V14.01,2013-05-24 19:02:00,
2013-05-24 14:03:00,70.0,39.6,30.42,SSW,202,4.0,6.5,33,0.00,,FEW,0.00,VWS V14.01,2013-05-24 19:03:00,
2013-05-24 14:04:00,69.1,39.6,30.42,SSE,158,1.6,5.4,34,0.00,,FEW,0.00,VWS V14.01,2013-05-24 19:04:00,
2013-05-24 14:05:00,71.1,41.3,30.41,SSE,158,4.3,4.3,34,0.00,,,0.00,VWS V14.01,2013-05-24 19:05:00,
2013-05-24 14:06:00,70.0,40.3,30.42,WNW,292,2.9,6.3,34,0.00,,FEW,0.00,VWS V14.01,2013-05-24 19:06:00,
2013-05-24 14:07:00,71.1,41.3,30.42,SSE,158,4.3,4.3,34,0.00,,FEW,0.00,VWS V14.01,2013-05-24 19:07:00,
2013-05-24 14:08:00,72.1,42.2,30.42,ESE,112,1.6,4.3,34,0.00,,FEW,0.00,VWS V14.01,2013-05-24 19:08:00,
2013-05-24 14:09:00,73.2,43.2,30.42,ESE,112,3.6,3.8,34,0.00,,FEW,0.00,VWS V14.01,2013-05-24 19:09:00,
2013-05-24 14:10:00,75.2,44.2,30.41,NNW,338,2.9,4.7,33,0.00,,,0.00,VWS V14.01,2013-05-24 19:10:00,
2013-05-24 14:11:00,74.7,44.5,30.42,North,0,1.6,3.1,34,0.00,,FEW,0.00,VWS V14.01,2013-05-24 19:11:00,
2013-05-24 14:12:00,75.2,44.2,30.42,NNW,338,2.9,4.7,33,0.00,,FEW,0.00,VWS V14.01,2013-05-24 19:12:00,
2013-05-24 14:13:00,75.7,43.8,30.42,ESE,112,2.9,3.6,32,0.00,,FEW,0.00,VWS V14.01,2013-05-24 19:13:00,
2013-05-24 14:14:00,75.6,43.7,30.42,SW,225,3.4,7.4,32,0.00,,FEW,0.00,VWS V14.01,2013-05-24 19:14:00,
2013-05-24 14:15:00,76.1,44.1,30.41,ENE,68,2.5,4.9,32,0.00,,,0.00,VWS V14.01,2013-05-24 19:15:00,
2013-05-24 14:16:00,75.9,44.0,30.42,SSW,202,3.4,5.4,32,0.00,,FEW,0.00,VWS V14.01,2013-05-24 19:16:00,
2013-05-24 14:17:00,76.1,44.1,30.42,ENE,68,2.5,4.9,32,0.00,,FEW,0.00,VWS V14.01,2013-05-24 19:17:00,
2013-05-24 14:18:00,76.3,44.3,30.42,ENE,68,3.8,5.8,32,0.00,,FEW,0.00,VWS V14.01,2013-05-24 19:18:00,
2013-05-24 14:19:00,76.5,44.4,30.42,East,90,1.6,3.8,32,0.00,,FEW,0.00,VWS V14.01,2013-05-24 19:19:00,
2013-05-24 14:20:00,76.3,44.3,30.41,ESE,112,4.0,8.1,32,0.00,,,0.00,VWS V14.01,2013-05-24 19:20:00,
2013-05-24 14:21:00,76.3,44.3,30.42,SE,135,8.1,8.1,32,0.00,,FEW,0.00,VWS V14.01,2013-05-24 19:21:00,
2013-05-24 14:22:00,76.3,44.3,30.42,ESE,112,4.0,8.1,32,0.00,,FEW,0.00,VWS V14.01,2013-05-24 19:22:00,
2013-05-24 14:23:00,76.1,44.1,30.42,South,180,2.0,6.0,32,0.00,,FEW,0.00,VWS V14.01,2013-05-24 19:23:00,
2013-05-24 14:24:00,76.3,44.3,30.42,East,90,2.7,7.6,32,0.00,,FEW,0.00,VWS V14.01,2013-05-24 19:24:00,
2013-05-24 14:25:00,77.9,45.7,30.41,SSW,202,1.6,3.8,32,0.00,,,0.00,VWS V14.01,2013-05-24 19:25:00,
2013-05-24 14:26:00,77.7,45.5,30.42,WNW,292,3.8,3.8,32,0.00,,FEW,0.00,VWS V14.01,2013-05-24 19:26:00,
2013-05-24 14:27:00,77.9,45.7,30.42,NNW,338,1.6,3.8,32,0.00,,FEW,0.00,VWS V14.01,2013-05-24 19:27:00,
2013-05-24 14:28:00,79.0,45.8,30.42,SSW,202,2.7,2.7,31,0.00,,FEW,0.00,VWS V14.01,2013-05-24 19:28:00,
2013-05-24 14:29:00,79.0,45.8,30.42,SE,135,3.6,3.6,31,0.00,,FEW,0.00,VWS V14.01,2013-05-24 19:29:00,
2013-05-24 14:30:00,77.7,44.7,30.39,SSE,158,1.6,3.1,31,0.00,,,0.00,VWS V14.01,2013-05-24 19:30:00,
2013-05-24 14:31:00,76.8,43.9,30.42,SW,225,3.1,9.4,31,0.00,,FEW,0.00,VWS V14.01,2013-05-24 19:31:00,
2013-05-24 14:32:00,77.7,44.7,30.39,SSE,158,1.6,3.1,31,0.00,,FEW,0.00,VWS V14.01,2013-05-24 19:32:00,
2013-05-24 14:33:00,78.3,45.2,30.39,NNW,338,4.3,4.3,31,0.00,,FEW,0.00,VWS V14.01,2013-05-24 19:33:00,
2013-05-24 14:34:00,77.2,44.2,30.39,SW,225,4.0,6.3,31,0.00,,FEW,0.00,VWS V14.01,2013-05-24 19:34:00,
2013-05-24 14:35:00,75.7,43.8,30.39,SE,135,6.5,7.6,32,0.00,,,0.00,VWS V14.01,2013-05-24 19:35:00,
2013-05-24 14:36:00,76.1,44.1,30.39,SE,135,7.6,13.2,32,0.00,,FEW,0.00,VWS V14.01,2013-05-24 19:36:00,
2013-05-24 14:37:00,75.7,43.8,30.39,SE,135,6.5,7.6,32,0.00,,FEW,0.00,VWS V14.01,2013-05-24 19:37:00,
2013-05-24 14:38:00,75.7,43.8,30.39,ENE,68,4.3,6.5,32,0.00,,FEW,0.00,VWS V14.01,2013-05-24 19:38:00,
2013-05-24 14:39:00,75.7,43.8,30.39,ENE,68,3.4,4.3,32,0.00,,FEW,0.00,VWS V14.01,2013-05-24 19:39:00,
2013-05-24 14:40:00,77.0,44.1,30.39,SSE,158,7.8,7.8,31,0.00,,,0.00,VWS V14.01,2013-05-24 19:40:00,
2013-05-24 14:41:00,77.0,44.1,30.39,WSW,248,2.0,6.0,31,0.00,,FEW,0.00,VWS V14.01,2013-05-24 19:41:00,
2013-05-24 14:42:00,77.0,44.1,30.39,SSE,158,7.8,7.8,31,0.00,,FEW,0.00,VWS V14.01,2013-05-24 19:42:00,
2013-05-24 14:43:00,77.0,44.1,30.39,SSE,158,7.8,7.8,31,0.00,,FEW,0.00,VWS V14.01,2013-05-24 19:43:00,
2013-05-24 14:44:00,75.9,43.2,30.39,SE,135,4.3,7.8,31,0.00,,FEW,0.00,VWS V14.01,2013-05-24 19:44:00,
2013-05-24 14:45:00,76.1,44.1,30.39,NNE,22,6.5,7.6,32,0.00,,,0.00,VWS V14.01,2013-05-24 19:45:00,
2013-05-24 14:46:00,76.5,44.4,30.39,SSW,202,7.6,11.0,32,0.00,,FEW,0.00,VWS V14.01,2013-05-24 19:46:00,
2013-05-24 14:47:00,76.1,44.1,30.39,NNE,22,6.5,7.6,32,0.00,,FEW,0.00,VWS V14.01,2013-05-24 19:47:00,
2013-05-24 14:48:00,76.3,44.3,30.39,ESE,112,2.0,6.5,32,0.00,,FEW,0.00,VWS V14.01,2013-05-24 19:48:00,
2013-05-24 14:50:00,77.4,45.2,30.39,ESE,112,8.5,8.5,32,0.00,,,0.00,VWS V14.01,2013-05-24 19:50:00,
2013-05-24 14:51:00,77.4,45.2,30.39,North,0,7.8,7.8,32,0.00,,FEW,0.00,VWS V14.01,2013-05-24 19:51:00,
2013-05-24 14:52:00,77.4,45.2,30.39,ESE,112,8.5,8.5,32,0.00,,FEW,0.00,VWS V14.01,2013-05-24 19:52:00,
2013-05-24 14:53:00,77.5,44.5,30.39,South,180,3.8,8.5,31,0.00,,FEW,0.00,VWS V14.01,2013-05-24 19:53:00,
2013-05-24 14:54:00,77.4,44.4,30.39,SE,135,5.6,6.3,31,0.00,,FEW,0.00,VWS V14.01,2013-05-24 19:54:00,
2013-05-24 14:55:00,77.0,44.1,30.39,SE,135,2.5,6.0,31,0.00,,,0.00,VWS V14.01,2013-05-24 19:55:00,
2013-05-24 14:56:00,77.0,44.1,30.39,SE,135,2.9,7.6,31,0.00,,FEW,0.00,VWS V14.01,2013-05-24 19:56:00,
2013-05-24 14:57:00,77.0,44.1,30.39,SE,135,2.5,6.0,31,0.00,,FEW,0.00,VWS V14.01,2013-05-24 19:57:00,
2013-05-24 14:58:00,77.0,44.1,30.39,SSW,202,6.5,6.5,31,0.00,,FEW,0.00,VWS V14.01,2013-05-24 19:58:00,
2013-05-24 14:59:00,77.5,44.5,30.39,SSW,202,3.8,6.5,31,0.00,,FEW,0.00,VWS V14.01,2013-05-24 19:59:00,
2013-05-24 15:00:00,74.7,42.9,30.39,SSW,202,6.0,6.5,32,0.00,,,0.00,VWS V14.01,2013-05-24 20:00:00,
2013-05-24 15:01:00,75.6,43.7,30.39,West,270,6.5,6.5,32,0.00,,FEW,0.00,VWS V14.01,2013-05-24 20:01:00,
2013-05-24 15:02:00,74.7,42.9,30.39,SSE,158,5.6,6.5,32,0.00,,FEW,0.00,VWS V14.01,2013-05-24 20:02:00,
2013-05-24 15:03:00,74.3,43.4,30.39,SE,135,6.3,7.4,33,0.00,,FEW,0.00,VWS V14.01,2013-05-24 20:03:00,
2013-05-24 15:04:00,74.3,43.4,30.39,SSE,158,6.0,8.5,33,0.00,,FEW,0.00,VWS V14.01,2013-05-24 20:04:00,
2013-05-24 15:05:00,72.3,40.8,30.39,East,90,6.3,8.1,32,0.00,,,0.00,VWS V14.01,2013-05-24 20:05:00,
2013-05-24 15:06:00,72.7,42.0,30.39,ESE,112,4.0,6.5,33,0.00,,FEW,0.00,VWS V14.01,2013-05-24 20:06:00,
2013-05-24 15:07:00,72.3,40.8,30.39,East,90,6.3,8.1,32,0.00,,FEW,0.00,VWS V14.01,2013-05-24 20:07:00,
2013-05-24 15:08:00,72.3,41.6,30.39,SSE,158,7.2,7.2,33,0.00,,FEW,0.00,VWS V14.01,2013-05-24 20:08:00,
2013-05-24 15:09:00,72.5,41.8,30.39,SE,135,4.3,7.4,33,0.00,,FEW,0.00,VWS V14.01,2013-05-24 20:09:00,
2013-05-24 15:10:00,73.9,43.0,30.39,ESE,112,6.0,6.3,33,0.00,,,0.00,VWS V14.01,2013-05-24 20:10:00,
2013-05-24 15:11:00,72.9,42.1,30.39,East,90,4.7,6.3,33,0.00,,FEW,0.00,VWS V14.01,2013-05-24 20:11:00,
2013-05-24 15:12:00,73.9,43.0,30.39,East,90,3.8,6.3,33,0.00,,FEW,0.00,VWS V14.01,2013-05-24 20:12:00,
2013-05-24 15:13:00,74.3,43.4,30.39,SSE,158,4.5,7.4,33,0.00,,FEW,0.00,VWS V14.01,2013-05-24 20:13:00,
2013-05-24 15:14:00,74.1,43.2,30.39,ESE,112,7.6,7.6,33,0.00,,FEW,0.00,VWS V14.01,2013-05-24 20:14:00,
2013-05-24 15:15:00,72.9,42.1,30.39,South,180,9.6,9.6,33,0.00,,,0.00,VWS V14.01,2013-05-24 20:15:00,
2013-05-24 15:16:00,72.9,42.1,30.39,South,180,9.6,9.6,33,0.00,,FEW,0.00,VWS V14.01,2013-05-24 20:16:00,
2013-05-24 15:17:00,72.9,42.1,30.39,South,180,9.6,9.6,33,0.00,,FEW,0.00,VWS V14.01,2013-05-24 20:17:00,
2013-05-24 15:18:00,72.1,41.5,30.39,ENE,68,10.1,10.1,33,0.00,,FEW,0.00,VWS V14.01,2013-05-24 20:18:00,
2013-05-24 15:19:00,71.8,41.2,30.39,South,180,9.6,10.1,33,0.00,,FEW,0.00,VWS V14.01,2013-05-24 20:19:00,
2013-05-24 15:20:00,72.1,42.2,30.39,SSW,202,1.3,7.4,34,0.00,,,0.00,VWS V14.01,2013-05-24 20:20:00,
2013-05-24 15:21:00,71.4,41.6,30.39,ESE,112,6.5,10.5,34,0.00,,FEW,0.00,VWS V14.01,2013-05-24 20:21:00,
2013-05-24 15:22:00,72.1,42.2,30.39,SSW,202,1.3,7.4,34,0.00,,FEW,0.00,VWS V14.01,2013-05-24 20:22:00,
2013-05-24 15:23:00,72.7,42.7,30.39,SE,135,4.7,4.7,34,0.00,,FEW,0.00,VWS V14.01,2013-05-24 20:23:00,
2013-05-24 15:24:00,72.9,42.1,30.39,East,90,7.2,9.6,33,0.00,,FEW,0.00,VWS V14.01,2013-05-24 20:24:00,
2013-05-24 15:25:00,73.9,43.8,30.39,WSW,248,9.6,9.6,34,0.00,,,0.00,VWS V14.01,2013-05-24 20:25:00,
2013-05-24 15:26:00,73.8,42.9,30.39,SSE,158,4.0,8.7,33,0.00,,FEW,0.00,VWS V14.01,2013-05-24 20:26:00,
2013-05-24 15:27:00,73.9,43.8,30.39,South,180,6.0,9.6,34,0.00,,FEW,0.00,VWS V14.01,2013-05-24 20:27:00,
2013-05-24 15:28:00,73.6,43.5,30.39,ESE,112,5.6,9.4,34,0.00,,FEW,0.00,VWS V14.01,2013-05-24 20:28:00,
2013-05-24 15:29:00,73.6,43.5,30.39,SSE,158,7.4,7.4,34,0.00,,FEW,0.00,VWS V14.01,2013-05-24 20:29:00,
2013-05-24 15:30:00,72.5,41.8,30.36,ESE,112,5.6,5.6,33,0.00,,,0.00,VWS V14.01,2013-05-24 20:30:00,
2013-05-24 15:31:00,72.5,41.8,30.39,SSW,202,4.3,8.5,33,0.00,,FEW,0.00,VWS V14.01,2013-05-24 20:31:00,
2013-05-24 15:32:00,72.5,41.8,30.36,ESE,112,5.6,5.6,33,0.00,,FEW,0.00,VWS V14.01,2013-05-24 20:32:00,
2013-05-24 15:33:00,71.6,41.0,30.36,ESE,112,5.4,6.0,33,0.00,,FEW,0.00,VWS V14.01,2013-05-24 20:33:00,
2013-05-24 15:34:00,71.4,41.6,30.36,SSE,158,2.7,6.3,34,0.00,,FEW,0.00,VWS V14.01,2013-05-24 20:34:00,
2013-05-24 15:35:00,70.9,41.1,30.36,SSW,202,4.3,5.6,34,0.00,,,0.00,VWS V14.01,2013-05-24 20:35:00,
2013-05-24 15:36:00,71.1,41.3,30.36,SSW,202,5.6,6.3,34,0.00,,FEW,0.00,VWS V14.01,2013-05-24 20:36:00,
2013-05-24 15:37:00,70.9,41.1,30.36,ESE,112,5.8,5.8,34,0.00,,FEW,0.00,VWS V14.01,2013-05-24 20:37:00,
2013-05-24 15:38:00,70.9,41.1,30.36,South,180,6.5,6.5,34,0.00,,FEW,0.00,VWS V14.01,2013-05-24 20:38:00,
2013-05-24 15:39:00,70.3,40.7,30.36,SE,135,7.6,8.7,34,0.00,,FEW,0.00,VWS V14.01,2013-05-24 20:39:00,
2013-05-24 15:40:00,70.2,40.5,30.36,SSE,158,6.0,9.8,34,0.00,,,0.00,VWS V14.01,2013-05-24 20:40:00,
2013-05-24 15:41:00,70.2,40.5,30.36,SSE,158,4.9,6.0,34,0.00,,,0.00,VWS V14.01,2013-05-24 20:41:00,
2013-05-24 15:42:00,70.2,40.5,30.36,SSE,158,7.6,7.6,34,0.00,,,0.00,VWS V14.01,2013-05-24 20:42:00,
2013-05-24 15:43:00,70.0,40.3,30.36,SE,135,8.7,8.7,34,0.00,,FEW,0.00,VWS V14.01,2013-05-24 20:43:00,
2013-05-24 15:44:00,69.6,40.0,30.36,SSW,202,10.1,12.8,34,0.00,,FEW,0.00,VWS V14.01,2013-05-24 20:44:00,
2013-05-24 15:45:00,69.4,40.6,30.36,SSE,158,6.5,10.7,35,0.00,,FEW,0.00,VWS V14.01,2013-05-24 20:45:00,
2013-05-24 15:46:00,69.4,40.6,30.36,SSE,158,7.6,8.5,35,0.00,,FEW,0.00,VWS V14.01,2013-05-24 20:46:00,
2013-05-24 15:47:00,69.4,40.6,30.36,SE,135,10.5,10.5,35,0.00,,FEW,0.00,VWS V14.01,2013-05-24 20:47:00,
2013-05-24 15:48:00,69.3,40.5,30.36,SSE,158,7.8,11.0,35,0.00,,FEW,0.00,VWS V14.01,2013-05-24 20:48:00,
2013-05-24 15:49:00,69.4,40.6,30.36,ESE,112,6.5,8.1,35,0.00,,FEW,0.00,VWS V14.01,2013-05-24 20:49:00,
2013-05-24 15:50:00,69.4,40.6,30.36,SE,135,10.1,10.5,35,0.00,,FEW,0.00,VWS V14.01,2013-05-24 20:50:00,
2013-05-24 15:51:00,69.4,40.6,30.36,SE,135,6.0,10.3,35,0.00,,FEW,0.00,VWS V14.01,2013-05-24 20:51:00,
2013-05-24 15:52:00,69.4,40.6,30.36,SSE,158,7.4,8.5,35,0.00,,,0.00,VWS V14.01,2013-05-24 20:52:00,
2013-05-24 15:53:00,69.4,40.6,30.36,SSW,202,8.5,8.7,35,0.00,,FEW,0.00,VWS V14.01,2013-05-24 20:53:00,
2013-05-24 15:54:00,69.4,40.6,30.36,SSE,158,5.6,8.5,35,0.00,,FEW,0.00,VWS V14.01,2013-05-24 20:54:00,
2013-05-24 15:55:00,69.4,40.6,30.36,South,180,3.8,6.3,35,0.00,,FEW,0.00,VWS V14.01,2013-05-24 20:55:00,
2013-05-24 15:56:00,69.4,40.6,30.36,South,180,4.7,4.7,35,0.00,,FEW,0.00,VWS V14.01,2013-05-24 20:56:00,
2013-05-24 15:57:00,70.7,41.7,30.36,South,180,3.8,4.7,35,0.00,,,0.00,VWS V14.01,2013-05-24 20:57:00,
2013-05-24 15:58:00,70.0,41.8,30.36,ESE,112,4.7,4.7,36,0.00,,FEW,0.00,VWS V14.01,2013-05-24 20:58:00,
2013-05-24 15:59:00,70.7,41.7,30.36,SSE,158,2.7,4.7,35,0.00,,FEW,0.00,VWS V14.01,2013-05-24 20:59:00,
2013-05-24 16:00:00,71.1,42.0,30.36,NNE,22,4.9,7.4,35,0.00,,FEW,0.00,VWS V14.01,2013-05-24 21:00:00,
2013-05-24 16:01:00,71.4,42.4,30.36,SSE,158,3.1,6.0,35,0.00,,FEW,0.00,VWS V14.01,2013-05-24 21:01:00,
2013-05-24 16:02:00,72.7,44.2,30.36,SSW,202,4.7,6.0,36,0.00,,,0.00,VWS V14.01,2013-05-24 21:02:00,
2013-05-24 16:03:00,72.1,43.0,30.36,SSE,158,3.1,8.1,35,0.00,,FEW,0.00,VWS V14.01,2013-05-24 21:03:00,
2013-05-24 16:04:00,72.7,44.2,30.36,SSW,202,6.5,6.5,36,0.00,,FEW,0.00,VWS V14.01,2013-05-24 21:04:00,
2013-05-24 16:05:00,73.2,44.7,30.36,SE,135,4.7,6.5,36,0.00,,FEW,0.00,VWS V14.01,2013-05-24 21:05:00,
2013-05-24 16:06:00,73.2,44.7,30.36,SSE,158,6.3,10.5,36,0.00,,FEW,0.00,VWS V14.01,2013-05-24 21:06:00,
2013-05-24 16:07:00,73.2,43.2,30.36,SSE,158,1.1,5.6,34,0.00,,,0.00,VWS V14.01,2013-05-24 21:07:00,
2013-05-24 16:08:00,73.2,43.2,30.36,South,180,5.6,6.3,34,0.00,,FEW,0.00,VWS V14.01,2013-05-24 21:08:00,
2013-05-24 16:09:00,73.2,43.2,30.36,SSE,158,1.6,5.6,34,0.00,,FEW,0.00,VWS V14.01,2013-05-24 21:09:00,
2013-05-24 16:10:00,73.2,43.2,30.36,SSE,158,30.9,35.8,34,0.00,,FEW,0.00,VWS V14.01,2013-05-24 21:10:00,
2013-05-24 16:11:00,73.2,43.2,30.36,SSE,158,3.8,30.9,34,0.00,,FEW,0.00,VWS V14.01,2013-05-24 21:11:00,
2013-05-24 16:12:00,73.2,43.2,30.36,South,180,10.3,10.3,34,0.00,,,0.00,VWS V14.01,2013-05-24 21:12:00,
2013-05-24 16:13:00,73.2,43.2,30.36,SSW,202,4.3,12.3,34,0.00,,FEW,0.00,VWS V14.01,2013-05-24 21:13:00,
2013-05-24 16:15:00,73.2,43.2,30.36,South,180,10.5,10.5,34,0.00,,FEW,0.00,VWS V14.01,2013-05-24 21:15:00,
2013-05-24 16:16:00,73.2,43.2,30.36,SE,135,8.1,10.5,34,0.00,,FEW,0.00,VWS V14.01,2013-05-24 21:16:00,
2013-05-24 16:17:00,73.2,43.2,30.36,South,180,5.6,6.3,34,0.00,,,0.00,VWS V14.01,2013-05-24 21:17:00,
2013-05-24 16:19:00,73.2,43.2,30.36,South,180,5.6,6.3,34,0.00,,FEW,0.00,VWS V14.01,2013-05-24 21:19:00,
2013-05-24 16:20:00,73.2,43.2,30.36,SSE,158,7.6,7.6,34,0.00,,FEW,0.00,VWS V14.01,2013-05-24 21:20:00,
2013-05-24 16:21:00,71.1,42.0,30.36,SSE,158,2.9,7.6,35,0.00,,FEW,0.00,VWS V14.01,2013-05-24 21:21:00,
2013-05-24 16:22:00,71.6,42.5,30.36,SSW,202,5.8,6.3,35,0.00,,,0.00,VWS V14.01,2013-05-24 21:22:00,
2013-05-24 16:23:00,71.2,42.2,30.36,SSW,202,6.3,6.3,35,0.00,,FEW,0.00,VWS V14.01,2013-05-24 21:23:00,
2013-05-24 16:24:00,71.6,42.5,30.36,ESE,112,5.8,6.3,35,0.00,,FEW,0.00,VWS V14.01,2013-05-24 21:24:00,
2013-05-24 16:25:00,71.8,42.7,30.36,ESE,112,3.4,7.6,35,0.00,,FEW,0.00,VWS V14.01,2013-05-24 21:25:00,
2013-05-24 16:26:00,71.8,42.7,30.36,SE,135,5.8,5.8,35,0.00,,FEW,0.00,VWS V14.01,2013-05-24 21:26:00,
2013-05-24 16:27:00,72.5,43.3,30.36,SE,135,7.6,10.1,35,0.00,,,0.00,VWS V14.01,2013-05-24 21:27:00,
2013-05-24 16:28:00,72.5,43.3,30.36,South,180,5.8,5.8,35,0.00,,FEW,0.00,VWS V14.01,2013-05-24 21:28:00,
2013-05-24 16:29:00,72.1,42.2,30.36,SE,135,8.1,10.1,34,0.00,,FEW,0.00,VWS V14.01,2013-05-24 21:29:00,
2013-05-24 16:30:00,71.8,42.7,30.36,SSE,158,8.1,9.8,35,0.00,,FEW,0.00,VWS V14.01,2013-05-24 21:30:00,
2013-05-24 16:31:00,71.6,41.8,30.36,SSE,158,5.6,8.1,34,0.00,,FEW,0.00,VWS V14.01,2013-05-24 21:31:00,
2013-05-24 16:32:00,71.4,42.4,30.36,SSE,158,10.3,12.8,35,0.00,,,0.00,VWS V14.01,2013-05-24 21:32:00,
2013-05-24 16:33:00,71.4,42.4,30.36,SSE,158,9.8,11.2,35,0.00,,FEW,0.00,VWS V14.01,2013-05-24 21:33:00,
2013-05-24 16:34:00,71.4,42.4,30.36,SSE,158,9.8,12.8,35,0.00,,FEW,0.00,VWS V14.01,2013-05-24 21:34:00,
2013-05-24 16:35:00,71.4,42.4,30.36,SSE,158,8.7,9.8,35,0.00,,FEW,0.00,VWS V14.01,2013-05-24 21:35:00,
2013-05-24 16:36:00,71.4,42.4,30.36,SSE,158,4.0,8.7,35,0.00,,FEW,0.00,VWS V14.01,2013-05-24 21:36:00,
2013-05-24 16:37:00,71.4,42.4,30.36,SE,135,7.6,8.1,35,0.00,,,0.00,VWS V14.01,2013-05-24 21:37:00,
2013-05-24 16:38:00,71.4,42.4,30.36,SSE,158,7.4,8.7,35,0.00,,FEW,0.00,VWS V14.01,2013-05-24 21:38:00,
2013-05-24 16:39:00,71.4,42.4,30.36,SE,135,7.6,8.1,35,0.00,,FEW,0.00,VWS V14.01,2013-05-24 21:39:00,
2013-05-24 16:41:00,69.8,40.9,30.36,SSE,158,10.1,13.0,35,0.00,,FEW,0.00,VWS V14.01,2013-05-24 21:41:00,
2013-05-24 16:42:00,69.3,41.2,30.36,ESE,112,5.6,6.5,36,0.00,,,0.00,VWS V14.01,2013-05-24 21:42:00,
2013-05-24 16:43:00,69.8,40.9,30.36,North,0,4.0,4.9,35,0.00,,FEW,0.00,VWS V14.01,2013-05-24 21:43:00,
2013-05-24 16:44:00,69.3,41.2,30.36,SE,135,4.3,6.5,36,0.00,,FEW,0.00,VWS V14.01,2013-05-24 21:44:00,
2013-05-24 16:45:00,69.3,41.9,30.36,SE,135,4.3,6.5,37,0.00,,FEW,0.00,VWS V14.01,2013-05-24 21:45:00,
2013-05-24 16:46:00,69.3,41.9,30.36,SSE,158,3.4,4.3,37,0.00,,FEW,0.00,VWS V14.01,2013-05-24 21:46:00,
2013-05-24 16:47:00,69.3,41.2,30.36,SSE,158,13.2,13.2,36,0.00,,,0.00,VWS V14.01,2013-05-24 21:47:00,
2013-05-24 16:48:00,69.4,42.1,30.36,SSE,158,7.8,7.8,37,0.00,,FEW,0.00,VWS V14.01,2013-05-24 21:48:00,
2013-05-24 16:49:00,69.3,41.2,30.36,SSE,158,13.2,13.2,36,0.00,,FEW,0.00,VWS V14.01,2013-05-24 21:49:00,
2013-05-24 16:50:00,69.3,41.2,30.36,SSE,158,13.2,13.2,36,0.00,,FEW,0.00,VWS V14.01,2013-05-24 21:50:00,
2013-05-24 16:51:00,69.1,41.7,30.36,SSW,202,6.3,13.2,37,0.00,,FEW,0.00,VWS V14.01,2013-05-24 21:51:00,
2013-05-24 16:52:00,69.1,41.7,30.36,SSE,158,6.0,6.5,37,0.00,,,0.00,VWS V14.01,2013-05-24 21:52:00,
2013-05-24 16:53:00,69.1,41.7,30.36,SE,135,6.5,10.3,37,0.00,,FEW,0.00,VWS V14.01,2013-05-24 21:53:00,
2013-05-24 16:54:00,69.1,41.7,30.36,SSE,158,3.6,6.5,37,0.00,,FEW,0.00,VWS V14.01,2013-05-24 21:54:00,
2013-05-24 16:55:00,69.1,41.7,30.36,SSE,158,6.0,10.7,37,0.00,,FEW,0.00,VWS V14.01,2013-05-24 21:55:00,
2013-05-24 16:56:00,69.1,41.7,30.36,SSE,158,5.4,6.0,37,0.00,,FEW,0.00,VWS V14.01,2013-05-24 21:56:00,
2013-05-24 16:57:00,69.1,41.7,30.36,ESE,112,5.6,7.4,37,0.00,,,0.00,VWS V14.01,2013-05-24 21:57:00,
2013-05-24 16:58:00,69.1,41.7,30.36,SW,225,7.4,9.6,37,0.00,,FEW,0.00,VWS V14.01,2013-05-24 21:58:00,
2013-05-24 16:59:00,69.1,41.7,30.36,SSW,202,5.6,7.4,37,0.00,,FEW,0.00,VWS V14.01,2013-05-24 21:59:00,
2013-05-24 17:00:00,68.7,41.4,30.36,SSE,158,5.4,5.6,37,0.00,,FEW,0.00,VWS V14.01,2013-05-24 22:00:00,
2013-05-24 17:01:00,68.7,41.4,30.36,SSE,158,4.0,5.6,37,0.00,,FEW,0.00,VWS V14.01,2013-05-24 22:01:00,
2013-05-24 17:02:00,68.7,41.4,30.36,SSW,202,3.1,5.4,37,0.00,,,0.00,VWS V14.01,2013-05-24 22:02:00,
2013-05-24 17:03:00,68.7,40.7,30.36,SE,135,5.4,6.5,36,0.00,,FEW,0.00,VWS V14.01,2013-05-24 22:03:00,
2013-05-24 17:04:00,68.7,41.4,30.36,SSW,202,3.1,5.4,37,0.00,,FEW,0.00,VWS V14.01,2013-05-24 22:04:00,
2013-05-24 17:05:00,68.5,40.6,30.36,SSE,158,3.4,6.3,36,0.00,,FEW,0.00,VWS V14.01,2013-05-24 22:05:00,
2013-05-24 17:06:00,68.5,40.6,30.36,South,180,6.5,10.1,36,0.00,,FEW,0.00,VWS V14.01,2013-05-24 22:06:00,
2013-05-24 17:07:00,68.2,40.2,30.36,SE,135,8.1,10.1,36,0.00,,,0.00,VWS V14.01,2013-05-24 22:07:00,
2013-05-24 17:08:00,68.2,40.2,30.36,SSE,158,8.7,10.1,36,0.00,,FEW,0.00,VWS V14.01,2013-05-24 22:08:00,
2013-05-24 17:09:00,68.2,40.2,30.36,SSE,158,5.8,10.1,36,0.00,,FEW,0.00,VWS V14.01,2013-05-24 22:09:00,
2013-05-24 17:10:00,68.0,40.1,30.36,SSE,158,7.8,7.8,36,0.00,,FEW,0.00,VWS V14.01,2013-05-24 22:10:00,
2013-05-24 17:11:00,67.8,39.9,30.36,SSE,158,5.6,8.7,36,0.00,,FEW,0.00,VWS V14.01,2013-05-24 22:11:00,
2013-05-24 17:12:00,67.8,40.6,30.36,South,180,3.8,5.6,37,0.00,,,0.00,VWS V14.01,2013-05-24 22:12:00,
2013-05-24 17:13:00,67.6,39.8,30.36,SE,135,4.0,5.8,36,0.00,,FEW,0.00,VWS V14.01,2013-05-24 22:13:00,
2013-05-24 17:14:00,67.8,40.6,30.36,South,180,3.8,5.6,37,0.00,,FEW,0.00,VWS V14.01,2013-05-24 22:14:00,
2013-05-24 17:15:00,67.6,40.5,30.36,SE,135,5.8,5.8,37,0.00,,FEW,0.00,VWS V14.01,2013-05-24 22:15:00,
2013-05-24 17:16:00,67.6,40.5,30.36,South,180,2.7,5.8,37,0.00,,FEW,0.00,VWS V14.01,2013-05-24 22:16:00,
2013-05-24 17:17:00,67.5,40.3,30.39,SSE,158,3.4,5.8,37,0.00,,,0.00,VWS V14.01,2013-05-24 22:17:00,
2013-05-24 17:18:00,67.6,40.5,30.39,South,180,5.4,5.4,37,0.00,,FEW,0.00,VWS V14.01,2013-05-24 22:18:00,
2013-05-24 17:19:00,67.5,40.3,30.39,SSE,158,3.4,5.8,37,0.00,,FEW,0.00,VWS V14.01,2013-05-24 22:19:00,
2013-05-24 17:20:00,67.5,40.3,30.39,NNE,22,4.9,4.9,37,0.00,,FEW,0.00,VWS V14.01,2013-05-24 22:20:00,
2013-05-24 17:21:00,67.3,40.1,30.39,SSE,158,3.6,4.9,37,0.00,,FEW,0.00,VWS V14.01,2013-05-24 22:21:00,
2013-05-24 17:22:00,67.1,40.0,30.39,SSE,158,3.1,7.6,37,0.00,,,0.00,VWS V14.01,2013-05-24 22:22:00,
2013-05-24 17:23:00,67.1,40.7,30.39,ESE,112,6.0,6.0,38,0.00,,FEW,0.00,VWS V14.01,2013-05-24 22:23:00,
2013-05-24 17:24:00,67.1,40.0,30.39,SW,225,5.8,7.6,37,0.00,,FEW,0.00,VWS V14.01,2013-05-24 22:24:00,
2013-05-24 17:25:00,66.9,40.5,30.39,SE,135,4.9,5.8,38,0.00,,FEW,0.00,VWS V14.01,2013-05-24 22:25:00,
2013-05-24 17:26:00,66.9,40.5,30.39,WNW,292,2.9,4.9,38,0.00,,FEW,0.00,VWS V14.01,2013-05-24 22:26:00,
2013-05-24 17:27:00,66.7,40.3,30.39,SSE,158,2.9,2.9,38,0.00,,,0.00,VWS V14.01,2013-05-24 22:27:00,
2013-05-24 17:28:00,66.9,40.5,30.39,West,270,2.7,3.1,38,0.00,,FEW,0.00,VWS V14.01,2013-05-24 22:28:00,
2013-05-24 17:29:00,66.7,40.3,30.39,WSW,248,2.7,2.9,38,0.00,,FEW,0.00,VWS V14.01,2013-05-24 22:29:00,
2013-05-24 17:30:00,66.7,40.3,30.39,SSW,202,2.9,2.9,38,0.00,,FEW,0.00,VWS V14.01,2013-05-24 22:30:00,
2013-05-24 17:31:00,66.7,40.3,30.39,SSE,158,3.6,3.6,38,0.00,,FEW,0.00,VWS V14.01,2013-05-24 22:31:00,
2013-05-24 17:32:00,66.6,40.2,30.41,SSE,158,2.2,3.8,38,0.00,,,0.00,VWS V14.01,2013-05-24 22:32:00,
2013-05-24 17:33:00,66.6,40.2,30.42,SSE,158,2.2,3.8,38,0.00,,FEW,0.00,VWS V14.01,2013-05-24 22:33:00,
2013-05-24 17:34:00,66.6,40.2,30.42,South,180,2.7,2.7,38,0.00,,FEW,0.00,VWS V14.01,2013-05-24 22:34:00,
2013-05-24 17:35:00,66.6,40.2,30.42,SW,225,3.8,3.8,38,0.00,,FEW,0.00,VWS V14.01,2013-05-24 22:35:00,
2013-05-24 17:36:00,66.6,40.2,30.42,SW,225,2.0,3.8,38,0.00,,FEW,0.00,VWS V14.01,2013-05-24 22:36:00,
2013-05-24 17:37:00,66.6,40.9,30.41,SE,135,2.5,2.5,39,0.00,,,0.00,VWS V14.01,2013-05-24 22:37:00,
2013-05-24 17:39:00,66.6,40.9,30.42,SE,135,2.5,2.5,39,0.00,,FEW,0.00,VWS V14.01,2013-05-24 22:39:00,
2013-05-24 17:40:00,66.6,40.9,30.42,ESE,112,2.5,2.5,39,0.00,,FEW,0.00,VWS V14.01,2013-05-24 22:40:00,
2013-05-24 17:41:00,66.6,40.9,30.42,SE,135,3.1,3.1,39,0.00,,FEW,0.00,VWS V14.01,2013-05-24 22:41:00,
2013-05-24 17:42:00,66.6,40.9,30.41,SE,135,3.1,3.1,39,0.00,,,0.00,VWS V14.01,2013-05-24 22:42:00,
2013-05-24 17:43:00,66.6,40.9,30.42,SE,135,3.1,3.1,39,0.00,,FEW,0.00,VWS V14.01,2013-05-24 22:43:00,
2013-05-24 17:44:00,66.6,40.9,30.42,SE,135,3.1,3.1,39,0.00,,FEW,0.00,VWS V14.01,2013-05-24 22:44:00,
2013-05-24 17:45:00,66.6,40.9,30.42,SE,135,3.1,3.1,39,0.00,,FEW,0.00,VWS V14.01,2013-05-24 22:45:00,
2013-05-24 17:46:00,66.6,40.9,30.42,SE,135,3.1,3.1,39,0.00,,FEW,0.00,VWS V14.01,2013-05-24 22:46:00,
2013-05-24 17:47:00,66.6,40.9,30.44,SE,135,1.6,1.6,39,0.00,,,0.00,VWS V14.01,2013-05-24 22:47:00,
2013-05-24 17:48:00,66.6,40.9,30.44,SE,135,1.6,3.1,39,0.00,,FEW,0.00,VWS V14.01,2013-05-24 22:48:00,
2013-05-24 17:49:00,66.6,40.9,30.44,SE,135,1.6,1.6,39,0.00,,FEW,0.00,VWS V14.01,2013-05-24 22:49:00,
2013-05-24 17:50:00,66.6,41.5,30.44,SE,135,1.6,1.6,40,0.00,,FEW,0.00,VWS V14.01,2013-05-24 22:50:00,
2013-05-24 17:51:00,66.6,41.5,30.44,SE,135,1.6,1.6,40,0.00,,FEW,0.00,VWS V14.01,2013-05-24 22:51:00,
2013-05-24 17:52:00,66.6,41.5,30.44,WSW,248,1.6,1.6,40,0.00,,,0.00,VWS V14.01,2013-05-24 22:52:00,
2013-05-24 17:53:00,66.6,41.5,30.44,WSW,248,1.6,1.6,40,0.00,,FEW,0.00,VWS V14.01,2013-05-24 22:53:00,
2013-05-24 17:54:00,66.6,41.5,30.44,WSW,248,1.6,1.6,40,0.00,,FEW,0.00,VWS V14.01,2013-05-24 22:54:00,
2013-05-24 17:55:00,66.6,41.5,30.44,WSW,248,1.6,1.6,40,0.00,,FEW,0.00,VWS V14.01,2013-05-24 22:55:00,
2013-05-24 17:56:00,66.6,41.5,30.44,WSW,248,1.6,1.6,40,0.00,,FEW,0.00,VWS V14.01,2013-05-24 22:56:00,
2013-05-24 17:57:00,66.6,42.2,30.44,WSW,248,1.6,1.6,41,0.00,,,0.00,VWS V14.01,2013-05-24 22:57:00,
2013-05-24 17:58:00,66.6,41.5,30.44,WSW,248,1.6,1.6,40,0.00,,FEW,0.00,VWS V14.01,2013-05-24 22:58:00,
2013-05-24 17:59:00,66.6,42.2,30.44,WSW,248,1.6,1.6,41,0.00,,FEW,0.00,VWS V14.01,2013-05-24 22:59:00,
2013-05-24 18:00:00,66.6,42.2,30.44,WSW,248,1.6,1.6,41,0.00,,FEW,0.00,VWS V14.01,2013-05-24 23:00:00,
2013-05-24 18:01:00,66.6,42.2,30.44,WSW,248,1.6,1.6,41,0.00,,FEW,0.00,VWS V14.01,2013-05-24 23:01:00,
2013-05-24 18:02:00,66.4,42.0,30.41,WSW,248,1.6,1.6,41,0.00,,,0.00,VWS V14.01,2013-05-24 23:02:00,
2013-05-24 18:03:00,66.4,42.0,30.42,WSW,248,1.6,1.6,41,0.00,,FEW,0.00,VWS V14.01,2013-05-24 23:03:00,
2013-05-24 18:04:00,66.4,42.0,30.42,WSW,248,1.6,1.6,41,0.00,,FEW,0.00,VWS V14.01,2013-05-24 23:04:00,
2013-05-24 18:05:00,66.4,42.0,30.42,WSW,248,1.6,1.6,41,0.00,,FEW,0.00,VWS V14.01,2013-05-24 23:05:00,
2013-05-24 18:06:00,66.2,41.8,30.42,WSW,248,1.6,1.6,41,0.00,,FEW,0.00,VWS V14.01,2013-05-24 23:06:00,
2013-05-24 18:07:00,66.2,42.5,30.41,WSW,248,1.6,1.6,42,0.00,,,0.00,VWS V14.01,2013-05-24 23:07:00,
2013-05-24 18:09:00,66.2,42.5,30.42,WSW,248,1.6,1.6,42,0.00,,FEW,0.00,VWS V14.01,2013-05-24 23:09:00,
2013-05-24 18:11:00,66.2,42.5,30.42,WSW,248,1.6,1.6,42,0.00,,FEW,0.00,VWS V14.01,2013-05-24 23:11:00,
2013-05-24 18:12:00,66.0,42.9,30.41,SE,135,3.4,3.4,43,0.00,,,0.00,VWS V14.01,2013-05-24 23:12:00,
2013-05-24 18:13:00,66.0,42.9,30.42,SE,135,3.4,3.4,43,0.00,,FEW,0.00,VWS V14.01,2013-05-24 23:13:00,
2013-05-24 18:14:00,66.0,42.9,30.42,SE,135,3.4,3.4,43,0.00,,FEW,0.00,VWS V14.01,2013-05-24 23:14:00,
2013-05-24 18:15:00,65.8,42.7,30.42,NE,45,4.3,4.3,43,0.00,,FEW,0.00,VWS V14.01,2013-05-24 23:15:00,
2013-05-24 18:16:00,65.8,42.7,30.42,NE,45,4.3,4.3,43,0.00,,FEW,0.00,VWS V14.01,2013-05-24 23:16:00,
2013-05-24 18:17:00,65.8,42.7,30.39,SSE,158,4.9,4.9,43,0.00,,,0.00,VWS V14.01,2013-05-24 23:17:00,
2013-05-24 18:18:00,65.8,42.7,30.39,SSE,158,4.9,4.9,43,0.00,,FEW,0.00,VWS V14.01,2013-05-24 23:18:00,
2013-05-24 18:19:00,65.8,42.7,30.39,SSE,158,4.9,4.9,43,0.00,,FEW,0.00,VWS V14.01,2013-05-24 23:19:00,
2013-05-24 18:20:00,65.8,42.7,30.39,ESE,112,4.9,4.9,43,0.00,,FEW,0.00,VWS V14.01,2013-05-24 23:20:00,
2013-05-24 18:21:00,65.7,42.6,30.39,SSE,158,4.3,4.9,43,0.00,,FEW,0.00,VWS V14.01,2013-05-24 23:21:00,
2013-05-24 18:22:00,65.7,42.6,30.39,SSE,158,4.0,4.0,43,0.00,,,0.00,VWS V14.01,2013-05-24 23:22:00,
2013-05-24 18:23:00,65.7,42.6,30.39,SSE,158,3.4,5.6,43,0.00,,FEW,0.00,VWS V14.01,2013-05-24 23:23:00,
2013-05-24 18:24:00,65.7,42.6,30.39,SSE,158,4.0,4.0,43,0.00,,FEW,0.00,VWS V14.01,2013-05-24 23:24:00,
2013-05-24 18:25:00,65.7,43.2,30.39,SSE,158,3.8,5.4,44,0.00,,FEW,0.00,VWS V14.01,2013-05-24 23:25:00,
2013-05-24 18:26:00,65.5,42.4,30.39,SSE,158,3.6,3.8,43,0.00,,FEW,0.00,VWS V14.01,2013-05-24 23:26:00,
2013-05-24 18:27:00,65.5,43.0,30.39,SSE,158,3.6,3.6,44,0.00,,,0.00,VWS V14.01,2013-05-24 23:27:00,
2013-05-24 18:28:00,65.5,43.0,30.39,SSE,158,3.6,3.6,44,0.00,,FEW,0.00,VWS V14.01,2013-05-24 23:28:00,
2013-05-24 18:29:00,65.5,43.0,30.39,SSE,158,3.6,3.6,44,0.00,,FEW,0.00,VWS V14.01,2013-05-24 23:29:00,
2013-05-24 18:30:00,65.5,43.0,30.39,SSE,158,3.6,3.6,44,0.00,,FEW,0.00,VWS V14.01,2013-05-24 23:30:00,
2013-05-24 18:31:00,65.3,42.8,30.39,SSE,158,3.6,3.6,44,0.00,,FEW,0.00,VWS V14.01,2013-05-24 23:31:00,
2013-05-24 18:32:00,65.3,42.8,30.39,SSE,158,4.9,4.9,44,0.00,,,0.00,VWS V14.01,2013-05-24 23:32:00,
2013-05-24 18:33:00,65.3,42.8,30.39,SSW,202,1.6,6.5,44,0.00,,FEW,0.00,VWS V14.01,2013-05-24 23:33:00,
2013-05-24 18:34:00,65.3,42.8,30.39,SSE,158,4.9,4.9,44,0.00,,FEW,0.00,VWS V14.01,2013-05-24 23:34:00,
2013-05-24 18:36:00,65.1,42.7,30.39,SSE,158,4.9,4.9,44,0.00,,FEW,0.00,VWS V14.01,2013-05-24 23:36:00,
2013-05-24 18:37:00,65.1,42.7,30.39,SSE,158,4.9,4.9,44,0.00,,,0.00,VWS V14.01,2013-05-24 23:37:00,
2013-05-24 18:38:00,65.1,42.7,30.39,SSE,158,4.9,4.9,44,0.00,,FEW,0.00,VWS V14.01,2013-05-24 23:38:00,
2013-05-24 18:39:00,65.1,42.7,30.39,SSE,158,4.9,4.9,44,0.00,,FEW,0.00,VWS V14.01,2013-05-24 23:39:00,
2013-05-24 18:40:00,65.1,42.7,30.39,ENE,68,2.7,4.9,44,0.00,,FEW,0.00,VWS V14.01,2013-05-24 23:40:00,
2013-05-24 18:41:00,64.9,42.5,30.39,SE,135,4.7,4.7,44,0.00,,FEW,0.00,VWS V14.01,2013-05-24 23:41:00,
2013-05-24 18:42:00,64.9,42.5,30.39,SSE,158,1.3,3.8,44,0.00,,,0.00,VWS V14.01,2013-05-24 23:42:00,
2013-05-24 18:43:00,64.9,42.5,30.39,SE,135,2.5,4.0,44,0.00,,FEW,0.00,VWS V14.01,2013-05-24 23:43:00,
2013-05-24 18:44:00,64.9,42.5,30.39,ESE,112,2.7,3.8,44,0.00,,FEW,0.00,VWS V14.01,2013-05-24 23:44:00,
2013-05-24 18:45:00,64.8,42.4,30.39,ESE,112,3.6,3.6,44,0.00,,FEW,0.00,VWS V14.01,2013-05-24 23:45:00,
2013-05-24 18:46:00,64.8,42.4,30.39,South,180,2.9,3.6,44,0.00,,FEW,0.00,VWS V14.01,2013-05-24 23:46:00,
2013-05-24 18:47:00,64.8,43.0,30.36,ENE,68,3.6,3.6,45,0.00,,,0.00,VWS V14.01,2013-05-24 23:47:00,
2013-05-24 18:48:00,64.8,43.0,30.36,SSE,158,3.1,3.8,45,0.00,,FEW,0.00,VWS V14.01,2013-05-24 23:48:00,
2013-05-24 18:49:00,64.8,43.0,30.36,ENE,68,3.6,3.6,45,0.00,,FEW,0.00,VWS V14.01,2013-05-24 23:49:00,
2013-05-24 18:50:00,64.8,43.0,30.36,ENE,68,3.6,3.6,45,0.00,,FEW,0.00,VWS V14.01,2013-05-24 23:50:00,
2013-05-24 18:51:00,64.6,42.8,30.36,ENE,68,2.5,3.6,45,0.00,,FEW,0.00,VWS V14.01,2013-05-24 23:51:00,
2013-05-24 18:52:00,64.6,42.8,30.36,South,180,3.4,4.3,45,0.00,,,0.00,VWS V14.01,2013-05-24 23:52:00,
2013-05-24 18:53:00,64.6,42.8,30.36,SE,135,2.5,2.5,45,0.00,,FEW,0.00,VWS V14.01,2013-05-24 23:53:00,
2013-05-24 18:54:00,64.6,42.8,30.36,ESE,112,2.9,4.3,45,0.00,,FEW,0.00,VWS V14.01,2013-05-24 23:54:00,
2013-05-24 18:55:00,64.6,42.8,30.36,SSE,158,3.1,3.8,45,0.00,,FEW,0.00,VWS V14.01,2013-05-24 23:55:00,
2013-05-24 18:56:00,64.6,42.8,30.36,SSE,158,3.1,3.1,45,0.00,,FEW,0.00,VWS V14.01,2013-05-24 23:56:00,
2013-05-24 18:57:00,64.4,42.6,30.36,SSE,158,6.0,6.3,45,0.00,,,0.00,VWS V14.01,2013-05-24 23:57:00,
2013-05-24 18:58:00,64.4,42.6,30.36,SE,135,3.1,3.4,45,0.00,,FEW,0.00,VWS V14.01,2013-05-24 23:58:00,
2013-05-24 19:00:00,64.4,42.6,30.36,SSE,158,6.5,6.5,45,0.00,,FEW,0.00,VWS V14.01,2013-05-25 00:00:00,
2013-05-24 19:01:00,64.4,42.6,30.36,ESE,112,6.0,6.5,45,0.00,,FEW,0.00,VWS V14.01,2013-05-25 00:01:00,
2013-05-24 19:02:00,64.4,42.6,30.36,ESE,112,4.3,4.3,45,0.00,,,0.00,VWS V14.01,2013-05-25 00:02:00,
2013-05-24 19:03:00,64.4,42.6,30.36,ESE,112,4.3,4.7,45,0.00,,FEW,0.00,VWS V14.01,2013-05-25 00:03:00,
2013-05-24 19:04:00,64.4,42.6,30.36,ESE,112,4.3,4.3,45,0.00,,FEW,0.00,VWS V14.01,2013-05-25 00:04:00,
2013-05-24 19:05:00,64.2,43.0,30.36,East,90,1.6,4.3,46,0.00,,FEW,0.00,VWS V14.01,2013-05-25 00:05:00,
2013-05-24 19:06:00,64.2,43.0,30.36,SSE,158,5.4,5.4,46,0.00,,FEW,0.00,VWS V14.01,2013-05-25 00:06:00,
2013-05-24 19:07:00,64.2,43.0,30.36,SE,135,2.5,4.0,46,0.00,,,0.00,VWS V14.01,2013-05-25 00:07:00,
2013-05-24 19:08:00,64.2,43.0,30.36,ESE,112,4.0,6.0,46,0.00,,FEW,0.00,VWS V14.01,2013-05-25 00:08:00,
2013-05-24 19:09:00,64.2,43.0,30.36,ENE,68,3.1,4.0,46,0.00,,FEW,0.00,VWS V14.01,2013-05-25 00:09:00,
2013-05-24 19:10:00,64.2,43.0,30.36,SE,135,2.5,4.9,46,0.00,,FEW,0.00,VWS V14.01,2013-05-25 00:10:00,
2013-05-24 19:11:00,64.2,43.0,30.36,SSE,158,4.3,5.8,46,0.00,,FEW,0.00,VWS V14.01,2013-05-25 00:11:00,
2013-05-24 19:12:00,64.0,42.9,30.36,SSE,158,4.0,4.3,46,0.00,,,0.00,VWS V14.01,2013-05-25 00:12:00,
2013-05-24 19:13:00,64.0,42.9,30.36,ESE,112,3.4,4.7,46,0.00,,FEW,0.00,VWS V14.01,2013-05-25 00:13:00,
2013-05-24 19:14:00,64.0,42.9,30.36,SSE,158,2.9,5.6,46,0.00,,FEW,0.00,VWS V14.01,2013-05-25 00:14:00,
2013-05-24 19:15:00,64.0,42.9,30.36,SSE,158,2.7,2.9,46,0.00,,FEW,0.00,VWS V14.01,2013-05-25 00:15:00,
2013-05-24 19:16:00,63.9,43.3,30.36,West,270,5.6,5.6,47,0.00,,FEW,0.00,VWS V14.01,2013-05-25 00:16:00,
2013-05-24 19:17:00,63.9,43.3,30.30,SE,135,5.8,5.8,47,0.00,,,0.00,VWS V14.01,2013-05-25 00:17:00,
2013-05-24 19:19:00,63.9,43.3,30.30,SE,135,5.8,5.8,47,0.00,,FEW,0.00,VWS V14.01,2013-05-25 00:19:00,
2013-05-24 19:20:00,63.5,43.5,30.30,SSE,158,3.8,5.8,48,0.00,,FEW,0.00,VWS V14.01,2013-05-25 00:20:00,
2013-05-24 19:21:00,63.5,43.5,30.30,SE,135,4.0,7.8,48,0.00,,FEW,0.00,VWS V14.01,2013-05-25 00:21:00,
2013-05-24 19:22:00,63.0,44.0,30.30,SE,135,4.0,4.3,50,0.00,,,0.00,VWS V14.01,2013-05-25 00:22:00,
2013-05-24 19:23:00,63.0,44.0,30.30,ESE,112,4.3,6.0,50,0.00,,FEW,0.00,VWS V14.01,2013-05-25 00:23:00,
2013-05-24 19:24:00,63.0,44.0,30.30,SE,135,3.6,4.3,50,0.00,,FEW,0.00,VWS V14.01,2013-05-25 00:24:00,
2013-05-24 19:25:00,62.8,44.9,30.30,East,90,2.9,4.3,52,0.00,,FEW,0.00,VWS V14.01,2013-05-25 00:25:00,
2013-05-24 19:26:00,62.6,44.8,30.30,East,90,4.7,7.4,52,0.00,,FEW,0.00,VWS V14.01,2013-05-25 00:26:00,
2013-05-24 19:27:00,62.2,45.4,30.30,SSE,158,5.8,5.8,54,0.00,,,0.00,VWS V14.01,2013-05-25 00:27:00,
2013-05-24 19:28:00,62.2,45.4,30.30,SSE,158,5.8,6.3,54,0.00,,FEW,0.00,VWS V14.01,2013-05-25 00:28:00,
2013-05-24 19:29:00,62.2,45.4,30.30,SSW,202,4.0,8.7,54,0.00,,FEW,0.00,VWS V14.01,2013-05-25 00:29:00,
2013-05-24 19:30:00,61.9,45.5,30.30,SE,135,7.4,7.4,55,0.00,,FEW,0.00,VWS V14.01,2013-05-25 00:30:00,
2013-05-24 19:31:00,61.7,45.4,30.30,North,0,4.0,7.4,55,0.00,,FEW,0.00,VWS V14.01,2013-05-25 00:31:00,
2013-05-24 19:32:00,61.3,44.6,30.30,SSW,202,3.4,3.8,54,0.00,,,0.00,VWS V14.01,2013-05-25 00:32:00,
2013-05-24 19:33:00,61.7,45.4,30.30,SSE,158,3.8,3.8,55,0.00,,FEW,0.00,VWS V14.01,2013-05-25 00:33:00,
2013-05-24 19:34:00,61.3,44.6,30.30,ESE,112,3.1,3.8,54,0.00,,FEW,0.00,VWS V14.01,2013-05-25 00:34:00,
2013-05-24 19:35:00,61.3,45.0,30.30,South,180,1.3,3.1,55,0.00,,FEW,0.00,VWS V14.01,2013-05-25 00:35:00,
2013-05-24 19:36:00,61.2,44.9,30.30,SE,135,2.5,2.5,55,0.00,,FEW,0.00,VWS V14.01,2013-05-25 00:36:00,
2013-05-24 19:37:00,61.0,45.7,30.30,SSE,158,2.0,2.5,57,0.00,,,0.00,VWS V14.01,2013-05-25 00:37:00,
2013-05-24 19:38:00,61.0,45.7,30.30,SE,135,2.5,4.3,57,0.00,,FEW,0.00,VWS V14.01,2013-05-25 00:38:00,
2013-05-24 19:39:00,60.8,46.4,30.30,NE,45,4.0,4.0,59,0.00,,FEW,0.00,VWS V14.01,2013-05-25 00:39:00,
2013-05-24 19:42:00,60.4,46.1,30.30,SSE,158,1.1,1.1,59,0.00,,,0.00,VWS V14.01,2013-05-25 00:42:00,
2013-05-24 19:47:00,59.9,46.4,30.33,SSE,158,0.9,1.1,61,0.00,,,0.00,VWS V14.01,2013-05-25 00:47:00,
2013-05-24 19:52:00,59.7,46.7,30.33,SSE,158,1.6,2.2,62,0.00,,,0.00,VWS V14.01,2013-05-25 00:52:00,
2013-05-24 19:57:00,59.5,47.4,30.33,SSE,158,2.9,2.9,64,0.00,,,0.00,VWS V14.01,2013-05-25 00:57:00,
2013-05-24 20:02:00,59.4,47.2,30.36,SSW,202,1.6,2.0,64,0.00,,,0.00,VWS V14.01,2013-05-25 01:02:00,
2013-05-24 20:07:00,59.4,47.2,30.36,SE,135,0.9,2.2,64,0.00,,,0.00,VWS V14.01,2013-05-25 01:07:00,
2013-05-24 20:12:00,59.2,47.0,30.36,SSE,158,1.1,1.3,64,0.00,,,0.00,VWS V14.01,2013-05-25 01:12:00,
2013-05-24 20:17:00,59.2,47.0,30.36,SE,135,0.9,0.9,64,0.00,,,0.00,VWS V14.01,2013-05-25 01:17:00,
2013-05-24 20:22:00,59.0,46.8,30.36,ESE,112,0.0,1.1,64,0.00,,,0.00,VWS V14.01,2013-05-25 01:22:00,
2013-05-24 20:27:00,58.8,46.7,30.36,ENE,68,0.9,1.1,64,0.00,,,0.00,VWS V14.01,2013-05-25 01:27:00,
2013-05-24 20:32:00,58.8,47.5,30.36,East,90,1.1,1.1,66,0.00,,,0.00,VWS V14.01,2013-05-25 01:32:00,
2013-05-24 20:37:00,58.8,48.7,30.36,SE,135,2.5,2.5,69,0.00,,,0.00,VWS V14.01,2013-05-25 01:37:00,
2013-05-24 20:42:00,58.5,49.1,30.36,SSE,158,0.9,0.9,71,0.00,,,0.00,VWS V14.01,2013-05-25 01:42:00,
2013-05-24 20:47:00,58.6,49.3,30.36,SSE,158,0.9,0.9,71,0.00,,,0.00,VWS V14.01,2013-05-25 01:47:00,
2013-05-24 20:52:00,58.8,49.1,30.36,SSE,158,0.9,0.9,70,0.00,,,0.00,VWS V14.01,2013-05-25 01:52:00,
2013-05-24 20:57:00,58.5,48.7,30.36,SSE,158,0.9,0.9,70,0.00,,,0.00,VWS V14.01,2013-05-25 01:57:00,
2013-05-24 21:02:00,58.3,48.9,30.36,SSE,158,0.9,0.9,71,0.00,,,0.00,VWS V14.01,2013-05-25 02:02:00,
2013-05-24 21:07:00,58.3,49.3,30.36,SSE,158,0.9,0.9,72,0.00,,,0.00,VWS V14.01,2013-05-25 02:07:00,
2013-05-24 21:12:00,58.1,49.1,30.36,SSE,158,0.9,0.9,72,0.00,,,0.00,VWS V14.01,2013-05-25 02:12:00,
2013-05-24 21:17:00,57.9,49.0,30.36,SSE,158,0.9,0.9,72,0.00,,,0.00,VWS V14.01,2013-05-25 02:17:00,
2013-05-24 21:22:00,57.6,49.0,30.36,SSE,158,0.9,0.9,73,0.00,,,0.00,VWS V14.01,2013-05-25 02:22:00,
2013-05-24 21:27:00,57.2,48.6,30.36,SSE,158,0.9,0.9,73,0.00,,,0.00,VWS V14.01,2013-05-25 02:27:00,
2013-05-24 21:32:00,57.2,49.0,30.36,SSE,158,0.9,0.9,74,0.00,,,0.00,VWS V14.01,2013-05-25 02:32:00,
2013-05-24 21:37:00,57.0,50.9,30.36,SSE,158,0.9,0.9,80,0.00,,,0.00,VWS V14.01,2013-05-25 02:37:00,
2013-05-24 21:42:00,56.8,51.1,30.36,SSE,158,0.9,0.9,81,0.00,,,0.00,VWS V14.01,2013-05-25 02:42:00,
2013-05-24 21:47:00,56.8,51.1,30.36,SSE,158,0.9,0.9,81,0.00,,,0.00,VWS V14.01,2013-05-25 02:47:00,
2013-05-24 21:52:00,56.8,51.1,30.36,SSE,158,0.9,0.9,81,0.00,,,0.00,VWS V14.01,2013-05-25 02:52:00,
2013-05-24 21:57:00,56.5,50.7,30.36,SSE,158,0.9,0.9,81,0.00,,,0.00,VWS V14.01,2013-05-25 02:57:00,
2013-05-24 22:02:00,56.3,50.9,30.36,ESE,112,2.0,2.0,82,0.04,,,0.04,VWS V14.01,2013-05-25 03:02:00,
2013-05-24 22:07:00,55.9,50.5,30.36,ESE,112,2.0,2.0,82,0.04,,,0.04,VWS V14.01,2013-05-25 03:07:00,
2013-05-24 22:12:00,55.8,50.7,30.36,ESE,112,2.0,2.0,83,0.04,,,0.04,VWS V14.01,2013-05-25 03:12:00,
2013-05-24 22:17:00,55.6,50.8,30.36,SSE,158,2.7,2.7,84,0.04,,,0.04,VWS V14.01,2013-05-25 03:17:00,
2013-05-24 22:22:00,55.4,51.0,30.36,SSE,158,2.7,2.7,85,0.04,,,0.04,VWS V14.01,2013-05-25 03:22:00,
2013-05-24 22:27:00,55.2,51.4,30.36,SSE,158,2.7,2.7,87,0.04,,,0.04,VWS V14.01,2013-05-25 03:27:00,
2013-05-24 22:32:00,55.0,51.2,30.36,SSE,158,2.7,2.7,87,0.04,,,0.04,VWS V14.01,2013-05-25 03:32:00,
2013-05-24 22:37:00,54.9,51.4,30.36,SE,135,2.9,2.9,88,0.04,,,0.04,VWS V14.01,2013-05-25 03:37:00,
2013-05-24 22:42:00,54.9,51.7,30.36,SE,135,2.9,2.9,89,0.08,,,0.08,VWS V14.01,2013-05-25 03:42:00,
2013-05-24 22:47:00,54.7,51.5,30.36,SE,135,2.9,2.9,89,0.08,,,0.08,VWS V14.01,2013-05-25 03:47:00,
2013-05-24 22:52:00,54.5,51.6,30.36,ESE,112,3.1,6.3,90,0.08,,,0.08,VWS V14.01,2013-05-25 03:52:00,
2013-05-24 22:57:00,54.5,51.9,30.36,South,180,6.0,8.1,91,0.08,,,0.08,VWS V14.01,2013-05-25 03:57:00,
2013-05-24 23:01:00,54.3,52.0,30.36,SSE,158,3.1,3.4,92,0.08,,,0.12,VWS V14.01,2013-05-25 04:01:00,
2013-05-24 23:06:00,54.1,51.6,30.36,ENE,68,3.6,5.4,91,0.08,,,0.12,VWS V14.01,2013-05-25 04:06:00,
2013-05-24 23:11:00,54.1,51.9,30.36,SSE,158,3.8,3.8,92,0.08,,,0.12,VWS V14.01,2013-05-25 04:11:00,
2013-05-24 23:16:00,54.1,51.9,30.39,SSE,158,2.5,3.1,92,0.08,,,0.12,VWS V14.01,2013-05-25 04:16:00,
2013-05-24 23:21:00,54.0,51.7,30.39,SE,135,1.6,3.1,92,0.08,,,0.12,VWS V14.01,2013-05-25 04:21:00,
2013-05-24 23:26:00,53.8,51.5,30.39,ESE,112,5.4,5.6,92,0.08,,,0.12,VWS V14.01,2013-05-25 04:26:00,
2013-05-24 23:31:00,53.8,51.5,30.39,SSE,158,4.3,6.3,92,0.08,,,0.12,VWS V14.01,2013-05-25 04:31:00,
2013-05-24 23:36:00,53.6,51.3,30.39,WNW,292,0.0,0.9,92,0.08,,,0.12,VWS V14.01,2013-05-25 04:36:00,
2013-05-24 23:41:00,53.4,51.2,30.39,ESE,112,2.0,2.0,92,0.08,,,0.12,VWS V14.01,2013-05-25 04:41:00,
2013-05-24 23:46:00,53.2,51.0,30.36,East,90,1.1,1.1,92,0.04,,,0.12,VWS V14.01,2013-05-25 04:46:00,
2013-05-24 23:51:00,53.2,51.0,30.36,East,90,0.0,2.9,92,0.04,,,0.12,VWS V14.01,2013-05-25 04:51:00,
2013-05-24 23:56:00,53.2,51.0,30.36,NE,45,2.5,2.5,92,0.04,,,0.12,VWS V14.01,2013-05-25 04:56:00,